<?xml version="1.0" encoding="UTF-8" standalone="no" ?>
<gpx xmlns="http://www.topografix.com/GPX/1/1" xmlns:xsi="http://www.w3.org/2001/XMLSchema-instance" xsi:schemaLocation="http://www.topografix.com/GPX/1/1 http://www.topografix.com/GPX/1/1/gpx.xsd" version="1.1" creator="VisuGPX - https://www.visugpx.com">
  <metadata>
    <name>Méounes-Agnis</name>
    <desc><![CDATA[boucle au départ de Méounes via Ponchin et Agnis]]></desc>
  </metadata>
  <trk>
    <name><![CDATA[2018-11-18 Méounes]]></name>
    <desc><![CDATA[Jean-Louis+Frédéric+Yves]]></desc>
    <trkseg>
      <trkpt lat="43.28099" lon="5.96684">
        <ele>287.36328125</ele>
        <time>2018-11-18T07:58:38Z</time>
      </trkpt>
      <trkpt lat="43.28097" lon="5.96688">
        <ele>286.4921875</ele>
        <time>2018-11-18T07:58:53Z</time>
      </trkpt>
      <trkpt lat="43.28097" lon="5.96688">
        <ele>286.46875</ele>
        <time>2018-11-18T07:58:54Z</time>
      </trkpt>
      <trkpt lat="43.28094" lon="5.96686">
        <ele>286.0234375</ele>
        <time>2018-11-18T07:59:10Z</time>
      </trkpt>
      <trkpt lat="43.28094" lon="5.96686">
        <ele>286.125</ele>
        <time>2018-11-18T07:59:11Z</time>
      </trkpt>
      <trkpt lat="43.28093" lon="5.96683">
        <ele>286.1015625</ele>
        <time>2018-11-18T07:59:36Z</time>
      </trkpt>
      <trkpt lat="43.28097" lon="5.9668">
        <ele>287.3046875</ele>
        <time>2018-11-18T08:00:09Z</time>
      </trkpt>
      <trkpt lat="43.28097" lon="5.96681">
        <ele>287.31640625</ele>
        <time>2018-11-18T08:00:35Z</time>
      </trkpt>
      <trkpt lat="43.28097" lon="5.96679">
        <ele>287.46875</ele>
        <time>2018-11-18T08:01:06Z</time>
      </trkpt>
      <trkpt lat="43.28093" lon="5.9668">
        <ele>286.3515625</ele>
        <time>2018-11-18T08:01:37Z</time>
      </trkpt>
      <trkpt lat="43.28089" lon="5.96682">
        <ele>285.22265625</ele>
        <time>2018-11-18T08:02:15Z</time>
      </trkpt>
      <trkpt lat="43.28089" lon="5.96679">
        <ele>285.41015625</ele>
        <time>2018-11-18T08:03:02Z</time>
      </trkpt>
      <trkpt lat="43.28095" lon="5.96687">
        <ele>286.2265625</ele>
        <time>2018-11-18T08:03:58Z</time>
      </trkpt>
      <trkpt lat="43.28092" lon="5.96685">
        <ele>285.7265625</ele>
        <time>2018-11-18T08:04:09Z</time>
      </trkpt>
      <trkpt lat="43.2809" lon="5.96682">
        <ele>285.5234375</ele>
        <time>2018-11-18T08:04:23Z</time>
      </trkpt>
      <trkpt lat="43.28087" lon="5.96683">
        <ele>284.765625</ele>
        <time>2018-11-18T08:04:58Z</time>
      </trkpt>
      <trkpt lat="43.28087" lon="5.96683">
        <ele>284.6953125</ele>
        <time>2018-11-18T08:05:00Z</time>
      </trkpt>
      <trkpt lat="43.28088" lon="5.96689">
        <ele>284.6015625</ele>
        <time>2018-11-18T08:05:03Z</time>
      </trkpt>
      <trkpt lat="43.28092" lon="5.96696">
        <ele>284.96875</ele>
        <time>2018-11-18T08:05:07Z</time>
      </trkpt>
      <trkpt lat="43.28099" lon="5.96714">
        <ele>284.18359375</ele>
        <time>2018-11-18T08:05:15Z</time>
      </trkpt>
      <trkpt lat="43.28098" lon="5.96721">
        <ele>283.3828125</ele>
        <time>2018-11-18T08:05:18Z</time>
      </trkpt>
      <trkpt lat="43.28096" lon="5.96723">
        <ele>283.25</ele>
        <time>2018-11-18T08:05:19Z</time>
      </trkpt>
      <trkpt lat="43.28094" lon="5.96724">
        <ele>283.1640625</ele>
        <time>2018-11-18T08:05:20Z</time>
      </trkpt>
      <trkpt lat="43.28092" lon="5.96725">
        <ele>283.10546875</ele>
        <time>2018-11-18T08:05:21Z</time>
      </trkpt>
      <trkpt lat="43.28091" lon="5.96726">
        <ele>283.0625</ele>
        <time>2018-11-18T08:05:22Z</time>
      </trkpt>
      <trkpt lat="43.28089" lon="5.96726">
        <ele>283.04296875</ele>
        <time>2018-11-18T08:05:23Z</time>
      </trkpt>
      <trkpt lat="43.28087" lon="5.96725">
        <ele>283.03125</ele>
        <time>2018-11-18T08:05:24Z</time>
      </trkpt>
      <trkpt lat="43.28086" lon="5.96723">
        <ele>283.0234375</ele>
        <time>2018-11-18T08:05:25Z</time>
      </trkpt>
      <trkpt lat="43.28085" lon="5.96721">
        <ele>283.01171875</ele>
        <time>2018-11-18T08:05:26Z</time>
      </trkpt>
      <trkpt lat="43.28084" lon="5.96714">
        <ele>283.390625</ele>
        <time>2018-11-18T08:05:29Z</time>
      </trkpt>
      <trkpt lat="43.28076" lon="5.96673">
        <ele>284.31640625</ele>
        <time>2018-11-18T08:05:46Z</time>
      </trkpt>
      <trkpt lat="43.28058" lon="5.9662">
        <ele>282.1875</ele>
        <time>2018-11-18T08:06:03Z</time>
      </trkpt>
      <trkpt lat="43.28041" lon="5.96569">
        <ele>283.859375</ele>
        <time>2018-11-18T08:06:18Z</time>
      </trkpt>
      <trkpt lat="43.28035" lon="5.96501">
        <ele>286.01953125</ele>
        <time>2018-11-18T08:06:33Z</time>
      </trkpt>
      <trkpt lat="43.28027" lon="5.96437">
        <ele>291.74609375</ele>
        <time>2018-11-18T08:06:48Z</time>
      </trkpt>
      <trkpt lat="43.28011" lon="5.96375">
        <ele>296.7578125</ele>
        <time>2018-11-18T08:07:05Z</time>
      </trkpt>
      <trkpt lat="43.27995" lon="5.96315">
        <ele>297.3203125</ele>
        <time>2018-11-18T08:07:19Z</time>
      </trkpt>
      <trkpt lat="43.27979" lon="5.96261">
        <ele>296.4375</ele>
        <time>2018-11-18T08:07:30Z</time>
      </trkpt>
      <trkpt lat="43.27974" lon="5.96245">
        <ele>295.38671875</ele>
        <time>2018-11-18T08:07:33Z</time>
      </trkpt>
      <trkpt lat="43.27972" lon="5.9624">
        <ele>296.00390625</ele>
        <time>2018-11-18T08:07:34Z</time>
      </trkpt>
      <trkpt lat="43.27952" lon="5.96159">
        <ele>299.9609375</ele>
        <time>2018-11-18T08:07:50Z</time>
      </trkpt>
      <trkpt lat="43.27938" lon="5.96071">
        <ele>301.62890625</ele>
        <time>2018-11-18T08:08:05Z</time>
      </trkpt>
      <trkpt lat="43.27948" lon="5.95996">
        <ele>307.81640625</ele>
        <time>2018-11-18T08:08:20Z</time>
      </trkpt>
      <trkpt lat="43.27942" lon="5.95928">
        <ele>306.58984375</ele>
        <time>2018-11-18T08:08:34Z</time>
      </trkpt>
      <trkpt lat="43.27928" lon="5.9589">
        <ele>301.234375</ele>
        <time>2018-11-18T08:08:42Z</time>
      </trkpt>
      <trkpt lat="43.27916" lon="5.95866">
        <ele>299.1953125</ele>
        <time>2018-11-18T08:08:47Z</time>
      </trkpt>
      <trkpt lat="43.27913" lon="5.9586">
        <ele>299.91796875</ele>
        <time>2018-11-18T08:08:48Z</time>
      </trkpt>
      <trkpt lat="43.27912" lon="5.95854">
        <ele>300.765625</ele>
        <time>2018-11-18T08:08:49Z</time>
      </trkpt>
      <trkpt lat="43.27911" lon="5.95847">
        <ele>301.4609375</ele>
        <time>2018-11-18T08:08:50Z</time>
      </trkpt>
      <trkpt lat="43.27911" lon="5.95841">
        <ele>302.05078125</ele>
        <time>2018-11-18T08:08:51Z</time>
      </trkpt>
      <trkpt lat="43.27911" lon="5.95835">
        <ele>302.62109375</ele>
        <time>2018-11-18T08:08:52Z</time>
      </trkpt>
      <trkpt lat="43.27912" lon="5.95829">
        <ele>303.17578125</ele>
        <time>2018-11-18T08:08:53Z</time>
      </trkpt>
      <trkpt lat="43.27913" lon="5.95824">
        <ele>303.6953125</ele>
        <time>2018-11-18T08:08:54Z</time>
      </trkpt>
      <trkpt lat="43.27927" lon="5.95764">
        <ele>310.21875</ele>
        <time>2018-11-18T08:09:06Z</time>
      </trkpt>
      <trkpt lat="43.27936" lon="5.95708">
        <ele>306.3671875</ele>
        <time>2018-11-18T08:09:17Z</time>
      </trkpt>
      <trkpt lat="43.2795" lon="5.95622">
        <ele>305.3515625</ele>
        <time>2018-11-18T08:09:33Z</time>
      </trkpt>
      <trkpt lat="43.2795" lon="5.95574">
        <ele>307.8984375</ele>
        <time>2018-11-18T08:09:42Z</time>
      </trkpt>
      <trkpt lat="43.27952" lon="5.95508">
        <ele>312.390625</ele>
        <time>2018-11-18T08:09:55Z</time>
      </trkpt>
      <trkpt lat="43.27965" lon="5.95443">
        <ele>313.01953125</ele>
        <time>2018-11-18T08:10:10Z</time>
      </trkpt>
      <trkpt lat="43.27965" lon="5.9538">
        <ele>312.953125</ele>
        <time>2018-11-18T08:10:23Z</time>
      </trkpt>
      <trkpt lat="43.27944" lon="5.95313">
        <ele>315.078125</ele>
        <time>2018-11-18T08:10:38Z</time>
      </trkpt>
      <trkpt lat="43.27943" lon="5.95261">
        <ele>315.6484375</ele>
        <time>2018-11-18T08:10:52Z</time>
      </trkpt>
      <trkpt lat="43.27944" lon="5.95224">
        <ele>317.76953125</ele>
        <time>2018-11-18T08:11:02Z</time>
      </trkpt>
      <trkpt lat="43.27933" lon="5.95165">
        <ele>320.00390625</ele>
        <time>2018-11-18T08:11:16Z</time>
      </trkpt>
      <trkpt lat="43.27912" lon="5.9511">
        <ele>319.7578125</ele>
        <time>2018-11-18T08:11:30Z</time>
      </trkpt>
      <trkpt lat="43.27903" lon="5.95045">
        <ele>320.14453125</ele>
        <time>2018-11-18T08:11:45Z</time>
      </trkpt>
      <trkpt lat="43.27894" lon="5.94952">
        <ele>321.21875</ele>
        <time>2018-11-18T08:12:07Z</time>
      </trkpt>
      <trkpt lat="43.27896" lon="5.94949">
        <ele>321.31640625</ele>
        <time>2018-11-18T08:12:08Z</time>
      </trkpt>
      <trkpt lat="43.27898" lon="5.94946">
        <ele>321.5078125</ele>
        <time>2018-11-18T08:12:09Z</time>
      </trkpt>
      <trkpt lat="43.27902" lon="5.94946">
        <ele>321.76171875</ele>
        <time>2018-11-18T08:12:10Z</time>
      </trkpt>
      <trkpt lat="43.27906" lon="5.94948">
        <ele>322</ele>
        <time>2018-11-18T08:12:11Z</time>
      </trkpt>
      <trkpt lat="43.2791" lon="5.9495">
        <ele>322.1796875</ele>
        <time>2018-11-18T08:12:12Z</time>
      </trkpt>
      <trkpt lat="43.27913" lon="5.94952">
        <ele>322.33203125</ele>
        <time>2018-11-18T08:12:13Z</time>
      </trkpt>
      <trkpt lat="43.27915" lon="5.94953">
        <ele>322.4375</ele>
        <time>2018-11-18T08:12:14Z</time>
      </trkpt>
      <trkpt lat="43.27917" lon="5.94955">
        <ele>322.50390625</ele>
        <time>2018-11-18T08:12:15Z</time>
      </trkpt>
      <trkpt lat="43.27919" lon="5.94956">
        <ele>322.70703125</ele>
        <time>2018-11-18T08:12:16Z</time>
      </trkpt>
      <trkpt lat="43.27921" lon="5.94958">
        <ele>323.07421875</ele>
        <time>2018-11-18T08:12:17Z</time>
      </trkpt>
      <trkpt lat="43.27923" lon="5.94959">
        <ele>323.37109375</ele>
        <time>2018-11-18T08:12:18Z</time>
      </trkpt>
      <trkpt lat="43.27925" lon="5.9496">
        <ele>323.70703125</ele>
        <time>2018-11-18T08:12:19Z</time>
      </trkpt>
      <trkpt lat="43.27926" lon="5.94962">
        <ele>324.0234375</ele>
        <time>2018-11-18T08:12:20Z</time>
      </trkpt>
      <trkpt lat="43.27928" lon="5.94962">
        <ele>324.3359375</ele>
        <time>2018-11-18T08:12:21Z</time>
      </trkpt>
      <trkpt lat="43.27929" lon="5.94963">
        <ele>324.59375</ele>
        <time>2018-11-18T08:12:22Z</time>
      </trkpt>
      <trkpt lat="43.27931" lon="5.94963">
        <ele>324.8828125</ele>
        <time>2018-11-18T08:12:23Z</time>
      </trkpt>
      <trkpt lat="43.27932" lon="5.94963">
        <ele>325.1875</ele>
        <time>2018-11-18T08:12:24Z</time>
      </trkpt>
      <trkpt lat="43.27934" lon="5.94963">
        <ele>325.51953125</ele>
        <time>2018-11-18T08:12:25Z</time>
      </trkpt>
      <trkpt lat="43.27948" lon="5.94958">
        <ele>328.9609375</ele>
        <time>2018-11-18T08:12:37Z</time>
      </trkpt>
      <trkpt lat="43.27951" lon="5.94943">
        <ele>330.1484375</ele>
        <time>2018-11-18T08:12:46Z</time>
      </trkpt>
      <trkpt lat="43.27951" lon="5.94935">
        <ele>330.4140625</ele>
        <time>2018-11-18T08:12:50Z</time>
      </trkpt>
      <trkpt lat="43.27951" lon="5.94932">
        <ele>330.68359375</ele>
        <time>2018-11-18T08:12:52Z</time>
      </trkpt>
      <trkpt lat="43.27952" lon="5.94927">
        <ele>331.01171875</ele>
        <time>2018-11-18T08:12:54Z</time>
      </trkpt>
      <trkpt lat="43.27953" lon="5.94926">
        <ele>331.3203125</ele>
        <time>2018-11-18T08:12:55Z</time>
      </trkpt>
      <trkpt lat="43.27953" lon="5.94924">
        <ele>331.5703125</ele>
        <time>2018-11-18T08:12:56Z</time>
      </trkpt>
      <trkpt lat="43.27954" lon="5.94922">
        <ele>331.765625</ele>
        <time>2018-11-18T08:12:57Z</time>
      </trkpt>
      <trkpt lat="43.27954" lon="5.9492">
        <ele>331.98828125</ele>
        <time>2018-11-18T08:12:58Z</time>
      </trkpt>
      <trkpt lat="43.27955" lon="5.94918">
        <ele>332.22265625</ele>
        <time>2018-11-18T08:12:59Z</time>
      </trkpt>
      <trkpt lat="43.27955" lon="5.94916">
        <ele>332.3984375</ele>
        <time>2018-11-18T08:13:00Z</time>
      </trkpt>
      <trkpt lat="43.27956" lon="5.94913">
        <ele>332.8046875</ele>
        <time>2018-11-18T08:13:14Z</time>
      </trkpt>
      <trkpt lat="43.27959" lon="5.949">
        <ele>333.80859375</ele>
        <time>2018-11-18T08:13:23Z</time>
      </trkpt>
      <trkpt lat="43.27959" lon="5.94898">
        <ele>333.984375</ele>
        <time>2018-11-18T08:13:24Z</time>
      </trkpt>
      <trkpt lat="43.2796" lon="5.94896">
        <ele>334.1796875</ele>
        <time>2018-11-18T08:13:25Z</time>
      </trkpt>
      <trkpt lat="43.2796" lon="5.94895">
        <ele>334.359375</ele>
        <time>2018-11-18T08:13:26Z</time>
      </trkpt>
      <trkpt lat="43.27961" lon="5.94893">
        <ele>334.56640625</ele>
        <time>2018-11-18T08:13:27Z</time>
      </trkpt>
      <trkpt lat="43.27961" lon="5.94892">
        <ele>334.67578125</ele>
        <time>2018-11-18T08:13:28Z</time>
      </trkpt>
      <trkpt lat="43.27961" lon="5.9489">
        <ele>334.74609375</ele>
        <time>2018-11-18T08:13:29Z</time>
      </trkpt>
      <trkpt lat="43.27962" lon="5.94888">
        <ele>334.96875</ele>
        <time>2018-11-18T08:13:30Z</time>
      </trkpt>
      <trkpt lat="43.27962" lon="5.94886">
        <ele>335.21875</ele>
        <time>2018-11-18T08:13:31Z</time>
      </trkpt>
      <trkpt lat="43.27962" lon="5.94883">
        <ele>335.328125</ele>
        <time>2018-11-18T08:13:32Z</time>
      </trkpt>
      <trkpt lat="43.27963" lon="5.94881">
        <ele>335.51953125</ele>
        <time>2018-11-18T08:13:33Z</time>
      </trkpt>
      <trkpt lat="43.27963" lon="5.94879">
        <ele>335.7734375</ele>
        <time>2018-11-18T08:13:34Z</time>
      </trkpt>
      <trkpt lat="43.27964" lon="5.94878">
        <ele>336.015625</ele>
        <time>2018-11-18T08:13:35Z</time>
      </trkpt>
      <trkpt lat="43.27965" lon="5.94876">
        <ele>336.3046875</ele>
        <time>2018-11-18T08:13:36Z</time>
      </trkpt>
      <trkpt lat="43.27968" lon="5.94866">
        <ele>337.84375</ele>
        <time>2018-11-18T08:13:42Z</time>
      </trkpt>
      <trkpt lat="43.27969" lon="5.94864">
        <ele>338.03125</ele>
        <time>2018-11-18T08:13:43Z</time>
      </trkpt>
      <trkpt lat="43.2798" lon="5.94847">
        <ele>343.43359375</ele>
        <time>2018-11-18T08:13:56Z</time>
      </trkpt>
      <trkpt lat="43.27995" lon="5.94858">
        <ele>351.5</ele>
        <time>2018-11-18T08:14:09Z</time>
      </trkpt>
      <trkpt lat="43.27996" lon="5.9486">
        <ele>351.66796875</ele>
        <time>2018-11-18T08:14:10Z</time>
      </trkpt>
      <trkpt lat="43.27996" lon="5.94862">
        <ele>351.7109375</ele>
        <time>2018-11-18T08:14:11Z</time>
      </trkpt>
      <trkpt lat="43.28001" lon="5.94893">
        <ele>352.33984375</ele>
        <time>2018-11-18T08:14:27Z</time>
      </trkpt>
      <trkpt lat="43.28006" lon="5.94928">
        <ele>353.77734375</ele>
        <time>2018-11-18T08:14:46Z</time>
      </trkpt>
      <trkpt lat="43.28013" lon="5.94959">
        <ele>356.86328125</ele>
        <time>2018-11-18T08:15:01Z</time>
      </trkpt>
      <trkpt lat="43.28026" lon="5.95003">
        <ele>361.62109375</ele>
        <time>2018-11-18T08:15:18Z</time>
      </trkpt>
      <trkpt lat="43.28033" lon="5.9504">
        <ele>362.58984375</ele>
        <time>2018-11-18T08:15:36Z</time>
      </trkpt>
      <trkpt lat="43.28039" lon="5.95069">
        <ele>363.125</ele>
        <time>2018-11-18T08:15:50Z</time>
      </trkpt>
      <trkpt lat="43.28047" lon="5.95091">
        <ele>365.23828125</ele>
        <time>2018-11-18T08:16:05Z</time>
      </trkpt>
      <trkpt lat="43.28044" lon="5.95093">
        <ele>363.421875</ele>
        <time>2018-11-18T08:16:31Z</time>
      </trkpt>
      <trkpt lat="43.28048" lon="5.95112">
        <ele>363.9140625</ele>
        <time>2018-11-18T08:16:45Z</time>
      </trkpt>
      <trkpt lat="43.28048" lon="5.95143">
        <ele>361.57421875</ele>
        <time>2018-11-18T08:17:00Z</time>
      </trkpt>
      <trkpt lat="43.28053" lon="5.95172">
        <ele>362.4453125</ele>
        <time>2018-11-18T08:17:15Z</time>
      </trkpt>
      <trkpt lat="43.2807" lon="5.95195">
        <ele>368.1796875</ele>
        <time>2018-11-18T08:17:31Z</time>
      </trkpt>
      <trkpt lat="43.28081" lon="5.95223">
        <ele>371.22265625</ele>
        <time>2018-11-18T08:17:48Z</time>
      </trkpt>
      <trkpt lat="43.28082" lon="5.95229">
        <ele>371.58984375</ele>
        <time>2018-11-18T08:17:51Z</time>
      </trkpt>
      <trkpt lat="43.28083" lon="5.95231">
        <ele>371.7734375</ele>
        <time>2018-11-18T08:17:52Z</time>
      </trkpt>
      <trkpt lat="43.28084" lon="5.95233">
        <ele>371.90234375</ele>
        <time>2018-11-18T08:17:53Z</time>
      </trkpt>
      <trkpt lat="43.28084" lon="5.95235">
        <ele>371.8359375</ele>
        <time>2018-11-18T08:17:54Z</time>
      </trkpt>
      <trkpt lat="43.28084" lon="5.95237">
        <ele>371.72265625</ele>
        <time>2018-11-18T08:17:55Z</time>
      </trkpt>
      <trkpt lat="43.28083" lon="5.95239">
        <ele>371.51171875</ele>
        <time>2018-11-18T08:17:56Z</time>
      </trkpt>
      <trkpt lat="43.28083" lon="5.95241">
        <ele>371.375</ele>
        <time>2018-11-18T08:17:57Z</time>
      </trkpt>
      <trkpt lat="43.28083" lon="5.95243">
        <ele>371.328125</ele>
        <time>2018-11-18T08:17:58Z</time>
      </trkpt>
      <trkpt lat="43.28083" lon="5.95245">
        <ele>371.23828125</ele>
        <time>2018-11-18T08:17:59Z</time>
      </trkpt>
      <trkpt lat="43.28083" lon="5.95261">
        <ele>370.59375</ele>
        <time>2018-11-18T08:18:15Z</time>
      </trkpt>
      <trkpt lat="43.28082" lon="5.95263">
        <ele>370.2265625</ele>
        <time>2018-11-18T08:18:28Z</time>
      </trkpt>
      <trkpt lat="43.28082" lon="5.95265">
        <ele>369.94140625</ele>
        <time>2018-11-18T08:18:29Z</time>
      </trkpt>
      <trkpt lat="43.28082" lon="5.95267">
        <ele>369.828125</ele>
        <time>2018-11-18T08:18:30Z</time>
      </trkpt>
      <trkpt lat="43.28082" lon="5.95269">
        <ele>369.77734375</ele>
        <time>2018-11-18T08:18:31Z</time>
      </trkpt>
      <trkpt lat="43.28082" lon="5.95271">
        <ele>369.82421875</ele>
        <time>2018-11-18T08:18:32Z</time>
      </trkpt>
      <trkpt lat="43.28083" lon="5.95274">
        <ele>369.953125</ele>
        <time>2018-11-18T08:18:33Z</time>
      </trkpt>
      <trkpt lat="43.28087" lon="5.95287">
        <ele>371.234375</ele>
        <time>2018-11-18T08:18:40Z</time>
      </trkpt>
      <trkpt lat="43.28088" lon="5.95289">
        <ele>371.578125</ele>
        <time>2018-11-18T08:18:41Z</time>
      </trkpt>
      <trkpt lat="43.28089" lon="5.9529">
        <ele>371.82421875</ele>
        <time>2018-11-18T08:18:42Z</time>
      </trkpt>
      <trkpt lat="43.2809" lon="5.95292">
        <ele>372.0234375</ele>
        <time>2018-11-18T08:18:43Z</time>
      </trkpt>
      <trkpt lat="43.2809" lon="5.95294">
        <ele>372.25</ele>
        <time>2018-11-18T08:18:44Z</time>
      </trkpt>
      <trkpt lat="43.28091" lon="5.95296">
        <ele>372.45703125</ele>
        <time>2018-11-18T08:18:45Z</time>
      </trkpt>
      <trkpt lat="43.28096" lon="5.95309">
        <ele>374.05078125</ele>
        <time>2018-11-18T08:18:53Z</time>
      </trkpt>
      <trkpt lat="43.28097" lon="5.95311">
        <ele>374.25</ele>
        <time>2018-11-18T08:18:54Z</time>
      </trkpt>
      <trkpt lat="43.28097" lon="5.95313">
        <ele>374.453125</ele>
        <time>2018-11-18T08:18:55Z</time>
      </trkpt>
      <trkpt lat="43.28098" lon="5.95315">
        <ele>374.6796875</ele>
        <time>2018-11-18T08:18:56Z</time>
      </trkpt>
      <trkpt lat="43.28098" lon="5.95316">
        <ele>374.87109375</ele>
        <time>2018-11-18T08:18:57Z</time>
      </trkpt>
      <trkpt lat="43.28098" lon="5.95318">
        <ele>374.98046875</ele>
        <time>2018-11-18T08:18:58Z</time>
      </trkpt>
      <trkpt lat="43.28099" lon="5.9532">
        <ele>375.125</ele>
        <time>2018-11-18T08:18:59Z</time>
      </trkpt>
      <trkpt lat="43.28102" lon="5.9534">
        <ele>376.65234375</ele>
        <time>2018-11-18T08:19:09Z</time>
      </trkpt>
      <trkpt lat="43.28102" lon="5.95342">
        <ele>376.50390625</ele>
        <time>2018-11-18T08:19:10Z</time>
      </trkpt>
      <trkpt lat="43.281" lon="5.95354">
        <ele>376.30859375</ele>
        <time>2018-11-18T08:19:16Z</time>
      </trkpt>
      <trkpt lat="43.281" lon="5.95356">
        <ele>376.25390625</ele>
        <time>2018-11-18T08:19:17Z</time>
      </trkpt>
      <trkpt lat="43.281" lon="5.95358">
        <ele>376.16015625</ele>
        <time>2018-11-18T08:19:18Z</time>
      </trkpt>
      <trkpt lat="43.28099" lon="5.95359">
        <ele>376.01171875</ele>
        <time>2018-11-18T08:19:19Z</time>
      </trkpt>
      <trkpt lat="43.28098" lon="5.95361">
        <ele>375.890625</ele>
        <time>2018-11-18T08:19:20Z</time>
      </trkpt>
      <trkpt lat="43.28098" lon="5.95363">
        <ele>375.8125</ele>
        <time>2018-11-18T08:19:21Z</time>
      </trkpt>
      <trkpt lat="43.28098" lon="5.95365">
        <ele>375.8203125</ele>
        <time>2018-11-18T08:19:22Z</time>
      </trkpt>
      <trkpt lat="43.28098" lon="5.95367">
        <ele>375.9453125</ele>
        <time>2018-11-18T08:19:23Z</time>
      </trkpt>
      <trkpt lat="43.28098" lon="5.95369">
        <ele>376.10546875</ele>
        <time>2018-11-18T08:19:24Z</time>
      </trkpt>
      <trkpt lat="43.28099" lon="5.9537">
        <ele>376.33203125</ele>
        <time>2018-11-18T08:19:25Z</time>
      </trkpt>
      <trkpt lat="43.28105" lon="5.95376">
        <ele>378.4453125</ele>
        <time>2018-11-18T08:19:37Z</time>
      </trkpt>
      <trkpt lat="43.28104" lon="5.95378">
        <ele>378.16796875</ele>
        <time>2018-11-18T08:20:06Z</time>
      </trkpt>
      <trkpt lat="43.28103" lon="5.9538">
        <ele>377.82421875</ele>
        <time>2018-11-18T08:20:44Z</time>
      </trkpt>
      <trkpt lat="43.28102" lon="5.95376">
        <ele>377.546875</ele>
        <time>2018-11-18T08:21:11Z</time>
      </trkpt>
      <trkpt lat="43.28105" lon="5.95377">
        <ele>378.2578125</ele>
        <time>2018-11-18T08:21:46Z</time>
      </trkpt>
      <trkpt lat="43.28106" lon="5.95376">
        <ele>378.66015625</ele>
        <time>2018-11-18T08:22:26Z</time>
      </trkpt>
      <trkpt lat="43.28104" lon="5.9538">
        <ele>378.046875</ele>
        <time>2018-11-18T08:22:55Z</time>
      </trkpt>
      <trkpt lat="43.28101" lon="5.95377">
        <ele>377.20703125</ele>
        <time>2018-11-18T08:23:24Z</time>
      </trkpt>
      <trkpt lat="43.28102" lon="5.9538">
        <ele>377.578125</ele>
        <time>2018-11-18T08:23:44Z</time>
      </trkpt>
      <trkpt lat="43.28102" lon="5.95382">
        <ele>377.71875</ele>
        <time>2018-11-18T08:23:45Z</time>
      </trkpt>
      <trkpt lat="43.28111" lon="5.95409">
        <ele>381.1171875</ele>
        <time>2018-11-18T08:23:59Z</time>
      </trkpt>
      <trkpt lat="43.28106" lon="5.9545">
        <ele>381.12890625</ele>
        <time>2018-11-18T08:24:17Z</time>
      </trkpt>
      <trkpt lat="43.2811" lon="5.95481">
        <ele>383.19140625</ele>
        <time>2018-11-18T08:24:31Z</time>
      </trkpt>
      <trkpt lat="43.28116" lon="5.95515">
        <ele>384.8203125</ele>
        <time>2018-11-18T08:24:47Z</time>
      </trkpt>
      <trkpt lat="43.28119" lon="5.95529">
        <ele>385.73828125</ele>
        <time>2018-11-18T08:24:54Z</time>
      </trkpt>
      <trkpt lat="43.2812" lon="5.95531">
        <ele>385.984375</ele>
        <time>2018-11-18T08:24:55Z</time>
      </trkpt>
      <trkpt lat="43.28129" lon="5.9556">
        <ele>388.68359375</ele>
        <time>2018-11-18T08:25:10Z</time>
      </trkpt>
      <trkpt lat="43.28137" lon="5.95592">
        <ele>391.62109375</ele>
        <time>2018-11-18T08:25:26Z</time>
      </trkpt>
      <trkpt lat="43.28139" lon="5.95623">
        <ele>393.46875</ele>
        <time>2018-11-18T08:25:41Z</time>
      </trkpt>
      <trkpt lat="43.28138" lon="5.95655">
        <ele>395.62890625</ele>
        <time>2018-11-18T08:25:57Z</time>
      </trkpt>
      <trkpt lat="43.28134" lon="5.95669">
        <ele>395.5390625</ele>
        <time>2018-11-18T08:26:05Z</time>
      </trkpt>
      <trkpt lat="43.28133" lon="5.95671">
        <ele>395.61328125</ele>
        <time>2018-11-18T08:26:06Z</time>
      </trkpt>
      <trkpt lat="43.28133" lon="5.95673">
        <ele>395.73828125</ele>
        <time>2018-11-18T08:26:07Z</time>
      </trkpt>
      <trkpt lat="43.28133" lon="5.95676">
        <ele>395.953125</ele>
        <time>2018-11-18T08:26:08Z</time>
      </trkpt>
      <trkpt lat="43.28134" lon="5.95679">
        <ele>396.19140625</ele>
        <time>2018-11-18T08:26:09Z</time>
      </trkpt>
      <trkpt lat="43.28134" lon="5.95681">
        <ele>396.484375</ele>
        <time>2018-11-18T08:26:10Z</time>
      </trkpt>
      <trkpt lat="43.28136" lon="5.95686">
        <ele>397.19140625</ele>
        <time>2018-11-18T08:26:12Z</time>
      </trkpt>
      <trkpt lat="43.28137" lon="5.95687">
        <ele>397.578125</ele>
        <time>2018-11-18T08:26:13Z</time>
      </trkpt>
      <trkpt lat="43.2814" lon="5.95688">
        <ele>398.3984375</ele>
        <time>2018-11-18T08:26:15Z</time>
      </trkpt>
      <trkpt lat="43.28142" lon="5.95687">
        <ele>398.83984375</ele>
        <time>2018-11-18T08:26:17Z</time>
      </trkpt>
      <trkpt lat="43.28149" lon="5.95667">
        <ele>399.62890625</ele>
        <time>2018-11-18T08:26:26Z</time>
      </trkpt>
      <trkpt lat="43.28162" lon="5.95624">
        <ele>399.51953125</ele>
        <time>2018-11-18T08:26:41Z</time>
      </trkpt>
      <trkpt lat="43.28173" lon="5.95581">
        <ele>400.34375</ele>
        <time>2018-11-18T08:26:56Z</time>
      </trkpt>
      <trkpt lat="43.28179" lon="5.95543">
        <ele>400.69921875</ele>
        <time>2018-11-18T08:27:10Z</time>
      </trkpt>
      <trkpt lat="43.28187" lon="5.95497">
        <ele>401.91796875</ele>
        <time>2018-11-18T08:27:26Z</time>
      </trkpt>
      <trkpt lat="43.282" lon="5.95452">
        <ele>404.4140625</ele>
        <time>2018-11-18T08:27:41Z</time>
      </trkpt>
      <trkpt lat="43.28204" lon="5.95402">
        <ele>405.62890625</ele>
        <time>2018-11-18T08:27:53Z</time>
      </trkpt>
      <trkpt lat="43.28204" lon="5.95349">
        <ele>405.453125</ele>
        <time>2018-11-18T08:28:05Z</time>
      </trkpt>
      <trkpt lat="43.28201" lon="5.95295">
        <ele>405.69140625</ele>
        <time>2018-11-18T08:28:19Z</time>
      </trkpt>
      <trkpt lat="43.28201" lon="5.95292">
        <ele>405.6171875</ele>
        <time>2018-11-18T08:28:20Z</time>
      </trkpt>
      <trkpt lat="43.28196" lon="5.9526">
        <ele>405.6171875</ele>
        <time>2018-11-18T08:28:33Z</time>
      </trkpt>
      <trkpt lat="43.28195" lon="5.95225">
        <ele>407.4140625</ele>
        <time>2018-11-18T08:28:50Z</time>
      </trkpt>
      <trkpt lat="43.28199" lon="5.95197">
        <ele>409.33984375</ele>
        <time>2018-11-18T08:29:05Z</time>
      </trkpt>
      <trkpt lat="43.28202" lon="5.9517">
        <ele>409.859375</ele>
        <time>2018-11-18T08:29:19Z</time>
      </trkpt>
      <trkpt lat="43.28203" lon="5.95164">
        <ele>410</ele>
        <time>2018-11-18T08:29:22Z</time>
      </trkpt>
      <trkpt lat="43.28204" lon="5.95162">
        <ele>410.140625</ele>
        <time>2018-11-18T08:29:23Z</time>
      </trkpt>
      <trkpt lat="43.28222" lon="5.95135">
        <ele>412.7421875</ele>
        <time>2018-11-18T08:29:41Z</time>
      </trkpt>
      <trkpt lat="43.28238" lon="5.95117">
        <ele>413.65234375</ele>
        <time>2018-11-18T08:29:55Z</time>
      </trkpt>
      <trkpt lat="43.2824" lon="5.95116">
        <ele>413.68359375</ele>
        <time>2018-11-18T08:29:56Z</time>
      </trkpt>
      <trkpt lat="43.28241" lon="5.95114">
        <ele>413.70703125</ele>
        <time>2018-11-18T08:29:57Z</time>
      </trkpt>
      <trkpt lat="43.28263" lon="5.95099">
        <ele>413.19921875</ele>
        <time>2018-11-18T08:30:12Z</time>
      </trkpt>
      <trkpt lat="43.28273" lon="5.95097">
        <ele>412.76953125</ele>
        <time>2018-11-18T08:30:19Z</time>
      </trkpt>
      <trkpt lat="43.28276" lon="5.95097">
        <ele>412.68359375</ele>
        <time>2018-11-18T08:30:20Z</time>
      </trkpt>
      <trkpt lat="43.28279" lon="5.95098">
        <ele>412.62109375</ele>
        <time>2018-11-18T08:30:21Z</time>
      </trkpt>
      <trkpt lat="43.28281" lon="5.95101">
        <ele>412.5546875</ele>
        <time>2018-11-18T08:30:22Z</time>
      </trkpt>
      <trkpt lat="43.28283" lon="5.95103">
        <ele>412.48828125</ele>
        <time>2018-11-18T08:30:23Z</time>
      </trkpt>
      <trkpt lat="43.28285" lon="5.95105">
        <ele>412.4140625</ele>
        <time>2018-11-18T08:30:24Z</time>
      </trkpt>
      <trkpt lat="43.28287" lon="5.95106">
        <ele>412.34765625</ele>
        <time>2018-11-18T08:30:25Z</time>
      </trkpt>
      <trkpt lat="43.2829" lon="5.95107">
        <ele>412.125</ele>
        <time>2018-11-18T08:30:39Z</time>
      </trkpt>
      <trkpt lat="43.28292" lon="5.95107">
        <ele>412.01171875</ele>
        <time>2018-11-18T08:30:42Z</time>
      </trkpt>
      <trkpt lat="43.28293" lon="5.95107">
        <ele>411.921875</ele>
        <time>2018-11-18T08:30:43Z</time>
      </trkpt>
      <trkpt lat="43.28295" lon="5.95107">
        <ele>411.8203125</ele>
        <time>2018-11-18T08:30:44Z</time>
      </trkpt>
      <trkpt lat="43.28297" lon="5.95108">
        <ele>411.6953125</ele>
        <time>2018-11-18T08:30:45Z</time>
      </trkpt>
      <trkpt lat="43.28299" lon="5.95109">
        <ele>411.5703125</ele>
        <time>2018-11-18T08:30:46Z</time>
      </trkpt>
      <trkpt lat="43.28301" lon="5.95109">
        <ele>411.4375</ele>
        <time>2018-11-18T08:30:47Z</time>
      </trkpt>
      <trkpt lat="43.28303" lon="5.9511">
        <ele>411.26953125</ele>
        <time>2018-11-18T08:30:48Z</time>
      </trkpt>
      <trkpt lat="43.28306" lon="5.9511">
        <ele>411.1640625</ele>
        <time>2018-11-18T08:30:49Z</time>
      </trkpt>
      <trkpt lat="43.28308" lon="5.95111">
        <ele>411.125</ele>
        <time>2018-11-18T08:30:50Z</time>
      </trkpt>
      <trkpt lat="43.2831" lon="5.95112">
        <ele>411.22265625</ele>
        <time>2018-11-18T08:30:51Z</time>
      </trkpt>
      <trkpt lat="43.28313" lon="5.95113">
        <ele>411.35546875</ele>
        <time>2018-11-18T08:30:52Z</time>
      </trkpt>
      <trkpt lat="43.28317" lon="5.95115">
        <ele>411.52734375</ele>
        <time>2018-11-18T08:30:53Z</time>
      </trkpt>
      <trkpt lat="43.2832" lon="5.95117">
        <ele>411.765625</ele>
        <time>2018-11-18T08:30:54Z</time>
      </trkpt>
      <trkpt lat="43.28351" lon="5.95145">
        <ele>416.265625</ele>
        <time>2018-11-18T08:31:06Z</time>
      </trkpt>
      <trkpt lat="43.28357" lon="5.95152">
        <ele>417.7734375</ele>
        <time>2018-11-18T08:31:09Z</time>
      </trkpt>
      <trkpt lat="43.2836" lon="5.95154">
        <ele>418.14453125</ele>
        <time>2018-11-18T08:31:10Z</time>
      </trkpt>
      <trkpt lat="43.28363" lon="5.95155">
        <ele>418.5390625</ele>
        <time>2018-11-18T08:31:11Z</time>
      </trkpt>
      <trkpt lat="43.28366" lon="5.95156">
        <ele>418.98046875</ele>
        <time>2018-11-18T08:31:12Z</time>
      </trkpt>
      <trkpt lat="43.28368" lon="5.95156">
        <ele>419.4140625</ele>
        <time>2018-11-18T08:31:13Z</time>
      </trkpt>
      <trkpt lat="43.28371" lon="5.95157">
        <ele>419.76953125</ele>
        <time>2018-11-18T08:31:14Z</time>
      </trkpt>
      <trkpt lat="43.28373" lon="5.95157">
        <ele>420.13671875</ele>
        <time>2018-11-18T08:31:15Z</time>
      </trkpt>
      <trkpt lat="43.28376" lon="5.95158">
        <ele>420.52734375</ele>
        <time>2018-11-18T08:31:16Z</time>
      </trkpt>
      <trkpt lat="43.284" lon="5.95158">
        <ele>422.98828125</ele>
        <time>2018-11-18T08:31:29Z</time>
      </trkpt>
      <trkpt lat="43.28411" lon="5.95134">
        <ele>421.22265625</ele>
        <time>2018-11-18T08:31:41Z</time>
      </trkpt>
      <trkpt lat="43.28421" lon="5.95118">
        <ele>420.77734375</ele>
        <time>2018-11-18T08:31:52Z</time>
      </trkpt>
      <trkpt lat="43.28422" lon="5.95119">
        <ele>420.9453125</ele>
        <time>2018-11-18T08:31:53Z</time>
      </trkpt>
      <trkpt lat="43.28423" lon="5.9512">
        <ele>421.11328125</ele>
        <time>2018-11-18T08:31:54Z</time>
      </trkpt>
      <trkpt lat="43.28424" lon="5.95125">
        <ele>421.515625</ele>
        <time>2018-11-18T08:31:56Z</time>
      </trkpt>
      <trkpt lat="43.28423" lon="5.95156">
        <ele>424.19921875</ele>
        <time>2018-11-18T08:32:10Z</time>
      </trkpt>
      <trkpt lat="43.28424" lon="5.95157">
        <ele>424.34375</ele>
        <time>2018-11-18T08:32:11Z</time>
      </trkpt>
      <trkpt lat="43.28424" lon="5.95158">
        <ele>424.48828125</ele>
        <time>2018-11-18T08:32:12Z</time>
      </trkpt>
      <trkpt lat="43.28428" lon="5.95168">
        <ele>425.6875</ele>
        <time>2018-11-18T08:32:19Z</time>
      </trkpt>
      <trkpt lat="43.28429" lon="5.95169">
        <ele>425.83203125</ele>
        <time>2018-11-18T08:32:35Z</time>
      </trkpt>
      <trkpt lat="43.28426" lon="5.95171">
        <ele>426.046875</ele>
        <time>2018-11-18T08:33:00Z</time>
      </trkpt>
      <trkpt lat="43.28423" lon="5.95167">
        <ele>425.453125</ele>
        <time>2018-11-18T08:33:06Z</time>
      </trkpt>
      <trkpt lat="43.28422" lon="5.95164">
        <ele>424.984375</ele>
        <time>2018-11-18T08:33:07Z</time>
      </trkpt>
      <trkpt lat="43.2842" lon="5.95159">
        <ele>424.453125</ele>
        <time>2018-11-18T08:33:08Z</time>
      </trkpt>
      <trkpt lat="43.2842" lon="5.95153">
        <ele>423.7890625</ele>
        <time>2018-11-18T08:33:09Z</time>
      </trkpt>
      <trkpt lat="43.2842" lon="5.95146">
        <ele>423.07421875</ele>
        <time>2018-11-18T08:33:10Z</time>
      </trkpt>
      <trkpt lat="43.28421" lon="5.95139">
        <ele>422.37890625</ele>
        <time>2018-11-18T08:33:11Z</time>
      </trkpt>
      <trkpt lat="43.28421" lon="5.95132">
        <ele>421.8515625</ele>
        <time>2018-11-18T08:33:12Z</time>
      </trkpt>
      <trkpt lat="43.28422" lon="5.95125">
        <ele>421.390625</ele>
        <time>2018-11-18T08:33:13Z</time>
      </trkpt>
      <trkpt lat="43.2843" lon="5.95097">
        <ele>420.33984375</ele>
        <time>2018-11-18T08:33:22Z</time>
      </trkpt>
      <trkpt lat="43.28441" lon="5.95091">
        <ele>420.9375</ele>
        <time>2018-11-18T08:33:26Z</time>
      </trkpt>
      <trkpt lat="43.28456" lon="5.95071">
        <ele>419.90625</ele>
        <time>2018-11-18T08:33:37Z</time>
      </trkpt>
      <trkpt lat="43.28457" lon="5.9507">
        <ele>419.78515625</ele>
        <time>2018-11-18T08:33:38Z</time>
      </trkpt>
      <trkpt lat="43.28461" lon="5.95069">
        <ele>419.4765625</ele>
        <time>2018-11-18T08:33:40Z</time>
      </trkpt>
      <trkpt lat="43.28462" lon="5.95068">
        <ele>419.3046875</ele>
        <time>2018-11-18T08:33:41Z</time>
      </trkpt>
      <trkpt lat="43.28464" lon="5.95066">
        <ele>419.12890625</ele>
        <time>2018-11-18T08:33:42Z</time>
      </trkpt>
      <trkpt lat="43.28466" lon="5.95065">
        <ele>418.96484375</ele>
        <time>2018-11-18T08:33:43Z</time>
      </trkpt>
      <trkpt lat="43.28467" lon="5.95065">
        <ele>418.83984375</ele>
        <time>2018-11-18T08:33:44Z</time>
      </trkpt>
      <trkpt lat="43.28473" lon="5.95065">
        <ele>418.44921875</ele>
        <time>2018-11-18T08:33:57Z</time>
      </trkpt>
      <trkpt lat="43.28474" lon="5.95065">
        <ele>418.3515625</ele>
        <time>2018-11-18T08:33:59Z</time>
      </trkpt>
      <trkpt lat="43.28503" lon="5.95065">
        <ele>416.359375</ele>
        <time>2018-11-18T08:34:08Z</time>
      </trkpt>
      <trkpt lat="43.28508" lon="5.95066">
        <ele>416.296875</ele>
        <time>2018-11-18T08:34:09Z</time>
      </trkpt>
      <trkpt lat="43.28514" lon="5.95067">
        <ele>416.23046875</ele>
        <time>2018-11-18T08:34:10Z</time>
      </trkpt>
      <trkpt lat="43.2852" lon="5.95067">
        <ele>416.11328125</ele>
        <time>2018-11-18T08:34:11Z</time>
      </trkpt>
      <trkpt lat="43.28527" lon="5.95066">
        <ele>415.91015625</ele>
        <time>2018-11-18T08:34:12Z</time>
      </trkpt>
      <trkpt lat="43.28533" lon="5.95064">
        <ele>415.65234375</ele>
        <time>2018-11-18T08:34:13Z</time>
      </trkpt>
      <trkpt lat="43.28546" lon="5.9506">
        <ele>414.94140625</ele>
        <time>2018-11-18T08:34:15Z</time>
      </trkpt>
      <trkpt lat="43.28551" lon="5.95058">
        <ele>414.5546875</ele>
        <time>2018-11-18T08:34:16Z</time>
      </trkpt>
      <trkpt lat="43.28556" lon="5.95055">
        <ele>414.12109375</ele>
        <time>2018-11-18T08:34:17Z</time>
      </trkpt>
      <trkpt lat="43.28561" lon="5.95052">
        <ele>413.9921875</ele>
        <time>2018-11-18T08:34:18Z</time>
      </trkpt>
      <trkpt lat="43.28565" lon="5.95049">
        <ele>413.953125</ele>
        <time>2018-11-18T08:34:19Z</time>
      </trkpt>
      <trkpt lat="43.28576" lon="5.95043">
        <ele>413.72265625</ele>
        <time>2018-11-18T08:34:27Z</time>
      </trkpt>
      <trkpt lat="43.28585" lon="5.95035">
        <ele>413.33984375</ele>
        <time>2018-11-18T08:34:44Z</time>
      </trkpt>
      <trkpt lat="43.2859" lon="5.95032">
        <ele>413.54296875</ele>
        <time>2018-11-18T08:34:56Z</time>
      </trkpt>
      <trkpt lat="43.28592" lon="5.95031">
        <ele>413.625</ele>
        <time>2018-11-18T08:34:57Z</time>
      </trkpt>
      <trkpt lat="43.28594" lon="5.95031">
        <ele>413.75</ele>
        <time>2018-11-18T08:34:58Z</time>
      </trkpt>
      <trkpt lat="43.28596" lon="5.95031">
        <ele>413.9140625</ele>
        <time>2018-11-18T08:34:59Z</time>
      </trkpt>
      <trkpt lat="43.28598" lon="5.95031">
        <ele>414.0546875</ele>
        <time>2018-11-18T08:35:00Z</time>
      </trkpt>
      <trkpt lat="43.286" lon="5.95029">
        <ele>414.171875</ele>
        <time>2018-11-18T08:35:01Z</time>
      </trkpt>
      <trkpt lat="43.28602" lon="5.95028">
        <ele>414.2890625</ele>
        <time>2018-11-18T08:35:02Z</time>
      </trkpt>
      <trkpt lat="43.2862" lon="5.95003">
        <ele>414.4296875</ele>
        <time>2018-11-18T08:35:12Z</time>
      </trkpt>
      <trkpt lat="43.2864" lon="5.94969">
        <ele>416</ele>
        <time>2018-11-18T08:35:22Z</time>
      </trkpt>
      <trkpt lat="43.28643" lon="5.94969">
        <ele>416.1796875</ele>
        <time>2018-11-18T08:35:23Z</time>
      </trkpt>
      <trkpt lat="43.28645" lon="5.94969">
        <ele>416.35546875</ele>
        <time>2018-11-18T08:35:24Z</time>
      </trkpt>
      <trkpt lat="43.28648" lon="5.9497">
        <ele>416.52734375</ele>
        <time>2018-11-18T08:35:25Z</time>
      </trkpt>
      <trkpt lat="43.28681" lon="5.94969">
        <ele>418.859375</ele>
        <time>2018-11-18T08:35:39Z</time>
      </trkpt>
      <trkpt lat="43.28698" lon="5.94955">
        <ele>419.3984375</ele>
        <time>2018-11-18T08:35:49Z</time>
      </trkpt>
      <trkpt lat="43.287" lon="5.94955">
        <ele>419.36328125</ele>
        <time>2018-11-18T08:35:50Z</time>
      </trkpt>
      <trkpt lat="43.28701" lon="5.94954">
        <ele>419.3203125</ele>
        <time>2018-11-18T08:35:51Z</time>
      </trkpt>
      <trkpt lat="43.28702" lon="5.94953">
        <ele>419.2734375</ele>
        <time>2018-11-18T08:35:52Z</time>
      </trkpt>
      <trkpt lat="43.28705" lon="5.94951">
        <ele>419.1953125</ele>
        <time>2018-11-18T08:35:54Z</time>
      </trkpt>
      <trkpt lat="43.28707" lon="5.9495">
        <ele>419.15625</ele>
        <time>2018-11-18T08:35:55Z</time>
      </trkpt>
      <trkpt lat="43.28709" lon="5.9495">
        <ele>419.12890625</ele>
        <time>2018-11-18T08:35:56Z</time>
      </trkpt>
      <trkpt lat="43.2871" lon="5.94949">
        <ele>419.1015625</ele>
        <time>2018-11-18T08:35:57Z</time>
      </trkpt>
      <trkpt lat="43.28712" lon="5.94945">
        <ele>419.03125</ele>
        <time>2018-11-18T08:36:06Z</time>
      </trkpt>
      <trkpt lat="43.28714" lon="5.94941">
        <ele>419</ele>
        <time>2018-11-18T08:36:18Z</time>
      </trkpt>
      <trkpt lat="43.28715" lon="5.94939">
        <ele>419</ele>
        <time>2018-11-18T08:36:20Z</time>
      </trkpt>
      <trkpt lat="43.28717" lon="5.94938">
        <ele>419</ele>
        <time>2018-11-18T08:36:21Z</time>
      </trkpt>
      <trkpt lat="43.28718" lon="5.94938">
        <ele>419</ele>
        <time>2018-11-18T08:36:22Z</time>
      </trkpt>
      <trkpt lat="43.2872" lon="5.94939">
        <ele>419</ele>
        <time>2018-11-18T08:36:23Z</time>
      </trkpt>
      <trkpt lat="43.28722" lon="5.9494">
        <ele>419</ele>
        <time>2018-11-18T08:36:24Z</time>
      </trkpt>
      <trkpt lat="43.28738" lon="5.94949">
        <ele>419.53515625</ele>
        <time>2018-11-18T08:36:32Z</time>
      </trkpt>
      <trkpt lat="43.2874" lon="5.94951">
        <ele>419.58203125</ele>
        <time>2018-11-18T08:36:33Z</time>
      </trkpt>
      <trkpt lat="43.28741" lon="5.94952">
        <ele>419.63671875</ele>
        <time>2018-11-18T08:36:34Z</time>
      </trkpt>
      <trkpt lat="43.28745" lon="5.94949">
        <ele>419.78515625</ele>
        <time>2018-11-18T08:36:39Z</time>
      </trkpt>
      <trkpt lat="43.28745" lon="5.94947">
        <ele>419.77734375</ele>
        <time>2018-11-18T08:36:40Z</time>
      </trkpt>
      <trkpt lat="43.28745" lon="5.94945">
        <ele>419.7578125</ele>
        <time>2018-11-18T08:36:41Z</time>
      </trkpt>
      <trkpt lat="43.28744" lon="5.94943">
        <ele>419.73828125</ele>
        <time>2018-11-18T08:36:42Z</time>
      </trkpt>
      <trkpt lat="43.28744" lon="5.94941">
        <ele>419.734375</ele>
        <time>2018-11-18T08:36:43Z</time>
      </trkpt>
      <trkpt lat="43.28744" lon="5.94939">
        <ele>419.74609375</ele>
        <time>2018-11-18T08:36:44Z</time>
      </trkpt>
      <trkpt lat="43.28744" lon="5.94937">
        <ele>419.75</ele>
        <time>2018-11-18T08:36:45Z</time>
      </trkpt>
      <trkpt lat="43.28745" lon="5.94936">
        <ele>419.75390625</ele>
        <time>2018-11-18T08:36:57Z</time>
      </trkpt>
      <trkpt lat="43.28744" lon="5.94932">
        <ele>419.7265625</ele>
        <time>2018-11-18T08:37:21Z</time>
      </trkpt>
      <trkpt lat="43.28745" lon="5.9493">
        <ele>419.78515625</ele>
        <time>2018-11-18T08:37:23Z</time>
      </trkpt>
      <trkpt lat="43.28747" lon="5.94929">
        <ele>419.828125</ele>
        <time>2018-11-18T08:37:24Z</time>
      </trkpt>
      <trkpt lat="43.28748" lon="5.94926">
        <ele>419.859375</ele>
        <time>2018-11-18T08:37:25Z</time>
      </trkpt>
      <trkpt lat="43.28749" lon="5.94924">
        <ele>419.8984375</ele>
        <time>2018-11-18T08:37:26Z</time>
      </trkpt>
      <trkpt lat="43.28749" lon="5.94921">
        <ele>419.92578125</ele>
        <time>2018-11-18T08:37:27Z</time>
      </trkpt>
      <trkpt lat="43.2875" lon="5.94918">
        <ele>419.95703125</ele>
        <time>2018-11-18T08:37:28Z</time>
      </trkpt>
      <trkpt lat="43.28754" lon="5.9489">
        <ele>420.09375</ele>
        <time>2018-11-18T08:37:37Z</time>
      </trkpt>
      <trkpt lat="43.28732" lon="5.94861">
        <ele>419.01171875</ele>
        <time>2018-11-18T08:37:47Z</time>
      </trkpt>
      <trkpt lat="43.28729" lon="5.94858">
        <ele>418.9609375</ele>
        <time>2018-11-18T08:37:48Z</time>
      </trkpt>
      <trkpt lat="43.28727" lon="5.94855">
        <ele>418.83203125</ele>
        <time>2018-11-18T08:37:49Z</time>
      </trkpt>
      <trkpt lat="43.28725" lon="5.9485">
        <ele>418.671875</ele>
        <time>2018-11-18T08:37:50Z</time>
      </trkpt>
      <trkpt lat="43.28723" lon="5.94846">
        <ele>418.484375</ele>
        <time>2018-11-18T08:37:51Z</time>
      </trkpt>
      <trkpt lat="43.28722" lon="5.9484">
        <ele>418.2578125</ele>
        <time>2018-11-18T08:37:52Z</time>
      </trkpt>
      <trkpt lat="43.28722" lon="5.94835">
        <ele>418.0390625</ele>
        <time>2018-11-18T08:37:53Z</time>
      </trkpt>
      <trkpt lat="43.28722" lon="5.94829">
        <ele>417.9375</ele>
        <time>2018-11-18T08:37:54Z</time>
      </trkpt>
      <trkpt lat="43.28722" lon="5.94823">
        <ele>417.9453125</ele>
        <time>2018-11-18T08:37:55Z</time>
      </trkpt>
      <trkpt lat="43.28721" lon="5.94805">
        <ele>417.890625</ele>
        <time>2018-11-18T08:37:59Z</time>
      </trkpt>
      <trkpt lat="43.2872" lon="5.948">
        <ele>417.8671875</ele>
        <time>2018-11-18T08:38:00Z</time>
      </trkpt>
      <trkpt lat="43.2872" lon="5.94796">
        <ele>417.86328125</ele>
        <time>2018-11-18T08:38:01Z</time>
      </trkpt>
      <trkpt lat="43.2872" lon="5.94793">
        <ele>417.86328125</ele>
        <time>2018-11-18T08:38:02Z</time>
      </trkpt>
      <trkpt lat="43.2872" lon="5.94791">
        <ele>417.85546875</ele>
        <time>2018-11-18T08:38:03Z</time>
      </trkpt>
      <trkpt lat="43.28719" lon="5.94789">
        <ele>417.83984375</ele>
        <time>2018-11-18T08:38:06Z</time>
      </trkpt>
      <trkpt lat="43.2872" lon="5.94787">
        <ele>417.85546875</ele>
        <time>2018-11-18T08:38:07Z</time>
      </trkpt>
      <trkpt lat="43.2872" lon="5.94785">
        <ele>417.875</ele>
        <time>2018-11-18T08:38:08Z</time>
      </trkpt>
      <trkpt lat="43.28721" lon="5.94782">
        <ele>417.90625</ele>
        <time>2018-11-18T08:38:09Z</time>
      </trkpt>
      <trkpt lat="43.28722" lon="5.94779">
        <ele>417.9375</ele>
        <time>2018-11-18T08:38:10Z</time>
      </trkpt>
      <trkpt lat="43.28722" lon="5.94776">
        <ele>417.95703125</ele>
        <time>2018-11-18T08:38:11Z</time>
      </trkpt>
      <trkpt lat="43.28723" lon="5.94772">
        <ele>417.96484375</ele>
        <time>2018-11-18T08:38:12Z</time>
      </trkpt>
      <trkpt lat="43.2872" lon="5.94729">
        <ele>418.359375</ele>
        <time>2018-11-18T08:38:22Z</time>
      </trkpt>
      <trkpt lat="43.28717" lon="5.94696">
        <ele>418.49609375</ele>
        <time>2018-11-18T08:38:31Z</time>
      </trkpt>
      <trkpt lat="43.287" lon="5.94662">
        <ele>417.3984375</ele>
        <time>2018-11-18T08:38:42Z</time>
      </trkpt>
      <trkpt lat="43.28688" lon="5.94629">
        <ele>417.765625</ele>
        <time>2018-11-18T08:38:54Z</time>
      </trkpt>
      <trkpt lat="43.28688" lon="5.94587">
        <ele>418.43359375</ele>
        <time>2018-11-18T08:39:04Z</time>
      </trkpt>
      <trkpt lat="43.28694" lon="5.94558">
        <ele>419.6875</ele>
        <time>2018-11-18T08:39:16Z</time>
      </trkpt>
      <trkpt lat="43.28693" lon="5.94549">
        <ele>419.95703125</ele>
        <time>2018-11-18T08:39:27Z</time>
      </trkpt>
      <trkpt lat="43.2869" lon="5.94548">
        <ele>419.7734375</ele>
        <time>2018-11-18T08:39:37Z</time>
      </trkpt>
      <trkpt lat="43.28693" lon="5.94543">
        <ele>420.1953125</ele>
        <time>2018-11-18T08:39:50Z</time>
      </trkpt>
      <trkpt lat="43.28693" lon="5.94536">
        <ele>420.43359375</ele>
        <time>2018-11-18T08:40:06Z</time>
      </trkpt>
      <trkpt lat="43.28691" lon="5.94536">
        <ele>420.29296875</ele>
        <time>2018-11-18T08:40:27Z</time>
      </trkpt>
      <trkpt lat="43.28692" lon="5.94535">
        <ele>420.390625</ele>
        <time>2018-11-18T08:40:28Z</time>
      </trkpt>
      <trkpt lat="43.28692" lon="5.94533">
        <ele>420.5234375</ele>
        <time>2018-11-18T08:40:29Z</time>
      </trkpt>
      <trkpt lat="43.28697" lon="5.94492">
        <ele>419.84375</ele>
        <time>2018-11-18T08:40:39Z</time>
      </trkpt>
      <trkpt lat="43.28695" lon="5.94477">
        <ele>419.19921875</ele>
        <time>2018-11-18T08:40:41Z</time>
      </trkpt>
      <trkpt lat="43.28694" lon="5.9447">
        <ele>418.9296875</ele>
        <time>2018-11-18T08:40:42Z</time>
      </trkpt>
      <trkpt lat="43.28692" lon="5.94456">
        <ele>418.7890625</ele>
        <time>2018-11-18T08:40:44Z</time>
      </trkpt>
      <trkpt lat="43.2869" lon="5.9445">
        <ele>418.63671875</ele>
        <time>2018-11-18T08:40:45Z</time>
      </trkpt>
      <trkpt lat="43.28688" lon="5.94444">
        <ele>418.44921875</ele>
        <time>2018-11-18T08:40:46Z</time>
      </trkpt>
      <trkpt lat="43.28687" lon="5.94438">
        <ele>418.3359375</ele>
        <time>2018-11-18T08:40:47Z</time>
      </trkpt>
      <trkpt lat="43.28686" lon="5.94433">
        <ele>418.25390625</ele>
        <time>2018-11-18T08:40:48Z</time>
      </trkpt>
      <trkpt lat="43.28684" lon="5.94429">
        <ele>418.15625</ele>
        <time>2018-11-18T08:40:49Z</time>
      </trkpt>
      <trkpt lat="43.28683" lon="5.94426">
        <ele>418.0625</ele>
        <time>2018-11-18T08:40:50Z</time>
      </trkpt>
      <trkpt lat="43.28682" lon="5.94424">
        <ele>417.96484375</ele>
        <time>2018-11-18T08:40:51Z</time>
      </trkpt>
      <trkpt lat="43.2868" lon="5.94422">
        <ele>417.859375</ele>
        <time>2018-11-18T08:40:52Z</time>
      </trkpt>
      <trkpt lat="43.28679" lon="5.9442">
        <ele>417.76953125</ele>
        <time>2018-11-18T08:40:53Z</time>
      </trkpt>
      <trkpt lat="43.28678" lon="5.94417">
        <ele>417.6953125</ele>
        <time>2018-11-18T08:40:54Z</time>
      </trkpt>
      <trkpt lat="43.28669" lon="5.94393">
        <ele>417.859375</ele>
        <time>2018-11-18T08:41:05Z</time>
      </trkpt>
      <trkpt lat="43.2867" lon="5.94385">
        <ele>418.171875</ele>
        <time>2018-11-18T08:41:08Z</time>
      </trkpt>
      <trkpt lat="43.28664" lon="5.94353">
        <ele>418.90234375</ele>
        <time>2018-11-18T08:41:20Z</time>
      </trkpt>
      <trkpt lat="43.28667" lon="5.94349">
        <ele>418.97265625</ele>
        <time>2018-11-18T08:41:22Z</time>
      </trkpt>
      <trkpt lat="43.28668" lon="5.94347">
        <ele>418.9921875</ele>
        <time>2018-11-18T08:41:23Z</time>
      </trkpt>
      <trkpt lat="43.28668" lon="5.94345">
        <ele>419.00390625</ele>
        <time>2018-11-18T08:41:24Z</time>
      </trkpt>
      <trkpt lat="43.28669" lon="5.94343">
        <ele>419.02734375</ele>
        <time>2018-11-18T08:41:25Z</time>
      </trkpt>
      <trkpt lat="43.2867" lon="5.9434">
        <ele>419.04296875</ele>
        <time>2018-11-18T08:41:26Z</time>
      </trkpt>
      <trkpt lat="43.2867" lon="5.94337">
        <ele>419.0625</ele>
        <time>2018-11-18T08:41:27Z</time>
      </trkpt>
      <trkpt lat="43.28665" lon="5.94304">
        <ele>420.03125</ele>
        <time>2018-11-18T08:41:40Z</time>
      </trkpt>
      <trkpt lat="43.28649" lon="5.94277">
        <ele>421</ele>
        <time>2018-11-18T08:41:52Z</time>
      </trkpt>
      <trkpt lat="43.28647" lon="5.94234">
        <ele>421.5390625</ele>
        <time>2018-11-18T08:42:06Z</time>
      </trkpt>
      <trkpt lat="43.2865" lon="5.9423">
        <ele>421.67578125</ele>
        <time>2018-11-18T08:42:09Z</time>
      </trkpt>
      <trkpt lat="43.28651" lon="5.94229">
        <ele>421.70703125</ele>
        <time>2018-11-18T08:42:10Z</time>
      </trkpt>
      <trkpt lat="43.28652" lon="5.94228">
        <ele>421.76171875</ele>
        <time>2018-11-18T08:42:11Z</time>
      </trkpt>
      <trkpt lat="43.28652" lon="5.94226">
        <ele>421.82421875</ele>
        <time>2018-11-18T08:42:12Z</time>
      </trkpt>
      <trkpt lat="43.2865" lon="5.94225">
        <ele>421.86328125</ele>
        <time>2018-11-18T08:42:13Z</time>
      </trkpt>
      <trkpt lat="43.28649" lon="5.94224">
        <ele>421.89453125</ele>
        <time>2018-11-18T08:42:14Z</time>
      </trkpt>
      <trkpt lat="43.28644" lon="5.94219">
        <ele>422.078125</ele>
        <time>2018-11-18T08:42:17Z</time>
      </trkpt>
      <trkpt lat="43.28643" lon="5.94217">
        <ele>422.17578125</ele>
        <time>2018-11-18T08:42:18Z</time>
      </trkpt>
      <trkpt lat="43.28642" lon="5.94214">
        <ele>422.265625</ele>
        <time>2018-11-18T08:42:26Z</time>
      </trkpt>
      <trkpt lat="43.28641" lon="5.94213">
        <ele>422.3046875</ele>
        <time>2018-11-18T08:42:38Z</time>
      </trkpt>
      <trkpt lat="43.2864" lon="5.94214">
        <ele>422.2578125</ele>
        <time>2018-11-18T08:42:48Z</time>
      </trkpt>
      <trkpt lat="43.28638" lon="5.9421">
        <ele>422.390625</ele>
        <time>2018-11-18T08:43:02Z</time>
      </trkpt>
      <trkpt lat="43.28644" lon="5.94209">
        <ele>422.48046875</ele>
        <time>2018-11-18T08:43:17Z</time>
      </trkpt>
      <trkpt lat="43.28645" lon="5.94207">
        <ele>422.62109375</ele>
        <time>2018-11-18T08:43:33Z</time>
      </trkpt>
      <trkpt lat="43.28645" lon="5.94207">
        <ele>422.62109375</ele>
        <time>2018-11-18T08:43:51Z</time>
      </trkpt>
      <trkpt lat="43.28648" lon="5.94206">
        <ele>422.72265625</ele>
        <time>2018-11-18T08:43:56Z</time>
      </trkpt>
      <trkpt lat="43.28651" lon="5.94205">
        <ele>422.77734375</ele>
        <time>2018-11-18T08:43:58Z</time>
      </trkpt>
      <trkpt lat="43.28652" lon="5.94205">
        <ele>422.8125</ele>
        <time>2018-11-18T08:43:59Z</time>
      </trkpt>
      <trkpt lat="43.28653" lon="5.94205">
        <ele>422.859375</ele>
        <time>2018-11-18T08:44:00Z</time>
      </trkpt>
      <trkpt lat="43.28655" lon="5.94205">
        <ele>422.89453125</ele>
        <time>2018-11-18T08:44:01Z</time>
      </trkpt>
      <trkpt lat="43.28656" lon="5.94205">
        <ele>422.89453125</ele>
        <time>2018-11-18T08:44:02Z</time>
      </trkpt>
      <trkpt lat="43.28657" lon="5.94206">
        <ele>422.8984375</ele>
        <time>2018-11-18T08:44:03Z</time>
      </trkpt>
      <trkpt lat="43.28659" lon="5.94206">
        <ele>422.9140625</ele>
        <time>2018-11-18T08:44:04Z</time>
      </trkpt>
      <trkpt lat="43.2866" lon="5.94207">
        <ele>422.90234375</ele>
        <time>2018-11-18T08:44:05Z</time>
      </trkpt>
      <trkpt lat="43.28662" lon="5.94207">
        <ele>422.890625</ele>
        <time>2018-11-18T08:44:06Z</time>
      </trkpt>
      <trkpt lat="43.28664" lon="5.94208">
        <ele>422.875</ele>
        <time>2018-11-18T08:44:07Z</time>
      </trkpt>
      <trkpt lat="43.28666" lon="5.94209">
        <ele>422.87109375</ele>
        <time>2018-11-18T08:44:08Z</time>
      </trkpt>
      <trkpt lat="43.28668" lon="5.94209">
        <ele>422.890625</ele>
        <time>2018-11-18T08:44:09Z</time>
      </trkpt>
      <trkpt lat="43.2867" lon="5.94209">
        <ele>422.9453125</ele>
        <time>2018-11-18T08:44:10Z</time>
      </trkpt>
      <trkpt lat="43.28673" lon="5.94209">
        <ele>423.01171875</ele>
        <time>2018-11-18T08:44:11Z</time>
      </trkpt>
      <trkpt lat="43.28675" lon="5.94208">
        <ele>423.09375</ele>
        <time>2018-11-18T08:44:12Z</time>
      </trkpt>
      <trkpt lat="43.28678" lon="5.94207">
        <ele>423.18359375</ele>
        <time>2018-11-18T08:44:13Z</time>
      </trkpt>
      <trkpt lat="43.2868" lon="5.94206">
        <ele>423.27734375</ele>
        <time>2018-11-18T08:44:14Z</time>
      </trkpt>
      <trkpt lat="43.28694" lon="5.94205">
        <ele>423.58203125</ele>
        <time>2018-11-18T08:44:21Z</time>
      </trkpt>
      <trkpt lat="43.28696" lon="5.94206">
        <ele>423.57421875</ele>
        <time>2018-11-18T08:44:22Z</time>
      </trkpt>
      <trkpt lat="43.28728" lon="5.94212">
        <ele>424.64453125</ele>
        <time>2018-11-18T08:44:36Z</time>
      </trkpt>
      <trkpt lat="43.28768" lon="5.94213">
        <ele>427.48828125</ele>
        <time>2018-11-18T08:44:51Z</time>
      </trkpt>
      <trkpt lat="43.28798" lon="5.94215">
        <ele>430.8515625</ele>
        <time>2018-11-18T08:45:04Z</time>
      </trkpt>
      <trkpt lat="43.28808" lon="5.94191">
        <ele>432.25</ele>
        <time>2018-11-18T08:45:17Z</time>
      </trkpt>
      <trkpt lat="43.28807" lon="5.94152">
        <ele>433.98046875</ele>
        <time>2018-11-18T08:45:31Z</time>
      </trkpt>
      <trkpt lat="43.28808" lon="5.94114">
        <ele>435.96484375</ele>
        <time>2018-11-18T08:45:45Z</time>
      </trkpt>
      <trkpt lat="43.28811" lon="5.94084">
        <ele>438.33203125</ele>
        <time>2018-11-18T08:45:57Z</time>
      </trkpt>
      <trkpt lat="43.28811" lon="5.94082">
        <ele>438.44921875</ele>
        <time>2018-11-18T08:45:58Z</time>
      </trkpt>
      <trkpt lat="43.28811" lon="5.94079">
        <ele>438.55078125</ele>
        <time>2018-11-18T08:45:59Z</time>
      </trkpt>
      <trkpt lat="43.28813" lon="5.94047">
        <ele>439.9140625</ele>
        <time>2018-11-18T08:46:13Z</time>
      </trkpt>
      <trkpt lat="43.28818" lon="5.94011">
        <ele>441.7265625</ele>
        <time>2018-11-18T08:46:28Z</time>
      </trkpt>
      <trkpt lat="43.2883" lon="5.93976">
        <ele>444.33203125</ele>
        <time>2018-11-18T08:46:43Z</time>
      </trkpt>
      <trkpt lat="43.28844" lon="5.93941">
        <ele>445.95703125</ele>
        <time>2018-11-18T08:46:58Z</time>
      </trkpt>
      <trkpt lat="43.2885" lon="5.93907">
        <ele>446.81640625</ele>
        <time>2018-11-18T08:47:12Z</time>
      </trkpt>
      <trkpt lat="43.28858" lon="5.93864">
        <ele>448.3515625</ele>
        <time>2018-11-18T08:47:29Z</time>
      </trkpt>
      <trkpt lat="43.28861" lon="5.93827">
        <ele>448.8203125</ele>
        <time>2018-11-18T08:47:43Z</time>
      </trkpt>
      <trkpt lat="43.28861" lon="5.93823">
        <ele>448.83203125</ele>
        <time>2018-11-18T08:48:08Z</time>
      </trkpt>
      <trkpt lat="43.28859" lon="5.93823">
        <ele>448.5078125</ele>
        <time>2018-11-18T08:48:34Z</time>
      </trkpt>
      <trkpt lat="43.28862" lon="5.9382">
        <ele>448.91015625</ele>
        <time>2018-11-18T08:48:51Z</time>
      </trkpt>
      <trkpt lat="43.28863" lon="5.9382">
        <ele>449.125</ele>
        <time>2018-11-18T08:49:16Z</time>
      </trkpt>
      <trkpt lat="43.28862" lon="5.93817">
        <ele>448.8984375</ele>
        <time>2018-11-18T08:49:39Z</time>
      </trkpt>
      <trkpt lat="43.28863" lon="5.93818">
        <ele>449.1875</ele>
        <time>2018-11-18T08:50:02Z</time>
      </trkpt>
      <trkpt lat="43.28863" lon="5.93817">
        <ele>449.16796875</ele>
        <time>2018-11-18T08:50:29Z</time>
      </trkpt>
      <trkpt lat="43.28864" lon="5.93817">
        <ele>449.22265625</ele>
        <time>2018-11-18T08:50:52Z</time>
      </trkpt>
      <trkpt lat="43.28862" lon="5.93816">
        <ele>448.9921875</ele>
        <time>2018-11-18T08:51:09Z</time>
      </trkpt>
      <trkpt lat="43.28863" lon="5.93815">
        <ele>449.09375</ele>
        <time>2018-11-18T08:51:17Z</time>
      </trkpt>
      <trkpt lat="43.28863" lon="5.93813">
        <ele>449.15234375</ele>
        <time>2018-11-18T08:51:18Z</time>
      </trkpt>
      <trkpt lat="43.28863" lon="5.93812">
        <ele>449.12109375</ele>
        <time>2018-11-18T08:51:19Z</time>
      </trkpt>
      <trkpt lat="43.28863" lon="5.93811">
        <ele>449.09765625</ele>
        <time>2018-11-18T08:51:20Z</time>
      </trkpt>
      <trkpt lat="43.28863" lon="5.93809">
        <ele>449.0546875</ele>
        <time>2018-11-18T08:51:21Z</time>
      </trkpt>
      <trkpt lat="43.28863" lon="5.93801">
        <ele>449.10546875</ele>
        <time>2018-11-18T08:51:25Z</time>
      </trkpt>
      <trkpt lat="43.28864" lon="5.938">
        <ele>449.33203125</ele>
        <time>2018-11-18T08:51:26Z</time>
      </trkpt>
      <trkpt lat="43.28866" lon="5.93798">
        <ele>449.7734375</ele>
        <time>2018-11-18T08:51:28Z</time>
      </trkpt>
      <trkpt lat="43.28866" lon="5.93796">
        <ele>449.78515625</ele>
        <time>2018-11-18T08:51:29Z</time>
      </trkpt>
      <trkpt lat="43.28866" lon="5.93794">
        <ele>449.765625</ele>
        <time>2018-11-18T08:51:30Z</time>
      </trkpt>
      <trkpt lat="43.28865" lon="5.93793">
        <ele>449.55078125</ele>
        <time>2018-11-18T08:51:31Z</time>
      </trkpt>
      <trkpt lat="43.28863" lon="5.93795">
        <ele>449.15234375</ele>
        <time>2018-11-18T08:51:33Z</time>
      </trkpt>
      <trkpt lat="43.28863" lon="5.93797">
        <ele>449.01953125</ele>
        <time>2018-11-18T08:51:34Z</time>
      </trkpt>
      <trkpt lat="43.28861" lon="5.93803">
        <ele>448.85546875</ele>
        <time>2018-11-18T08:51:37Z</time>
      </trkpt>
      <trkpt lat="43.28862" lon="5.93806">
        <ele>448.98828125</ele>
        <time>2018-11-18T08:51:39Z</time>
      </trkpt>
      <trkpt lat="43.28864" lon="5.93807">
        <ele>449.23046875</ele>
        <time>2018-11-18T08:51:40Z</time>
      </trkpt>
      <trkpt lat="43.28865" lon="5.93806">
        <ele>449.5</ele>
        <time>2018-11-18T08:51:41Z</time>
      </trkpt>
      <trkpt lat="43.28865" lon="5.93803">
        <ele>449.62890625</ele>
        <time>2018-11-18T08:51:42Z</time>
      </trkpt>
      <trkpt lat="43.28865" lon="5.93801">
        <ele>449.60546875</ele>
        <time>2018-11-18T08:51:43Z</time>
      </trkpt>
      <trkpt lat="43.28865" lon="5.93798">
        <ele>449.58984375</ele>
        <time>2018-11-18T08:51:44Z</time>
      </trkpt>
      <trkpt lat="43.28865" lon="5.93795">
        <ele>449.55859375</ele>
        <time>2018-11-18T08:51:45Z</time>
      </trkpt>
      <trkpt lat="43.28865" lon="5.93792">
        <ele>449.56640625</ele>
        <time>2018-11-18T08:51:46Z</time>
      </trkpt>
      <trkpt lat="43.28869" lon="5.93742">
        <ele>451.89453125</ele>
        <time>2018-11-18T08:52:04Z</time>
      </trkpt>
      <trkpt lat="43.28871" lon="5.93704">
        <ele>453.66796875</ele>
        <time>2018-11-18T08:52:16Z</time>
      </trkpt>
      <trkpt lat="43.28874" lon="5.93643">
        <ele>457.41015625</ele>
        <time>2018-11-18T08:52:33Z</time>
      </trkpt>
      <trkpt lat="43.28873" lon="5.93599">
        <ele>458.64453125</ele>
        <time>2018-11-18T08:52:46Z</time>
      </trkpt>
      <trkpt lat="43.28862" lon="5.93548">
        <ele>455.96875</ele>
        <time>2018-11-18T08:52:58Z</time>
      </trkpt>
      <trkpt lat="43.28848" lon="5.93488">
        <ele>454.1484375</ele>
        <time>2018-11-18T08:53:12Z</time>
      </trkpt>
      <trkpt lat="43.28841" lon="5.93453">
        <ele>455.13671875</ele>
        <time>2018-11-18T08:53:18Z</time>
      </trkpt>
      <trkpt lat="43.28841" lon="5.93447">
        <ele>455.4921875</ele>
        <time>2018-11-18T08:53:19Z</time>
      </trkpt>
      <trkpt lat="43.28859" lon="5.93368">
        <ele>459.5859375</ele>
        <time>2018-11-18T08:53:36Z</time>
      </trkpt>
      <trkpt lat="43.28886" lon="5.93325">
        <ele>462.03125</ele>
        <time>2018-11-18T08:53:50Z</time>
      </trkpt>
      <trkpt lat="43.28905" lon="5.93296">
        <ele>463.91015625</ele>
        <time>2018-11-18T08:54:03Z</time>
      </trkpt>
      <trkpt lat="43.28919" lon="5.93245">
        <ele>462.81640625</ele>
        <time>2018-11-18T08:54:18Z</time>
      </trkpt>
      <trkpt lat="43.28934" lon="5.93192">
        <ele>463.328125</ele>
        <time>2018-11-18T08:54:32Z</time>
      </trkpt>
      <trkpt lat="43.28937" lon="5.9319">
        <ele>463.828125</ele>
        <time>2018-11-18T08:54:40Z</time>
      </trkpt>
      <trkpt lat="43.28938" lon="5.93187">
        <ele>463.59765625</ele>
        <time>2018-11-18T08:55:11Z</time>
      </trkpt>
      <trkpt lat="43.28936" lon="5.93189">
        <ele>463.35546875</ele>
        <time>2018-11-18T08:55:35Z</time>
      </trkpt>
      <trkpt lat="43.28943" lon="5.93176">
        <ele>463.55078125</ele>
        <time>2018-11-18T08:55:50Z</time>
      </trkpt>
      <trkpt lat="43.28964" lon="5.9314">
        <ele>464.76171875</ele>
        <time>2018-11-18T08:56:02Z</time>
      </trkpt>
      <trkpt lat="43.28982" lon="5.931">
        <ele>465.41796875</ele>
        <time>2018-11-18T08:56:14Z</time>
      </trkpt>
      <trkpt lat="43.2899" lon="5.93064">
        <ele>466.33984375</ele>
        <time>2018-11-18T08:56:27Z</time>
      </trkpt>
      <trkpt lat="43.28991" lon="5.93059">
        <ele>466.2109375</ele>
        <time>2018-11-18T08:56:29Z</time>
      </trkpt>
      <trkpt lat="43.28991" lon="5.93057">
        <ele>466.296875</ele>
        <time>2018-11-18T08:56:30Z</time>
      </trkpt>
      <trkpt lat="43.28994" lon="5.93054">
        <ele>466.625</ele>
        <time>2018-11-18T08:56:32Z</time>
      </trkpt>
      <trkpt lat="43.28996" lon="5.93053">
        <ele>466.8984375</ele>
        <time>2018-11-18T08:56:33Z</time>
      </trkpt>
      <trkpt lat="43.28998" lon="5.93053">
        <ele>467.15234375</ele>
        <time>2018-11-18T08:56:34Z</time>
      </trkpt>
      <trkpt lat="43.28999" lon="5.93052">
        <ele>467.4140625</ele>
        <time>2018-11-18T08:56:35Z</time>
      </trkpt>
      <trkpt lat="43.29001" lon="5.93051">
        <ele>467.6953125</ele>
        <time>2018-11-18T08:56:36Z</time>
      </trkpt>
      <trkpt lat="43.29003" lon="5.93051">
        <ele>467.94921875</ele>
        <time>2018-11-18T08:56:37Z</time>
      </trkpt>
      <trkpt lat="43.29004" lon="5.93051">
        <ele>468.1796875</ele>
        <time>2018-11-18T08:56:38Z</time>
      </trkpt>
      <trkpt lat="43.29006" lon="5.93052">
        <ele>468.40625</ele>
        <time>2018-11-18T08:56:39Z</time>
      </trkpt>
      <trkpt lat="43.29007" lon="5.93051">
        <ele>468.609375</ele>
        <time>2018-11-18T08:56:40Z</time>
      </trkpt>
      <trkpt lat="43.29009" lon="5.93051">
        <ele>468.7890625</ele>
        <time>2018-11-18T08:56:41Z</time>
      </trkpt>
      <trkpt lat="43.29011" lon="5.93052">
        <ele>469.1640625</ele>
        <time>2018-11-18T08:56:43Z</time>
      </trkpt>
      <trkpt lat="43.29012" lon="5.93051">
        <ele>469.25390625</ele>
        <time>2018-11-18T08:56:44Z</time>
      </trkpt>
      <trkpt lat="43.29013" lon="5.9305">
        <ele>469.29296875</ele>
        <time>2018-11-18T08:56:45Z</time>
      </trkpt>
      <trkpt lat="43.29014" lon="5.93049">
        <ele>469.35546875</ele>
        <time>2018-11-18T08:56:46Z</time>
      </trkpt>
      <trkpt lat="43.29015" lon="5.93049">
        <ele>469.5</ele>
        <time>2018-11-18T08:56:47Z</time>
      </trkpt>
      <trkpt lat="43.29016" lon="5.93049">
        <ele>469.66796875</ele>
        <time>2018-11-18T08:56:48Z</time>
      </trkpt>
      <trkpt lat="43.29027" lon="5.93047">
        <ele>471.125</ele>
        <time>2018-11-18T08:56:56Z</time>
      </trkpt>
      <trkpt lat="43.29028" lon="5.93047">
        <ele>471.34375</ele>
        <time>2018-11-18T08:56:57Z</time>
      </trkpt>
      <trkpt lat="43.2903" lon="5.93047">
        <ele>471.5234375</ele>
        <time>2018-11-18T08:56:58Z</time>
      </trkpt>
      <trkpt lat="43.29031" lon="5.93048">
        <ele>471.7265625</ele>
        <time>2018-11-18T08:56:59Z</time>
      </trkpt>
      <trkpt lat="43.29032" lon="5.93048">
        <ele>471.92578125</ele>
        <time>2018-11-18T08:57:00Z</time>
      </trkpt>
      <trkpt lat="43.29034" lon="5.93048">
        <ele>472.109375</ele>
        <time>2018-11-18T08:57:01Z</time>
      </trkpt>
      <trkpt lat="43.29035" lon="5.93048">
        <ele>472.28515625</ele>
        <time>2018-11-18T08:57:02Z</time>
      </trkpt>
      <trkpt lat="43.29036" lon="5.93048">
        <ele>472.4609375</ele>
        <time>2018-11-18T08:57:03Z</time>
      </trkpt>
      <trkpt lat="43.29037" lon="5.93049">
        <ele>472.62109375</ele>
        <time>2018-11-18T08:57:04Z</time>
      </trkpt>
      <trkpt lat="43.29052" lon="5.93054">
        <ele>475.12109375</ele>
        <time>2018-11-18T08:57:16Z</time>
      </trkpt>
      <trkpt lat="43.29053" lon="5.93054">
        <ele>475.359375</ele>
        <time>2018-11-18T08:57:17Z</time>
      </trkpt>
      <trkpt lat="43.29074" lon="5.93059">
        <ele>477.125</ele>
        <time>2018-11-18T08:57:32Z</time>
      </trkpt>
      <trkpt lat="43.29093" lon="5.93063">
        <ele>478.04296875</ele>
        <time>2018-11-18T08:57:45Z</time>
      </trkpt>
      <trkpt lat="43.29118" lon="5.93063">
        <ele>477.73046875</ele>
        <time>2018-11-18T08:58:02Z</time>
      </trkpt>
      <trkpt lat="43.29133" lon="5.93091">
        <ele>481.49609375</ele>
        <time>2018-11-18T08:58:16Z</time>
      </trkpt>
      <trkpt lat="43.29134" lon="5.93093">
        <ele>481.88671875</ele>
        <time>2018-11-18T08:58:17Z</time>
      </trkpt>
      <trkpt lat="43.29136" lon="5.93095">
        <ele>482.26171875</ele>
        <time>2018-11-18T08:58:18Z</time>
      </trkpt>
      <trkpt lat="43.29137" lon="5.93098">
        <ele>482.8046875</ele>
        <time>2018-11-18T08:58:19Z</time>
      </trkpt>
      <trkpt lat="43.29139" lon="5.931">
        <ele>483.3515625</ele>
        <time>2018-11-18T08:58:20Z</time>
      </trkpt>
      <trkpt lat="43.2914" lon="5.93102">
        <ele>483.81640625</ele>
        <time>2018-11-18T08:58:21Z</time>
      </trkpt>
      <trkpt lat="43.29141" lon="5.93104">
        <ele>484.3046875</ele>
        <time>2018-11-18T08:58:22Z</time>
      </trkpt>
      <trkpt lat="43.29158" lon="5.93121">
        <ele>488.5234375</ele>
        <time>2018-11-18T08:58:36Z</time>
      </trkpt>
      <trkpt lat="43.29164" lon="5.93122">
        <ele>488.66796875</ele>
        <time>2018-11-18T08:58:40Z</time>
      </trkpt>
      <trkpt lat="43.29182" lon="5.93125">
        <ele>489.9296875</ele>
        <time>2018-11-18T08:58:53Z</time>
      </trkpt>
      <trkpt lat="43.29187" lon="5.93128">
        <ele>490.875</ele>
        <time>2018-11-18T08:59:07Z</time>
      </trkpt>
      <trkpt lat="43.2919" lon="5.93126">
        <ele>490.13671875</ele>
        <time>2018-11-18T08:59:33Z</time>
      </trkpt>
      <trkpt lat="43.29197" lon="5.93127">
        <ele>490.57421875</ele>
        <time>2018-11-18T08:59:44Z</time>
      </trkpt>
      <trkpt lat="43.29207" lon="5.9313">
        <ele>491.89453125</ele>
        <time>2018-11-18T09:00:00Z</time>
      </trkpt>
      <trkpt lat="43.29213" lon="5.93134">
        <ele>493.28515625</ele>
        <time>2018-11-18T09:00:05Z</time>
      </trkpt>
      <trkpt lat="43.29214" lon="5.93137">
        <ele>494.3359375</ele>
        <time>2018-11-18T09:00:08Z</time>
      </trkpt>
      <trkpt lat="43.29215" lon="5.93139">
        <ele>494.765625</ele>
        <time>2018-11-18T09:00:09Z</time>
      </trkpt>
      <trkpt lat="43.29237" lon="5.93159">
        <ele>502.98828125</ele>
        <time>2018-11-18T09:00:22Z</time>
      </trkpt>
      <trkpt lat="43.29272" lon="5.93148">
        <ele>502.375</ele>
        <time>2018-11-18T09:00:34Z</time>
      </trkpt>
      <trkpt lat="43.29289" lon="5.93142">
        <ele>502.36328125</ele>
        <time>2018-11-18T09:00:43Z</time>
      </trkpt>
      <trkpt lat="43.29291" lon="5.93142">
        <ele>502.51953125</ele>
        <time>2018-11-18T09:00:44Z</time>
      </trkpt>
      <trkpt lat="43.29292" lon="5.93142">
        <ele>502.61328125</ele>
        <time>2018-11-18T09:00:45Z</time>
      </trkpt>
      <trkpt lat="43.29294" lon="5.93142">
        <ele>502.88671875</ele>
        <time>2018-11-18T09:00:46Z</time>
      </trkpt>
      <trkpt lat="43.29295" lon="5.93143">
        <ele>503.28515625</ele>
        <time>2018-11-18T09:00:47Z</time>
      </trkpt>
      <trkpt lat="43.29319" lon="5.93143">
        <ele>505.3359375</ele>
        <time>2018-11-18T09:01:03Z</time>
      </trkpt>
      <trkpt lat="43.29333" lon="5.93146">
        <ele>507.47265625</ele>
        <time>2018-11-18T09:01:13Z</time>
      </trkpt>
      <trkpt lat="43.29349" lon="5.93154">
        <ele>511.3828125</ele>
        <time>2018-11-18T09:01:28Z</time>
      </trkpt>
      <trkpt lat="43.29356" lon="5.93152">
        <ele>511.39453125</ele>
        <time>2018-11-18T09:01:34Z</time>
      </trkpt>
      <trkpt lat="43.29358" lon="5.93152">
        <ele>511.44921875</ele>
        <time>2018-11-18T09:01:35Z</time>
      </trkpt>
      <trkpt lat="43.29359" lon="5.93151">
        <ele>511.390625</ele>
        <time>2018-11-18T09:01:36Z</time>
      </trkpt>
      <trkpt lat="43.2936" lon="5.93151">
        <ele>511.36328125</ele>
        <time>2018-11-18T09:01:37Z</time>
      </trkpt>
      <trkpt lat="43.29362" lon="5.93151">
        <ele>511.390625</ele>
        <time>2018-11-18T09:01:38Z</time>
      </trkpt>
      <trkpt lat="43.29386" lon="5.93151">
        <ele>512.91015625</ele>
        <time>2018-11-18T09:01:55Z</time>
      </trkpt>
      <trkpt lat="43.29406" lon="5.93142">
        <ele>513.2421875</ele>
        <time>2018-11-18T09:02:08Z</time>
      </trkpt>
      <trkpt lat="43.29419" lon="5.93145">
        <ele>515.9375</ele>
        <time>2018-11-18T09:02:21Z</time>
      </trkpt>
      <trkpt lat="43.29442" lon="5.93156">
        <ele>522.22265625</ele>
        <time>2018-11-18T09:02:29Z</time>
      </trkpt>
      <trkpt lat="43.29447" lon="5.93154">
        <ele>522.74609375</ele>
        <time>2018-11-18T09:02:30Z</time>
      </trkpt>
      <trkpt lat="43.29456" lon="5.93151">
        <ele>524.17578125</ele>
        <time>2018-11-18T09:02:32Z</time>
      </trkpt>
      <trkpt lat="43.29473" lon="5.93144">
        <ele>525.92578125</ele>
        <time>2018-11-18T09:02:39Z</time>
      </trkpt>
      <trkpt lat="43.29475" lon="5.93144">
        <ele>526.15625</ele>
        <time>2018-11-18T09:02:40Z</time>
      </trkpt>
      <trkpt lat="43.29477" lon="5.93143">
        <ele>526.3359375</ele>
        <time>2018-11-18T09:02:41Z</time>
      </trkpt>
      <trkpt lat="43.29478" lon="5.93143">
        <ele>526.6640625</ele>
        <time>2018-11-18T09:02:42Z</time>
      </trkpt>
      <trkpt lat="43.2948" lon="5.93142">
        <ele>526.99609375</ele>
        <time>2018-11-18T09:02:43Z</time>
      </trkpt>
      <trkpt lat="43.29482" lon="5.93142">
        <ele>527.15234375</ele>
        <time>2018-11-18T09:02:44Z</time>
      </trkpt>
      <trkpt lat="43.29504" lon="5.93133">
        <ele>530.96875</ele>
        <time>2018-11-18T09:03:01Z</time>
      </trkpt>
      <trkpt lat="43.29522" lon="5.93123">
        <ele>533.375</ele>
        <time>2018-11-18T09:03:15Z</time>
      </trkpt>
      <trkpt lat="43.29531" lon="5.93117">
        <ele>533.98828125</ele>
        <time>2018-11-18T09:03:27Z</time>
      </trkpt>
      <trkpt lat="43.29539" lon="5.93112">
        <ele>534.609375</ele>
        <time>2018-11-18T09:03:38Z</time>
      </trkpt>
      <trkpt lat="43.29551" lon="5.93105">
        <ele>535.81640625</ele>
        <time>2018-11-18T09:03:55Z</time>
      </trkpt>
      <trkpt lat="43.29562" lon="5.931">
        <ele>536.8828125</ele>
        <time>2018-11-18T09:04:10Z</time>
      </trkpt>
      <trkpt lat="43.29576" lon="5.93095">
        <ele>537.7890625</ele>
        <time>2018-11-18T09:04:25Z</time>
      </trkpt>
      <trkpt lat="43.29584" lon="5.93092">
        <ele>538.21484375</ele>
        <time>2018-11-18T09:04:36Z</time>
      </trkpt>
      <trkpt lat="43.29596" lon="5.9309">
        <ele>539.3828125</ele>
        <time>2018-11-18T09:04:50Z</time>
      </trkpt>
      <trkpt lat="43.29602" lon="5.9309">
        <ele>540.546875</ele>
        <time>2018-11-18T09:05:03Z</time>
      </trkpt>
      <trkpt lat="43.29606" lon="5.93089">
        <ele>540.64453125</ele>
        <time>2018-11-18T09:05:28Z</time>
      </trkpt>
      <trkpt lat="43.29603" lon="5.93087">
        <ele>539.7734375</ele>
        <time>2018-11-18T09:05:54Z</time>
      </trkpt>
      <trkpt lat="43.29604" lon="5.93093">
        <ele>541.51171875</ele>
        <time>2018-11-18T09:06:12Z</time>
      </trkpt>
      <trkpt lat="43.29604" lon="5.93096">
        <ele>542.53515625</ele>
        <time>2018-11-18T09:06:36Z</time>
      </trkpt>
      <trkpt lat="43.29602" lon="5.93095">
        <ele>541.75</ele>
        <time>2018-11-18T09:06:56Z</time>
      </trkpt>
      <trkpt lat="43.29604" lon="5.93096">
        <ele>542.3203125</ele>
        <time>2018-11-18T09:07:13Z</time>
      </trkpt>
      <trkpt lat="43.29606" lon="5.93094">
        <ele>542.2578125</ele>
        <time>2018-11-18T09:07:33Z</time>
      </trkpt>
      <trkpt lat="43.29606" lon="5.93095">
        <ele>542.31640625</ele>
        <time>2018-11-18T09:07:57Z</time>
      </trkpt>
      <trkpt lat="43.29608" lon="5.93097">
        <ele>543.43359375</ele>
        <time>2018-11-18T09:08:22Z</time>
      </trkpt>
      <trkpt lat="43.2961" lon="5.93097">
        <ele>543.79296875</ele>
        <time>2018-11-18T09:08:31Z</time>
      </trkpt>
      <trkpt lat="43.29625" lon="5.93098">
        <ele>545.99609375</ele>
        <time>2018-11-18T09:08:42Z</time>
      </trkpt>
      <trkpt lat="43.29626" lon="5.93098">
        <ele>546.05859375</ele>
        <time>2018-11-18T09:08:43Z</time>
      </trkpt>
      <trkpt lat="43.29628" lon="5.93098">
        <ele>546.17578125</ele>
        <time>2018-11-18T09:08:44Z</time>
      </trkpt>
      <trkpt lat="43.29629" lon="5.93097">
        <ele>546.1640625</ele>
        <time>2018-11-18T09:08:45Z</time>
      </trkpt>
      <trkpt lat="43.29631" lon="5.93097">
        <ele>546.2890625</ele>
        <time>2018-11-18T09:08:46Z</time>
      </trkpt>
      <trkpt lat="43.29633" lon="5.93096">
        <ele>546.38671875</ele>
        <time>2018-11-18T09:08:47Z</time>
      </trkpt>
      <trkpt lat="43.29634" lon="5.93096">
        <ele>546.40234375</ele>
        <time>2018-11-18T09:08:48Z</time>
      </trkpt>
      <trkpt lat="43.29636" lon="5.93095">
        <ele>546.34375</ele>
        <time>2018-11-18T09:08:49Z</time>
      </trkpt>
      <trkpt lat="43.29637" lon="5.93094">
        <ele>546.2734375</ele>
        <time>2018-11-18T09:08:50Z</time>
      </trkpt>
      <trkpt lat="43.29638" lon="5.93094">
        <ele>546.25</ele>
        <time>2018-11-18T09:08:51Z</time>
      </trkpt>
      <trkpt lat="43.2964" lon="5.93093">
        <ele>546.3125</ele>
        <time>2018-11-18T09:08:52Z</time>
      </trkpt>
      <trkpt lat="43.29641" lon="5.93093">
        <ele>546.32421875</ele>
        <time>2018-11-18T09:08:53Z</time>
      </trkpt>
      <trkpt lat="43.29642" lon="5.93092">
        <ele>546.25</ele>
        <time>2018-11-18T09:08:54Z</time>
      </trkpt>
      <trkpt lat="43.29643" lon="5.93092">
        <ele>546.1953125</ele>
        <time>2018-11-18T09:08:55Z</time>
      </trkpt>
      <trkpt lat="43.29645" lon="5.93091">
        <ele>546.28515625</ele>
        <time>2018-11-18T09:08:56Z</time>
      </trkpt>
      <trkpt lat="43.29646" lon="5.93091">
        <ele>546.234375</ele>
        <time>2018-11-18T09:08:57Z</time>
      </trkpt>
      <trkpt lat="43.29647" lon="5.9309">
        <ele>546.05078125</ele>
        <time>2018-11-18T09:08:58Z</time>
      </trkpt>
      <trkpt lat="43.29648" lon="5.93089">
        <ele>545.80859375</ele>
        <time>2018-11-18T09:08:59Z</time>
      </trkpt>
      <trkpt lat="43.2965" lon="5.93088">
        <ele>545.6640625</ele>
        <time>2018-11-18T09:09:00Z</time>
      </trkpt>
      <trkpt lat="43.29673" lon="5.93078">
        <ele>546.4765625</ele>
        <time>2018-11-18T09:09:17Z</time>
      </trkpt>
      <trkpt lat="43.29694" lon="5.93068">
        <ele>549.33203125</ele>
        <time>2018-11-18T09:09:32Z</time>
      </trkpt>
      <trkpt lat="43.29702" lon="5.93065">
        <ele>551.14453125</ele>
        <time>2018-11-18T09:09:38Z</time>
      </trkpt>
      <trkpt lat="43.29704" lon="5.93066">
        <ele>551.5859375</ele>
        <time>2018-11-18T09:09:39Z</time>
      </trkpt>
      <trkpt lat="43.29705" lon="5.93065">
        <ele>551.90625</ele>
        <time>2018-11-18T09:09:40Z</time>
      </trkpt>
      <trkpt lat="43.29707" lon="5.93065">
        <ele>552.2421875</ele>
        <time>2018-11-18T09:09:41Z</time>
      </trkpt>
      <trkpt lat="43.29708" lon="5.93064">
        <ele>552.49609375</ele>
        <time>2018-11-18T09:09:42Z</time>
      </trkpt>
      <trkpt lat="43.2971" lon="5.93064">
        <ele>552.72265625</ele>
        <time>2018-11-18T09:09:43Z</time>
      </trkpt>
      <trkpt lat="43.29715" lon="5.93061">
        <ele>553.4375</ele>
        <time>2018-11-18T09:09:47Z</time>
      </trkpt>
      <trkpt lat="43.29716" lon="5.9306">
        <ele>553.4375</ele>
        <time>2018-11-18T09:09:48Z</time>
      </trkpt>
      <trkpt lat="43.29735" lon="5.93049">
        <ele>554.8828125</ele>
        <time>2018-11-18T09:10:03Z</time>
      </trkpt>
      <trkpt lat="43.2974" lon="5.93046">
        <ele>555.1328125</ele>
        <time>2018-11-18T09:10:08Z</time>
      </trkpt>
      <trkpt lat="43.29746" lon="5.93043">
        <ele>555.46484375</ele>
        <time>2018-11-18T09:10:12Z</time>
      </trkpt>
      <trkpt lat="43.29748" lon="5.93042">
        <ele>555.65234375</ele>
        <time>2018-11-18T09:10:14Z</time>
      </trkpt>
      <trkpt lat="43.29749" lon="5.93043">
        <ele>555.91796875</ele>
        <time>2018-11-18T09:10:15Z</time>
      </trkpt>
      <trkpt lat="43.2975" lon="5.93042">
        <ele>556.1015625</ele>
        <time>2018-11-18T09:10:16Z</time>
      </trkpt>
      <trkpt lat="43.29755" lon="5.93041">
        <ele>556.58984375</ele>
        <time>2018-11-18T09:10:20Z</time>
      </trkpt>
      <trkpt lat="43.29757" lon="5.93041">
        <ele>556.7578125</ele>
        <time>2018-11-18T09:10:21Z</time>
      </trkpt>
      <trkpt lat="43.29759" lon="5.93041">
        <ele>557.05859375</ele>
        <time>2018-11-18T09:10:23Z</time>
      </trkpt>
      <trkpt lat="43.2976" lon="5.93041">
        <ele>557.30859375</ele>
        <time>2018-11-18T09:10:24Z</time>
      </trkpt>
      <trkpt lat="43.29761" lon="5.93041">
        <ele>557.5234375</ele>
        <time>2018-11-18T09:10:25Z</time>
      </trkpt>
      <trkpt lat="43.29762" lon="5.93041">
        <ele>557.7265625</ele>
        <time>2018-11-18T09:10:26Z</time>
      </trkpt>
      <trkpt lat="43.29764" lon="5.93041">
        <ele>557.85546875</ele>
        <time>2018-11-18T09:10:27Z</time>
      </trkpt>
      <trkpt lat="43.29765" lon="5.9304">
        <ele>557.8671875</ele>
        <time>2018-11-18T09:10:28Z</time>
      </trkpt>
      <trkpt lat="43.29779" lon="5.93034">
        <ele>558.05859375</ele>
        <time>2018-11-18T09:10:41Z</time>
      </trkpt>
      <trkpt lat="43.29783" lon="5.93033">
        <ele>558.1640625</ele>
        <time>2018-11-18T09:10:44Z</time>
      </trkpt>
      <trkpt lat="43.29787" lon="5.93032">
        <ele>558.1875</ele>
        <time>2018-11-18T09:10:48Z</time>
      </trkpt>
      <trkpt lat="43.29788" lon="5.93032">
        <ele>558.12109375</ele>
        <time>2018-11-18T09:10:49Z</time>
      </trkpt>
      <trkpt lat="43.2979" lon="5.93031">
        <ele>557.89453125</ele>
        <time>2018-11-18T09:10:51Z</time>
      </trkpt>
      <trkpt lat="43.29791" lon="5.9303">
        <ele>557.78515625</ele>
        <time>2018-11-18T09:10:52Z</time>
      </trkpt>
      <trkpt lat="43.29792" lon="5.9303">
        <ele>557.64453125</ele>
        <time>2018-11-18T09:10:53Z</time>
      </trkpt>
      <trkpt lat="43.29793" lon="5.93029">
        <ele>557.38671875</ele>
        <time>2018-11-18T09:10:54Z</time>
      </trkpt>
      <trkpt lat="43.29794" lon="5.93027">
        <ele>557.1171875</ele>
        <time>2018-11-18T09:10:55Z</time>
      </trkpt>
      <trkpt lat="43.29796" lon="5.93027">
        <ele>557.1328125</ele>
        <time>2018-11-18T09:10:56Z</time>
      </trkpt>
      <trkpt lat="43.29797" lon="5.93027">
        <ele>557.203125</ele>
        <time>2018-11-18T09:10:57Z</time>
      </trkpt>
      <trkpt lat="43.29798" lon="5.93026">
        <ele>557.23828125</ele>
        <time>2018-11-18T09:10:58Z</time>
      </trkpt>
      <trkpt lat="43.298" lon="5.93026">
        <ele>557.265625</ele>
        <time>2018-11-18T09:10:59Z</time>
      </trkpt>
      <trkpt lat="43.29801" lon="5.93025">
        <ele>557.32421875</ele>
        <time>2018-11-18T09:11:00Z</time>
      </trkpt>
      <trkpt lat="43.29819" lon="5.93025">
        <ele>561.109375</ele>
        <time>2018-11-18T09:11:15Z</time>
      </trkpt>
      <trkpt lat="43.29822" lon="5.93024">
        <ele>562.0390625</ele>
        <time>2018-11-18T09:11:29Z</time>
      </trkpt>
      <trkpt lat="43.29825" lon="5.93023">
        <ele>562.5625</ele>
        <time>2018-11-18T09:11:48Z</time>
      </trkpt>
      <trkpt lat="43.29828" lon="5.93021">
        <ele>562.96875</ele>
        <time>2018-11-18T09:11:58Z</time>
      </trkpt>
      <trkpt lat="43.29829" lon="5.9302">
        <ele>563.1484375</ele>
        <time>2018-11-18T09:11:59Z</time>
      </trkpt>
      <trkpt lat="43.2985" lon="5.9301">
        <ele>568.51953125</ele>
        <time>2018-11-18T09:12:12Z</time>
      </trkpt>
      <trkpt lat="43.29862" lon="5.92988">
        <ele>567.43359375</ele>
        <time>2018-11-18T09:12:24Z</time>
      </trkpt>
      <trkpt lat="43.29873" lon="5.92962">
        <ele>565.984375</ele>
        <time>2018-11-18T09:12:38Z</time>
      </trkpt>
      <trkpt lat="43.29876" lon="5.92957">
        <ele>565.80859375</ele>
        <time>2018-11-18T09:12:41Z</time>
      </trkpt>
      <trkpt lat="43.29887" lon="5.92946">
        <ele>566.11328125</ele>
        <time>2018-11-18T09:12:51Z</time>
      </trkpt>
      <trkpt lat="43.29903" lon="5.92937">
        <ele>568.890625</ele>
        <time>2018-11-18T09:13:03Z</time>
      </trkpt>
      <trkpt lat="43.29904" lon="5.92937">
        <ele>569.0546875</ele>
        <time>2018-11-18T09:13:04Z</time>
      </trkpt>
      <trkpt lat="43.29905" lon="5.92936">
        <ele>569.234375</ele>
        <time>2018-11-18T09:13:05Z</time>
      </trkpt>
      <trkpt lat="43.29906" lon="5.92936">
        <ele>569.4921875</ele>
        <time>2018-11-18T09:13:06Z</time>
      </trkpt>
      <trkpt lat="43.29908" lon="5.92936">
        <ele>569.76171875</ele>
        <time>2018-11-18T09:13:07Z</time>
      </trkpt>
      <trkpt lat="43.29918" lon="5.92933">
        <ele>571.6640625</ele>
        <time>2018-11-18T09:13:18Z</time>
      </trkpt>
      <trkpt lat="43.29922" lon="5.92934">
        <ele>572.76171875</ele>
        <time>2018-11-18T09:13:21Z</time>
      </trkpt>
      <trkpt lat="43.29923" lon="5.92934">
        <ele>573.1171875</ele>
        <time>2018-11-18T09:13:22Z</time>
      </trkpt>
      <trkpt lat="43.29925" lon="5.92934">
        <ele>573.68359375</ele>
        <time>2018-11-18T09:13:24Z</time>
      </trkpt>
      <trkpt lat="43.29927" lon="5.92933">
        <ele>574.0234375</ele>
        <time>2018-11-18T09:13:25Z</time>
      </trkpt>
      <trkpt lat="43.29939" lon="5.92934">
        <ele>577.7734375</ele>
        <time>2018-11-18T09:13:38Z</time>
      </trkpt>
      <trkpt lat="43.2994" lon="5.92931">
        <ele>577.0859375</ele>
        <time>2018-11-18T09:13:56Z</time>
      </trkpt>
      <trkpt lat="43.29942" lon="5.92932">
        <ele>578</ele>
        <time>2018-11-18T09:14:10Z</time>
      </trkpt>
      <trkpt lat="43.29943" lon="5.92932">
        <ele>578.296875</ele>
        <time>2018-11-18T09:14:27Z</time>
      </trkpt>
      <trkpt lat="43.29944" lon="5.92932">
        <ele>578.59765625</ele>
        <time>2018-11-18T09:14:28Z</time>
      </trkpt>
      <trkpt lat="43.29946" lon="5.92931">
        <ele>578.84765625</ele>
        <time>2018-11-18T09:14:29Z</time>
      </trkpt>
      <trkpt lat="43.29947" lon="5.92931">
        <ele>579.109375</ele>
        <time>2018-11-18T09:14:30Z</time>
      </trkpt>
      <trkpt lat="43.29948" lon="5.9293">
        <ele>579.47265625</ele>
        <time>2018-11-18T09:14:31Z</time>
      </trkpt>
      <trkpt lat="43.29958" lon="5.92928">
        <ele>582.265625</ele>
        <time>2018-11-18T09:14:44Z</time>
      </trkpt>
      <trkpt lat="43.29966" lon="5.92924">
        <ele>584.3125</ele>
        <time>2018-11-18T09:14:58Z</time>
      </trkpt>
      <trkpt lat="43.29973" lon="5.92921">
        <ele>585.64453125</ele>
        <time>2018-11-18T09:15:05Z</time>
      </trkpt>
      <trkpt lat="43.29974" lon="5.92921">
        <ele>585.88671875</ele>
        <time>2018-11-18T09:15:06Z</time>
      </trkpt>
      <trkpt lat="43.29982" lon="5.92916">
        <ele>587.078125</ele>
        <time>2018-11-18T09:15:21Z</time>
      </trkpt>
      <trkpt lat="43.29994" lon="5.92912">
        <ele>589.83984375</ele>
        <time>2018-11-18T09:15:35Z</time>
      </trkpt>
      <trkpt lat="43.30008" lon="5.92907">
        <ele>592.65625</ele>
        <time>2018-11-18T09:15:51Z</time>
      </trkpt>
      <trkpt lat="43.30016" lon="5.92901">
        <ele>592.94921875</ele>
        <time>2018-11-18T09:16:06Z</time>
      </trkpt>
      <trkpt lat="43.30024" lon="5.92896">
        <ele>593.8046875</ele>
        <time>2018-11-18T09:16:19Z</time>
      </trkpt>
      <trkpt lat="43.30032" lon="5.92894">
        <ele>596.3125</ele>
        <time>2018-11-18T09:16:36Z</time>
      </trkpt>
      <trkpt lat="43.30033" lon="5.92896">
        <ele>597.2265625</ele>
        <time>2018-11-18T09:16:58Z</time>
      </trkpt>
      <trkpt lat="43.30034" lon="5.92896">
        <ele>597.890625</ele>
        <time>2018-11-18T09:17:29Z</time>
      </trkpt>
      <trkpt lat="43.30031" lon="5.92893">
        <ele>595.421875</ele>
        <time>2018-11-18T09:17:58Z</time>
      </trkpt>
      <trkpt lat="43.30032" lon="5.92891">
        <ele>594.65625</ele>
        <time>2018-11-18T09:18:25Z</time>
      </trkpt>
      <trkpt lat="43.30032" lon="5.9289">
        <ele>594.16015625</ele>
        <time>2018-11-18T09:18:54Z</time>
      </trkpt>
      <trkpt lat="43.3003" lon="5.92893">
        <ele>595.07421875</ele>
        <time>2018-11-18T09:19:16Z</time>
      </trkpt>
      <trkpt lat="43.3003" lon="5.92892">
        <ele>594.25390625</ele>
        <time>2018-11-18T09:19:45Z</time>
      </trkpt>
      <trkpt lat="43.30033" lon="5.92891">
        <ele>595.24609375</ele>
        <time>2018-11-18T09:20:09Z</time>
      </trkpt>
      <trkpt lat="43.30034" lon="5.9289">
        <ele>595.44921875</ele>
        <time>2018-11-18T09:20:10Z</time>
      </trkpt>
      <trkpt lat="43.30042" lon="5.92888">
        <ele>598.09375</ele>
        <time>2018-11-18T09:20:15Z</time>
      </trkpt>
      <trkpt lat="43.30043" lon="5.92888">
        <ele>598.71875</ele>
        <time>2018-11-18T09:20:16Z</time>
      </trkpt>
      <trkpt lat="43.30049" lon="5.92886">
        <ele>600.75</ele>
        <time>2018-11-18T09:20:20Z</time>
      </trkpt>
      <trkpt lat="43.3005" lon="5.92885">
        <ele>601.17578125</ele>
        <time>2018-11-18T09:20:21Z</time>
      </trkpt>
      <trkpt lat="43.30051" lon="5.92884">
        <ele>601.6875</ele>
        <time>2018-11-18T09:20:22Z</time>
      </trkpt>
      <trkpt lat="43.30053" lon="5.92884">
        <ele>602.140625</ele>
        <time>2018-11-18T09:20:23Z</time>
      </trkpt>
      <trkpt lat="43.30054" lon="5.92884">
        <ele>602.59375</ele>
        <time>2018-11-18T09:20:24Z</time>
      </trkpt>
      <trkpt lat="43.30056" lon="5.92883">
        <ele>603.1171875</ele>
        <time>2018-11-18T09:20:25Z</time>
      </trkpt>
      <trkpt lat="43.30057" lon="5.92882">
        <ele>603.63671875</ele>
        <time>2018-11-18T09:20:26Z</time>
      </trkpt>
      <trkpt lat="43.30071" lon="5.92874">
        <ele>607.921875</ele>
        <time>2018-11-18T09:20:36Z</time>
      </trkpt>
      <trkpt lat="43.30072" lon="5.92873">
        <ele>608.05859375</ele>
        <time>2018-11-18T09:20:37Z</time>
      </trkpt>
      <trkpt lat="43.30076" lon="5.92867">
        <ele>608.5234375</ele>
        <time>2018-11-18T09:20:42Z</time>
      </trkpt>
      <trkpt lat="43.30077" lon="5.92866">
        <ele>608.6953125</ele>
        <time>2018-11-18T09:20:43Z</time>
      </trkpt>
      <trkpt lat="43.30088" lon="5.92847">
        <ele>609.515625</ele>
        <time>2018-11-18T09:20:56Z</time>
      </trkpt>
      <trkpt lat="43.30089" lon="5.92845">
        <ele>609.46484375</ele>
        <time>2018-11-18T09:20:57Z</time>
      </trkpt>
      <trkpt lat="43.3009" lon="5.92844">
        <ele>609.47265625</ele>
        <time>2018-11-18T09:20:58Z</time>
      </trkpt>
      <trkpt lat="43.30091" lon="5.92842">
        <ele>609.58984375</ele>
        <time>2018-11-18T09:20:59Z</time>
      </trkpt>
      <trkpt lat="43.30091" lon="5.92841">
        <ele>609.62890625</ele>
        <time>2018-11-18T09:21:00Z</time>
      </trkpt>
      <trkpt lat="43.30092" lon="5.92839">
        <ele>609.52734375</ele>
        <time>2018-11-18T09:21:01Z</time>
      </trkpt>
      <trkpt lat="43.30093" lon="5.92837">
        <ele>609.53515625</ele>
        <time>2018-11-18T09:21:02Z</time>
      </trkpt>
      <trkpt lat="43.30094" lon="5.92836">
        <ele>609.51953125</ele>
        <time>2018-11-18T09:21:03Z</time>
      </trkpt>
      <trkpt lat="43.30094" lon="5.92834">
        <ele>609.41796875</ele>
        <time>2018-11-18T09:21:04Z</time>
      </trkpt>
      <trkpt lat="43.30095" lon="5.92832">
        <ele>609.2890625</ele>
        <time>2018-11-18T09:21:05Z</time>
      </trkpt>
      <trkpt lat="43.30101" lon="5.92807">
        <ele>608.7890625</ele>
        <time>2018-11-18T09:21:19Z</time>
      </trkpt>
      <trkpt lat="43.30104" lon="5.92771">
        <ele>604.828125</ele>
        <time>2018-11-18T09:21:34Z</time>
      </trkpt>
      <trkpt lat="43.30111" lon="5.92746">
        <ele>603.5625</ele>
        <time>2018-11-18T09:21:44Z</time>
      </trkpt>
      <trkpt lat="43.30112" lon="5.92744">
        <ele>603.67578125</ele>
        <time>2018-11-18T09:21:45Z</time>
      </trkpt>
      <trkpt lat="43.30113" lon="5.92742">
        <ele>603.9453125</ele>
        <time>2018-11-18T09:21:46Z</time>
      </trkpt>
      <trkpt lat="43.30114" lon="5.9274">
        <ele>604.33984375</ele>
        <time>2018-11-18T09:21:47Z</time>
      </trkpt>
      <trkpt lat="43.30115" lon="5.92738">
        <ele>604.67578125</ele>
        <time>2018-11-18T09:21:48Z</time>
      </trkpt>
      <trkpt lat="43.30116" lon="5.92737">
        <ele>604.95703125</ele>
        <time>2018-11-18T09:21:49Z</time>
      </trkpt>
      <trkpt lat="43.30117" lon="5.92735">
        <ele>605.14453125</ele>
        <time>2018-11-18T09:21:50Z</time>
      </trkpt>
      <trkpt lat="43.30118" lon="5.92734">
        <ele>605.328125</ele>
        <time>2018-11-18T09:21:51Z</time>
      </trkpt>
      <trkpt lat="43.3012" lon="5.92731">
        <ele>605.68359375</ele>
        <time>2018-11-18T09:21:53Z</time>
      </trkpt>
      <trkpt lat="43.30121" lon="5.9273">
        <ele>606.015625</ele>
        <time>2018-11-18T09:21:54Z</time>
      </trkpt>
      <trkpt lat="43.30122" lon="5.92729">
        <ele>606.234375</ele>
        <time>2018-11-18T09:21:55Z</time>
      </trkpt>
      <trkpt lat="43.30123" lon="5.92728">
        <ele>606.34765625</ele>
        <time>2018-11-18T09:21:56Z</time>
      </trkpt>
      <trkpt lat="43.30124" lon="5.92727">
        <ele>606.59375</ele>
        <time>2018-11-18T09:21:57Z</time>
      </trkpt>
      <trkpt lat="43.30125" lon="5.92726">
        <ele>606.96484375</ele>
        <time>2018-11-18T09:21:58Z</time>
      </trkpt>
      <trkpt lat="43.30127" lon="5.92726">
        <ele>607.3671875</ele>
        <time>2018-11-18T09:21:59Z</time>
      </trkpt>
      <trkpt lat="43.30133" lon="5.92721">
        <ele>608.6484375</ele>
        <time>2018-11-18T09:22:05Z</time>
      </trkpt>
      <trkpt lat="43.30133" lon="5.9272">
        <ele>608.640625</ele>
        <time>2018-11-18T09:22:06Z</time>
      </trkpt>
      <trkpt lat="43.30134" lon="5.92719">
        <ele>608.7734375</ele>
        <time>2018-11-18T09:22:07Z</time>
      </trkpt>
      <trkpt lat="43.30135" lon="5.92718">
        <ele>608.9140625</ele>
        <time>2018-11-18T09:22:08Z</time>
      </trkpt>
      <trkpt lat="43.30137" lon="5.92717">
        <ele>609.2421875</ele>
        <time>2018-11-18T09:22:09Z</time>
      </trkpt>
      <trkpt lat="43.30138" lon="5.92716">
        <ele>609.54296875</ele>
        <time>2018-11-18T09:22:10Z</time>
      </trkpt>
      <trkpt lat="43.3014" lon="5.92716">
        <ele>609.91015625</ele>
        <time>2018-11-18T09:22:11Z</time>
      </trkpt>
      <trkpt lat="43.30141" lon="5.92715">
        <ele>610.41796875</ele>
        <time>2018-11-18T09:22:12Z</time>
      </trkpt>
      <trkpt lat="43.30142" lon="5.92714">
        <ele>610.78515625</ele>
        <time>2018-11-18T09:22:13Z</time>
      </trkpt>
      <trkpt lat="43.30143" lon="5.92713">
        <ele>611.078125</ele>
        <time>2018-11-18T09:22:14Z</time>
      </trkpt>
      <trkpt lat="43.30144" lon="5.92711">
        <ele>611.2109375</ele>
        <time>2018-11-18T09:22:15Z</time>
      </trkpt>
      <trkpt lat="43.30145" lon="5.9271">
        <ele>611.46484375</ele>
        <time>2018-11-18T09:22:16Z</time>
      </trkpt>
      <trkpt lat="43.30146" lon="5.92709">
        <ele>611.66796875</ele>
        <time>2018-11-18T09:22:17Z</time>
      </trkpt>
      <trkpt lat="43.30148" lon="5.92707">
        <ele>611.921875</ele>
        <time>2018-11-18T09:22:18Z</time>
      </trkpt>
      <trkpt lat="43.30149" lon="5.92706">
        <ele>612.16015625</ele>
        <time>2018-11-18T09:22:19Z</time>
      </trkpt>
      <trkpt lat="43.3015" lon="5.92705">
        <ele>612.4140625</ele>
        <time>2018-11-18T09:22:20Z</time>
      </trkpt>
      <trkpt lat="43.3015" lon="5.92704">
        <ele>612.515625</ele>
        <time>2018-11-18T09:22:21Z</time>
      </trkpt>
      <trkpt lat="43.30151" lon="5.92702">
        <ele>612.5390625</ele>
        <time>2018-11-18T09:22:22Z</time>
      </trkpt>
      <trkpt lat="43.30152" lon="5.927">
        <ele>612.6171875</ele>
        <time>2018-11-18T09:22:23Z</time>
      </trkpt>
      <trkpt lat="43.30153" lon="5.92698">
        <ele>612.6796875</ele>
        <time>2018-11-18T09:22:24Z</time>
      </trkpt>
      <trkpt lat="43.30154" lon="5.92697">
        <ele>612.60546875</ele>
        <time>2018-11-18T09:22:25Z</time>
      </trkpt>
      <trkpt lat="43.30154" lon="5.92695">
        <ele>612.48828125</ele>
        <time>2018-11-18T09:22:26Z</time>
      </trkpt>
      <trkpt lat="43.30162" lon="5.92676">
        <ele>613.4296875</ele>
        <time>2018-11-18T09:22:37Z</time>
      </trkpt>
      <trkpt lat="43.30162" lon="5.92674">
        <ele>613.28515625</ele>
        <time>2018-11-18T09:22:38Z</time>
      </trkpt>
      <trkpt lat="43.30163" lon="5.92672">
        <ele>613.203125</ele>
        <time>2018-11-18T09:22:39Z</time>
      </trkpt>
      <trkpt lat="43.30163" lon="5.9267">
        <ele>613.12890625</ele>
        <time>2018-11-18T09:22:40Z</time>
      </trkpt>
      <trkpt lat="43.30164" lon="5.92668">
        <ele>613.16796875</ele>
        <time>2018-11-18T09:22:41Z</time>
      </trkpt>
      <trkpt lat="43.30167" lon="5.92664">
        <ele>613.67578125</ele>
        <time>2018-11-18T09:22:44Z</time>
      </trkpt>
      <trkpt lat="43.30168" lon="5.92663">
        <ele>614.0546875</ele>
        <time>2018-11-18T09:22:45Z</time>
      </trkpt>
      <trkpt lat="43.30169" lon="5.92662">
        <ele>614.3125</ele>
        <time>2018-11-18T09:22:46Z</time>
      </trkpt>
      <trkpt lat="43.30179" lon="5.92651">
        <ele>616.7421875</ele>
        <time>2018-11-18T09:22:56Z</time>
      </trkpt>
      <trkpt lat="43.3018" lon="5.9265">
        <ele>617.05859375</ele>
        <time>2018-11-18T09:22:57Z</time>
      </trkpt>
      <trkpt lat="43.30181" lon="5.92649">
        <ele>617.296875</ele>
        <time>2018-11-18T09:22:58Z</time>
      </trkpt>
      <trkpt lat="43.30182" lon="5.92647">
        <ele>617.51953125</ele>
        <time>2018-11-18T09:22:59Z</time>
      </trkpt>
      <trkpt lat="43.30183" lon="5.92646">
        <ele>617.59375</ele>
        <time>2018-11-18T09:23:00Z</time>
      </trkpt>
      <trkpt lat="43.30183" lon="5.92644">
        <ele>617.66796875</ele>
        <time>2018-11-18T09:23:01Z</time>
      </trkpt>
      <trkpt lat="43.30184" lon="5.92643">
        <ele>617.7890625</ele>
        <time>2018-11-18T09:23:02Z</time>
      </trkpt>
      <trkpt lat="43.30185" lon="5.92642">
        <ele>617.8125</ele>
        <time>2018-11-18T09:23:03Z</time>
      </trkpt>
      <trkpt lat="43.30186" lon="5.9264">
        <ele>617.91015625</ele>
        <time>2018-11-18T09:23:04Z</time>
      </trkpt>
      <trkpt lat="43.30187" lon="5.92639">
        <ele>617.984375</ele>
        <time>2018-11-18T09:23:05Z</time>
      </trkpt>
      <trkpt lat="43.30187" lon="5.92637">
        <ele>618.0078125</ele>
        <time>2018-11-18T09:23:06Z</time>
      </trkpt>
      <trkpt lat="43.30188" lon="5.92636">
        <ele>618.0078125</ele>
        <time>2018-11-18T09:23:07Z</time>
      </trkpt>
      <trkpt lat="43.30189" lon="5.92633">
        <ele>617.765625</ele>
        <time>2018-11-18T09:23:09Z</time>
      </trkpt>
      <trkpt lat="43.3019" lon="5.92631">
        <ele>617.68359375</ele>
        <time>2018-11-18T09:23:10Z</time>
      </trkpt>
      <trkpt lat="43.30191" lon="5.92627">
        <ele>617.203125</ele>
        <time>2018-11-18T09:23:13Z</time>
      </trkpt>
      <trkpt lat="43.30191" lon="5.92626">
        <ele>617.19140625</ele>
        <time>2018-11-18T09:23:14Z</time>
      </trkpt>
      <trkpt lat="43.30192" lon="5.92624">
        <ele>617.1640625</ele>
        <time>2018-11-18T09:23:15Z</time>
      </trkpt>
      <trkpt lat="43.30193" lon="5.92623">
        <ele>617.1171875</ele>
        <time>2018-11-18T09:23:16Z</time>
      </trkpt>
      <trkpt lat="43.30194" lon="5.92622">
        <ele>617.05859375</ele>
        <time>2018-11-18T09:23:17Z</time>
      </trkpt>
      <trkpt lat="43.30205" lon="5.92606">
        <ele>619.16015625</ele>
        <time>2018-11-18T09:23:30Z</time>
      </trkpt>
      <trkpt lat="43.30206" lon="5.92606">
        <ele>619.53515625</ele>
        <time>2018-11-18T09:23:31Z</time>
      </trkpt>
      <trkpt lat="43.30207" lon="5.92604">
        <ele>619.78515625</ele>
        <time>2018-11-18T09:23:32Z</time>
      </trkpt>
      <trkpt lat="43.30207" lon="5.92603">
        <ele>619.92578125</ele>
        <time>2018-11-18T09:23:33Z</time>
      </trkpt>
      <trkpt lat="43.30208" lon="5.92601">
        <ele>620.0390625</ele>
        <time>2018-11-18T09:23:34Z</time>
      </trkpt>
      <trkpt lat="43.30209" lon="5.92599">
        <ele>620.05859375</ele>
        <time>2018-11-18T09:23:35Z</time>
      </trkpt>
      <trkpt lat="43.30209" lon="5.92597">
        <ele>620.16015625</ele>
        <time>2018-11-18T09:23:36Z</time>
      </trkpt>
      <trkpt lat="43.3021" lon="5.92596">
        <ele>620.40234375</ele>
        <time>2018-11-18T09:23:37Z</time>
      </trkpt>
      <trkpt lat="43.30211" lon="5.92595">
        <ele>620.48046875</ele>
        <time>2018-11-18T09:23:38Z</time>
      </trkpt>
      <trkpt lat="43.30212" lon="5.9259">
        <ele>620.5703125</ele>
        <time>2018-11-18T09:23:42Z</time>
      </trkpt>
      <trkpt lat="43.30213" lon="5.92588">
        <ele>620.75390625</ele>
        <time>2018-11-18T09:23:43Z</time>
      </trkpt>
      <trkpt lat="43.30214" lon="5.92586">
        <ele>620.9296875</ele>
        <time>2018-11-18T09:23:44Z</time>
      </trkpt>
      <trkpt lat="43.30225" lon="5.92572">
        <ele>623.39453125</ele>
        <time>2018-11-18T09:23:57Z</time>
      </trkpt>
      <trkpt lat="43.30228" lon="5.92568">
        <ele>624.0859375</ele>
        <time>2018-11-18T09:24:00Z</time>
      </trkpt>
      <trkpt lat="43.30229" lon="5.92567">
        <ele>624.08203125</ele>
        <time>2018-11-18T09:24:01Z</time>
      </trkpt>
      <trkpt lat="43.3023" lon="5.92566">
        <ele>624.125</ele>
        <time>2018-11-18T09:24:02Z</time>
      </trkpt>
      <trkpt lat="43.30231" lon="5.92564">
        <ele>624.296875</ele>
        <time>2018-11-18T09:24:03Z</time>
      </trkpt>
      <trkpt lat="43.30231" lon="5.92563">
        <ele>624.3125</ele>
        <time>2018-11-18T09:24:04Z</time>
      </trkpt>
      <trkpt lat="43.30232" lon="5.92561">
        <ele>624.30078125</ele>
        <time>2018-11-18T09:24:05Z</time>
      </trkpt>
      <trkpt lat="43.30234" lon="5.92559">
        <ele>624.51953125</ele>
        <time>2018-11-18T09:24:06Z</time>
      </trkpt>
      <trkpt lat="43.30235" lon="5.92558">
        <ele>624.87890625</ele>
        <time>2018-11-18T09:24:07Z</time>
      </trkpt>
      <trkpt lat="43.30237" lon="5.92557">
        <ele>625.26171875</ele>
        <time>2018-11-18T09:24:08Z</time>
      </trkpt>
      <trkpt lat="43.30238" lon="5.92556">
        <ele>625.61328125</ele>
        <time>2018-11-18T09:24:09Z</time>
      </trkpt>
      <trkpt lat="43.30239" lon="5.92555">
        <ele>625.80859375</ele>
        <time>2018-11-18T09:24:10Z</time>
      </trkpt>
      <trkpt lat="43.3024" lon="5.92553">
        <ele>625.828125</ele>
        <time>2018-11-18T09:24:11Z</time>
      </trkpt>
      <trkpt lat="43.3024" lon="5.92551">
        <ele>625.7265625</ele>
        <time>2018-11-18T09:24:12Z</time>
      </trkpt>
      <trkpt lat="43.30241" lon="5.9255">
        <ele>625.72265625</ele>
        <time>2018-11-18T09:24:13Z</time>
      </trkpt>
      <trkpt lat="43.30242" lon="5.92548">
        <ele>625.87890625</ele>
        <time>2018-11-18T09:24:14Z</time>
      </trkpt>
      <trkpt lat="43.30243" lon="5.92548">
        <ele>626.12890625</ele>
        <time>2018-11-18T09:24:15Z</time>
      </trkpt>
      <trkpt lat="43.30257" lon="5.9253">
        <ele>628.45703125</ele>
        <time>2018-11-18T09:24:29Z</time>
      </trkpt>
      <trkpt lat="43.30269" lon="5.92501">
        <ele>628.09375</ele>
        <time>2018-11-18T09:24:44Z</time>
      </trkpt>
      <trkpt lat="43.30282" lon="5.9248">
        <ele>627.359375</ele>
        <time>2018-11-18T09:24:55Z</time>
      </trkpt>
      <trkpt lat="43.30283" lon="5.92478">
        <ele>627.265625</ele>
        <time>2018-11-18T09:24:56Z</time>
      </trkpt>
      <trkpt lat="43.30288" lon="5.92474">
        <ele>627.52734375</ele>
        <time>2018-11-18T09:24:59Z</time>
      </trkpt>
      <trkpt lat="43.3029" lon="5.92473">
        <ele>627.53125</ele>
        <time>2018-11-18T09:25:00Z</time>
      </trkpt>
      <trkpt lat="43.30291" lon="5.92471">
        <ele>627.69921875</ele>
        <time>2018-11-18T09:25:01Z</time>
      </trkpt>
      <trkpt lat="43.30294" lon="5.9247">
        <ele>627.95703125</ele>
        <time>2018-11-18T09:25:02Z</time>
      </trkpt>
      <trkpt lat="43.30295" lon="5.92468">
        <ele>628.0390625</ele>
        <time>2018-11-18T09:25:03Z</time>
      </trkpt>
      <trkpt lat="43.30297" lon="5.92466">
        <ele>628.01953125</ele>
        <time>2018-11-18T09:25:04Z</time>
      </trkpt>
      <trkpt lat="43.30299" lon="5.92465">
        <ele>628.1171875</ele>
        <time>2018-11-18T09:25:05Z</time>
      </trkpt>
      <trkpt lat="43.303" lon="5.92464">
        <ele>628.12109375</ele>
        <time>2018-11-18T09:25:06Z</time>
      </trkpt>
      <trkpt lat="43.30302" lon="5.92462">
        <ele>628.0625</ele>
        <time>2018-11-18T09:25:07Z</time>
      </trkpt>
      <trkpt lat="43.30304" lon="5.9246">
        <ele>628.08984375</ele>
        <time>2018-11-18T09:25:08Z</time>
      </trkpt>
      <trkpt lat="43.30305" lon="5.92459">
        <ele>628.078125</ele>
        <time>2018-11-18T09:25:09Z</time>
      </trkpt>
      <trkpt lat="43.30325" lon="5.92447">
        <ele>627.66796875</ele>
        <time>2018-11-18T09:25:23Z</time>
      </trkpt>
      <trkpt lat="43.30345" lon="5.92439">
        <ele>628.578125</ele>
        <time>2018-11-18T09:25:35Z</time>
      </trkpt>
      <trkpt lat="43.30367" lon="5.92436">
        <ele>630.99609375</ele>
        <time>2018-11-18T09:25:49Z</time>
      </trkpt>
      <trkpt lat="43.30369" lon="5.92437">
        <ele>631.53125</ele>
        <time>2018-11-18T09:25:50Z</time>
      </trkpt>
      <trkpt lat="43.3037" lon="5.92437">
        <ele>631.98828125</ele>
        <time>2018-11-18T09:25:51Z</time>
      </trkpt>
      <trkpt lat="43.30372" lon="5.92438">
        <ele>632.34765625</ele>
        <time>2018-11-18T09:25:52Z</time>
      </trkpt>
      <trkpt lat="43.30373" lon="5.92438">
        <ele>632.64453125</ele>
        <time>2018-11-18T09:25:53Z</time>
      </trkpt>
      <trkpt lat="43.30375" lon="5.92439">
        <ele>633.2109375</ele>
        <time>2018-11-18T09:26:06Z</time>
      </trkpt>
      <trkpt lat="43.30376" lon="5.92439">
        <ele>633.37890625</ele>
        <time>2018-11-18T09:26:30Z</time>
      </trkpt>
      <trkpt lat="43.30387" lon="5.92439">
        <ele>635.3984375</ele>
        <time>2018-11-18T09:26:45Z</time>
      </trkpt>
      <trkpt lat="43.30388" lon="5.92439">
        <ele>635.640625</ele>
        <time>2018-11-18T09:26:46Z</time>
      </trkpt>
      <trkpt lat="43.30389" lon="5.92439">
        <ele>635.796875</ele>
        <time>2018-11-18T09:26:47Z</time>
      </trkpt>
      <trkpt lat="43.30391" lon="5.92438">
        <ele>636.125</ele>
        <time>2018-11-18T09:26:48Z</time>
      </trkpt>
      <trkpt lat="43.30392" lon="5.92437">
        <ele>636.4453125</ele>
        <time>2018-11-18T09:26:49Z</time>
      </trkpt>
      <trkpt lat="43.30394" lon="5.92436">
        <ele>636.75</ele>
        <time>2018-11-18T09:26:50Z</time>
      </trkpt>
      <trkpt lat="43.30395" lon="5.92435">
        <ele>637.06640625</ele>
        <time>2018-11-18T09:26:51Z</time>
      </trkpt>
      <trkpt lat="43.30412" lon="5.92422">
        <ele>640.88671875</ele>
        <time>2018-11-18T09:27:05Z</time>
      </trkpt>
      <trkpt lat="43.30414" lon="5.92421">
        <ele>641.3828125</ele>
        <time>2018-11-18T09:27:06Z</time>
      </trkpt>
      <trkpt lat="43.30425" lon="5.92414">
        <ele>644.2734375</ele>
        <time>2018-11-18T09:27:14Z</time>
      </trkpt>
      <trkpt lat="43.30426" lon="5.92415">
        <ele>644.7578125</ele>
        <time>2018-11-18T09:27:15Z</time>
      </trkpt>
      <trkpt lat="43.30429" lon="5.92411">
        <ele>645.3203125</ele>
        <time>2018-11-18T09:27:25Z</time>
      </trkpt>
      <trkpt lat="43.30437" lon="5.92401">
        <ele>646.96484375</ele>
        <time>2018-11-18T09:27:40Z</time>
      </trkpt>
      <trkpt lat="43.30443" lon="5.92387">
        <ele>647.22265625</ele>
        <time>2018-11-18T09:27:55Z</time>
      </trkpt>
      <trkpt lat="43.30448" lon="5.92377">
        <ele>648.265625</ele>
        <time>2018-11-18T09:28:10Z</time>
      </trkpt>
      <trkpt lat="43.30448" lon="5.92377">
        <ele>648.20703125</ele>
        <time>2018-11-18T09:28:15Z</time>
      </trkpt>
      <trkpt lat="43.30448" lon="5.92377">
        <ele>648.2578125</ele>
        <time>2018-11-18T09:28:16Z</time>
      </trkpt>
      <trkpt lat="43.30448" lon="5.92377">
        <ele>648.28125</ele>
        <time>2018-11-18T09:28:17Z</time>
      </trkpt>
      <trkpt lat="43.30449" lon="5.92374">
        <ele>648.67578125</ele>
        <time>2018-11-18T09:28:23Z</time>
      </trkpt>
      <trkpt lat="43.3045" lon="5.92373">
        <ele>649.05859375</ele>
        <time>2018-11-18T09:28:24Z</time>
      </trkpt>
      <trkpt lat="43.30455" lon="5.92367">
        <ele>650.50390625</ele>
        <time>2018-11-18T09:28:29Z</time>
      </trkpt>
      <trkpt lat="43.3046" lon="5.92354">
        <ele>651.54296875</ele>
        <time>2018-11-18T09:28:37Z</time>
      </trkpt>
      <trkpt lat="43.30462" lon="5.92352">
        <ele>651.953125</ele>
        <time>2018-11-18T09:28:39Z</time>
      </trkpt>
      <trkpt lat="43.30463" lon="5.9235">
        <ele>652.01953125</ele>
        <time>2018-11-18T09:28:40Z</time>
      </trkpt>
      <trkpt lat="43.30463" lon="5.92349">
        <ele>651.99609375</ele>
        <time>2018-11-18T09:28:41Z</time>
      </trkpt>
      <trkpt lat="43.30464" lon="5.92347">
        <ele>651.984375</ele>
        <time>2018-11-18T09:28:42Z</time>
      </trkpt>
      <trkpt lat="43.30464" lon="5.92346">
        <ele>651.9453125</ele>
        <time>2018-11-18T09:28:43Z</time>
      </trkpt>
      <trkpt lat="43.30473" lon="5.92323">
        <ele>652.14453125</ele>
        <time>2018-11-18T09:28:58Z</time>
      </trkpt>
      <trkpt lat="43.30477" lon="5.92313">
        <ele>652.76953125</ele>
        <time>2018-11-18T09:29:03Z</time>
      </trkpt>
      <trkpt lat="43.30478" lon="5.92312">
        <ele>652.9296875</ele>
        <time>2018-11-18T09:29:04Z</time>
      </trkpt>
      <trkpt lat="43.30479" lon="5.92309">
        <ele>652.94921875</ele>
        <time>2018-11-18T09:29:06Z</time>
      </trkpt>
      <trkpt lat="43.3048" lon="5.92307">
        <ele>653.1484375</ele>
        <time>2018-11-18T09:29:07Z</time>
      </trkpt>
      <trkpt lat="43.30489" lon="5.92293">
        <ele>655.1484375</ele>
        <time>2018-11-18T09:29:18Z</time>
      </trkpt>
      <trkpt lat="43.30489" lon="5.92292">
        <ele>655.09375</ele>
        <time>2018-11-18T09:29:19Z</time>
      </trkpt>
      <trkpt lat="43.30491" lon="5.92288">
        <ele>655.546875</ele>
        <time>2018-11-18T09:29:22Z</time>
      </trkpt>
      <trkpt lat="43.30492" lon="5.92286">
        <ele>655.62890625</ele>
        <time>2018-11-18T09:29:23Z</time>
      </trkpt>
      <trkpt lat="43.30492" lon="5.92285">
        <ele>655.70703125</ele>
        <time>2018-11-18T09:29:24Z</time>
      </trkpt>
      <trkpt lat="43.30493" lon="5.92284">
        <ele>655.8515625</ele>
        <time>2018-11-18T09:29:25Z</time>
      </trkpt>
      <trkpt lat="43.30493" lon="5.92282">
        <ele>655.91015625</ele>
        <time>2018-11-18T09:29:26Z</time>
      </trkpt>
      <trkpt lat="43.30494" lon="5.92281">
        <ele>655.92578125</ele>
        <time>2018-11-18T09:29:27Z</time>
      </trkpt>
      <trkpt lat="43.30494" lon="5.92279">
        <ele>655.87890625</ele>
        <time>2018-11-18T09:29:28Z</time>
      </trkpt>
      <trkpt lat="43.30496" lon="5.92273">
        <ele>655.98828125</ele>
        <time>2018-11-18T09:29:32Z</time>
      </trkpt>
      <trkpt lat="43.30501" lon="5.92255">
        <ele>656.55078125</ele>
        <time>2018-11-18T09:29:42Z</time>
      </trkpt>
      <trkpt lat="43.30502" lon="5.92253">
        <ele>656.80859375</ele>
        <time>2018-11-18T09:29:43Z</time>
      </trkpt>
      <trkpt lat="43.30503" lon="5.92251">
        <ele>656.9375</ele>
        <time>2018-11-18T09:29:44Z</time>
      </trkpt>
      <trkpt lat="43.30503" lon="5.92249">
        <ele>657.08984375</ele>
        <time>2018-11-18T09:29:45Z</time>
      </trkpt>
      <trkpt lat="43.30504" lon="5.92247">
        <ele>657.31640625</ele>
        <time>2018-11-18T09:29:46Z</time>
      </trkpt>
      <trkpt lat="43.30505" lon="5.92245">
        <ele>657.56640625</ele>
        <time>2018-11-18T09:29:47Z</time>
      </trkpt>
      <trkpt lat="43.30505" lon="5.92243">
        <ele>657.67578125</ele>
        <time>2018-11-18T09:29:48Z</time>
      </trkpt>
      <trkpt lat="43.30506" lon="5.92241">
        <ele>657.73046875</ele>
        <time>2018-11-18T09:29:49Z</time>
      </trkpt>
      <trkpt lat="43.30507" lon="5.92239">
        <ele>658.00390625</ele>
        <time>2018-11-18T09:29:50Z</time>
      </trkpt>
      <trkpt lat="43.30508" lon="5.92237">
        <ele>658.3984375</ele>
        <time>2018-11-18T09:29:51Z</time>
      </trkpt>
      <trkpt lat="43.30516" lon="5.92212">
        <ele>659.36328125</ele>
        <time>2018-11-18T09:30:03Z</time>
      </trkpt>
      <trkpt lat="43.30517" lon="5.92209">
        <ele>659.4375</ele>
        <time>2018-11-18T09:30:04Z</time>
      </trkpt>
      <trkpt lat="43.30518" lon="5.92207">
        <ele>659.42578125</ele>
        <time>2018-11-18T09:30:05Z</time>
      </trkpt>
      <trkpt lat="43.30519" lon="5.92205">
        <ele>659.41015625</ele>
        <time>2018-11-18T09:30:06Z</time>
      </trkpt>
      <trkpt lat="43.30519" lon="5.92203">
        <ele>659.453125</ele>
        <time>2018-11-18T09:30:07Z</time>
      </trkpt>
      <trkpt lat="43.3052" lon="5.922">
        <ele>659.4921875</ele>
        <time>2018-11-18T09:30:08Z</time>
      </trkpt>
      <trkpt lat="43.30521" lon="5.92198">
        <ele>659.6015625</ele>
        <time>2018-11-18T09:30:09Z</time>
      </trkpt>
      <trkpt lat="43.30523" lon="5.92196">
        <ele>659.69921875</ele>
        <time>2018-11-18T09:30:10Z</time>
      </trkpt>
      <trkpt lat="43.30523" lon="5.92193">
        <ele>659.65234375</ele>
        <time>2018-11-18T09:30:11Z</time>
      </trkpt>
      <trkpt lat="43.30524" lon="5.9219">
        <ele>659.58984375</ele>
        <time>2018-11-18T09:30:12Z</time>
      </trkpt>
      <trkpt lat="43.30526" lon="5.92173">
        <ele>658.21484375</ele>
        <time>2018-11-18T09:30:20Z</time>
      </trkpt>
      <trkpt lat="43.30526" lon="5.92171">
        <ele>658.05859375</ele>
        <time>2018-11-18T09:30:21Z</time>
      </trkpt>
      <trkpt lat="43.30526" lon="5.92169">
        <ele>657.89453125</ele>
        <time>2018-11-18T09:30:22Z</time>
      </trkpt>
      <trkpt lat="43.30527" lon="5.92167">
        <ele>657.79296875</ele>
        <time>2018-11-18T09:30:23Z</time>
      </trkpt>
      <trkpt lat="43.30527" lon="5.92165">
        <ele>657.8125</ele>
        <time>2018-11-18T09:30:24Z</time>
      </trkpt>
      <trkpt lat="43.30529" lon="5.92155">
        <ele>657.9765625</ele>
        <time>2018-11-18T09:30:29Z</time>
      </trkpt>
      <trkpt lat="43.30529" lon="5.92154">
        <ele>657.83203125</ele>
        <time>2018-11-18T09:30:30Z</time>
      </trkpt>
      <trkpt lat="43.30528" lon="5.92152">
        <ele>657.69921875</ele>
        <time>2018-11-18T09:30:31Z</time>
      </trkpt>
      <trkpt lat="43.30528" lon="5.92146">
        <ele>657.2109375</ele>
        <time>2018-11-18T09:30:34Z</time>
      </trkpt>
      <trkpt lat="43.30528" lon="5.92144">
        <ele>657.14453125</ele>
        <time>2018-11-18T09:30:35Z</time>
      </trkpt>
      <trkpt lat="43.30528" lon="5.92141">
        <ele>657.046875</ele>
        <time>2018-11-18T09:30:36Z</time>
      </trkpt>
      <trkpt lat="43.30528" lon="5.92138">
        <ele>656.9921875</ele>
        <time>2018-11-18T09:30:37Z</time>
      </trkpt>
      <trkpt lat="43.30528" lon="5.92135">
        <ele>656.98828125</ele>
        <time>2018-11-18T09:30:38Z</time>
      </trkpt>
      <trkpt lat="43.30527" lon="5.92132">
        <ele>656.98046875</ele>
        <time>2018-11-18T09:30:39Z</time>
      </trkpt>
      <trkpt lat="43.30527" lon="5.92131">
        <ele>656.96484375</ele>
        <time>2018-11-18T09:30:40Z</time>
      </trkpt>
      <trkpt lat="43.30526" lon="5.92129">
        <ele>656.94921875</ele>
        <time>2018-11-18T09:30:41Z</time>
      </trkpt>
      <trkpt lat="43.30525" lon="5.92126">
        <ele>656.9453125</ele>
        <time>2018-11-18T09:30:42Z</time>
      </trkpt>
      <trkpt lat="43.30525" lon="5.92124">
        <ele>656.94921875</ele>
        <time>2018-11-18T09:30:43Z</time>
      </trkpt>
      <trkpt lat="43.30525" lon="5.92123">
        <ele>656.95703125</ele>
        <time>2018-11-18T09:30:44Z</time>
      </trkpt>
      <trkpt lat="43.30525" lon="5.92115">
        <ele>656.984375</ele>
        <time>2018-11-18T09:30:47Z</time>
      </trkpt>
      <trkpt lat="43.30525" lon="5.92113">
        <ele>656.99609375</ele>
        <time>2018-11-18T09:30:48Z</time>
      </trkpt>
      <trkpt lat="43.30525" lon="5.92103">
        <ele>657.0625</ele>
        <time>2018-11-18T09:30:53Z</time>
      </trkpt>
      <trkpt lat="43.30529" lon="5.92093">
        <ele>657.21484375</ele>
        <time>2018-11-18T09:30:59Z</time>
      </trkpt>
      <trkpt lat="43.3053" lon="5.92084">
        <ele>658.109375</ele>
        <time>2018-11-18T09:31:04Z</time>
      </trkpt>
      <trkpt lat="43.30531" lon="5.92083">
        <ele>658.75390625</ele>
        <time>2018-11-18T09:31:05Z</time>
      </trkpt>
      <trkpt lat="43.30532" lon="5.92081">
        <ele>659.3125</ele>
        <time>2018-11-18T09:31:06Z</time>
      </trkpt>
      <trkpt lat="43.30533" lon="5.92079">
        <ele>659.734375</ele>
        <time>2018-11-18T09:31:07Z</time>
      </trkpt>
      <trkpt lat="43.30534" lon="5.92077">
        <ele>660.15234375</ele>
        <time>2018-11-18T09:31:08Z</time>
      </trkpt>
      <trkpt lat="43.30534" lon="5.92075">
        <ele>660.65625</ele>
        <time>2018-11-18T09:31:09Z</time>
      </trkpt>
      <trkpt lat="43.30535" lon="5.92073">
        <ele>660.90625</ele>
        <time>2018-11-18T09:31:10Z</time>
      </trkpt>
      <trkpt lat="43.3054" lon="5.92066">
        <ele>663.65234375</ele>
        <time>2018-11-18T09:31:23Z</time>
      </trkpt>
      <trkpt lat="43.30537" lon="5.9205">
        <ele>663.10546875</ele>
        <time>2018-11-18T09:31:40Z</time>
      </trkpt>
      <trkpt lat="43.30533" lon="5.92036">
        <ele>661.6640625</ele>
        <time>2018-11-18T09:31:54Z</time>
      </trkpt>
      <trkpt lat="43.30529" lon="5.92022">
        <ele>660.7265625</ele>
        <time>2018-11-18T09:32:08Z</time>
      </trkpt>
      <trkpt lat="43.30528" lon="5.92011">
        <ele>661.34375</ele>
        <time>2018-11-18T09:32:22Z</time>
      </trkpt>
      <trkpt lat="43.30528" lon="5.92008">
        <ele>661.46484375</ele>
        <time>2018-11-18T09:32:25Z</time>
      </trkpt>
      <trkpt lat="43.30529" lon="5.92006">
        <ele>661.7109375</ele>
        <time>2018-11-18T09:32:26Z</time>
      </trkpt>
      <trkpt lat="43.30529" lon="5.92005">
        <ele>662.0234375</ele>
        <time>2018-11-18T09:32:27Z</time>
      </trkpt>
      <trkpt lat="43.3053" lon="5.92003">
        <ele>662.33203125</ele>
        <time>2018-11-18T09:32:28Z</time>
      </trkpt>
      <trkpt lat="43.3053" lon="5.92001">
        <ele>662.6328125</ele>
        <time>2018-11-18T09:32:29Z</time>
      </trkpt>
      <trkpt lat="43.30531" lon="5.91999">
        <ele>662.94921875</ele>
        <time>2018-11-18T09:32:30Z</time>
      </trkpt>
      <trkpt lat="43.30532" lon="5.91997">
        <ele>663.34375</ele>
        <time>2018-11-18T09:32:31Z</time>
      </trkpt>
      <trkpt lat="43.30533" lon="5.91994">
        <ele>663.87109375</ele>
        <time>2018-11-18T09:32:32Z</time>
      </trkpt>
      <trkpt lat="43.30534" lon="5.91992">
        <ele>664.3828125</ele>
        <time>2018-11-18T09:32:33Z</time>
      </trkpt>
      <trkpt lat="43.30535" lon="5.9199">
        <ele>664.765625</ele>
        <time>2018-11-18T09:32:34Z</time>
      </trkpt>
      <trkpt lat="43.30536" lon="5.91988">
        <ele>665.1640625</ele>
        <time>2018-11-18T09:32:35Z</time>
      </trkpt>
      <trkpt lat="43.30537" lon="5.91987">
        <ele>665.5625</ele>
        <time>2018-11-18T09:32:36Z</time>
      </trkpt>
      <trkpt lat="43.30539" lon="5.91985">
        <ele>666.078125</ele>
        <time>2018-11-18T09:32:37Z</time>
      </trkpt>
      <trkpt lat="43.3054" lon="5.91984">
        <ele>666.625</ele>
        <time>2018-11-18T09:32:38Z</time>
      </trkpt>
      <trkpt lat="43.30542" lon="5.91982">
        <ele>667.12890625</ele>
        <time>2018-11-18T09:32:39Z</time>
      </trkpt>
      <trkpt lat="43.30543" lon="5.9198">
        <ele>667.64453125</ele>
        <time>2018-11-18T09:32:40Z</time>
      </trkpt>
      <trkpt lat="43.30545" lon="5.91978">
        <ele>668.015625</ele>
        <time>2018-11-18T09:32:41Z</time>
      </trkpt>
      <trkpt lat="43.30546" lon="5.91976">
        <ele>668.38671875</ele>
        <time>2018-11-18T09:32:42Z</time>
      </trkpt>
      <trkpt lat="43.30555" lon="5.91948">
        <ele>670.81640625</ele>
        <time>2018-11-18T09:32:54Z</time>
      </trkpt>
      <trkpt lat="43.30558" lon="5.91939">
        <ele>671.4765625</ele>
        <time>2018-11-18T09:32:59Z</time>
      </trkpt>
      <trkpt lat="43.30559" lon="5.91935">
        <ele>671.5078125</ele>
        <time>2018-11-18T09:33:01Z</time>
      </trkpt>
      <trkpt lat="43.30559" lon="5.91933">
        <ele>671.5546875</ele>
        <time>2018-11-18T09:33:02Z</time>
      </trkpt>
      <trkpt lat="43.30559" lon="5.91931">
        <ele>671.5</ele>
        <time>2018-11-18T09:33:03Z</time>
      </trkpt>
      <trkpt lat="43.30559" lon="5.91929">
        <ele>671.4765625</ele>
        <time>2018-11-18T09:33:04Z</time>
      </trkpt>
      <trkpt lat="43.30559" lon="5.91928">
        <ele>671.484375</ele>
        <time>2018-11-18T09:33:05Z</time>
      </trkpt>
      <trkpt lat="43.30559" lon="5.91926">
        <ele>671.48828125</ele>
        <time>2018-11-18T09:33:06Z</time>
      </trkpt>
      <trkpt lat="43.3056" lon="5.91924">
        <ele>671.5078125</ele>
        <time>2018-11-18T09:33:07Z</time>
      </trkpt>
      <trkpt lat="43.3056" lon="5.91922">
        <ele>671.5390625</ele>
        <time>2018-11-18T09:33:08Z</time>
      </trkpt>
      <trkpt lat="43.30567" lon="5.91908">
        <ele>671.73828125</ele>
        <time>2018-11-18T09:33:21Z</time>
      </trkpt>
      <trkpt lat="43.30566" lon="5.91901">
        <ele>671.34765625</ele>
        <time>2018-11-18T09:33:34Z</time>
      </trkpt>
      <trkpt lat="43.30566" lon="5.91897">
        <ele>671.1328125</ele>
        <time>2018-11-18T09:33:43Z</time>
      </trkpt>
      <trkpt lat="43.30563" lon="5.91883">
        <ele>670.61328125</ele>
        <time>2018-11-18T09:33:57Z</time>
      </trkpt>
      <trkpt lat="43.3056" lon="5.91873">
        <ele>670.71875</ele>
        <time>2018-11-18T09:34:12Z</time>
      </trkpt>
      <trkpt lat="43.30557" lon="5.91857">
        <ele>671.15234375</ele>
        <time>2018-11-18T09:34:29Z</time>
      </trkpt>
      <trkpt lat="43.30556" lon="5.91852">
        <ele>671.3515625</ele>
        <time>2018-11-18T09:34:43Z</time>
      </trkpt>
      <trkpt lat="43.30557" lon="5.91849">
        <ele>671.421875</ele>
        <time>2018-11-18T09:34:45Z</time>
      </trkpt>
      <trkpt lat="43.30557" lon="5.91848">
        <ele>671.46484375</ele>
        <time>2018-11-18T09:34:46Z</time>
      </trkpt>
      <trkpt lat="43.30558" lon="5.91819">
        <ele>673.02734375</ele>
        <time>2018-11-18T09:35:04Z</time>
      </trkpt>
      <trkpt lat="43.30553" lon="5.91802">
        <ele>674.44140625</ele>
        <time>2018-11-18T09:35:15Z</time>
      </trkpt>
      <trkpt lat="43.30553" lon="5.918">
        <ele>674.5859375</ele>
        <time>2018-11-18T09:35:16Z</time>
      </trkpt>
      <trkpt lat="43.30553" lon="5.91798">
        <ele>674.73046875</ele>
        <time>2018-11-18T09:35:17Z</time>
      </trkpt>
      <trkpt lat="43.30553" lon="5.91796">
        <ele>674.8671875</ele>
        <time>2018-11-18T09:35:18Z</time>
      </trkpt>
      <trkpt lat="43.30552" lon="5.91795">
        <ele>675.0078125</ele>
        <time>2018-11-18T09:35:19Z</time>
      </trkpt>
      <trkpt lat="43.30551" lon="5.91793">
        <ele>675.15234375</ele>
        <time>2018-11-18T09:35:20Z</time>
      </trkpt>
      <trkpt lat="43.30551" lon="5.91792">
        <ele>675.2890625</ele>
        <time>2018-11-18T09:35:21Z</time>
      </trkpt>
      <trkpt lat="43.30551" lon="5.9179">
        <ele>675.42578125</ele>
        <time>2018-11-18T09:35:22Z</time>
      </trkpt>
      <trkpt lat="43.30551" lon="5.91789">
        <ele>675.546875</ele>
        <time>2018-11-18T09:35:23Z</time>
      </trkpt>
      <trkpt lat="43.30551" lon="5.91787">
        <ele>675.6953125</ele>
        <time>2018-11-18T09:35:24Z</time>
      </trkpt>
      <trkpt lat="43.30551" lon="5.91785">
        <ele>675.79296875</ele>
        <time>2018-11-18T09:35:25Z</time>
      </trkpt>
      <trkpt lat="43.30552" lon="5.91783">
        <ele>675.88671875</ele>
        <time>2018-11-18T09:35:26Z</time>
      </trkpt>
      <trkpt lat="43.30553" lon="5.91782">
        <ele>675.97265625</ele>
        <time>2018-11-18T09:35:27Z</time>
      </trkpt>
      <trkpt lat="43.30553" lon="5.9178">
        <ele>676.01171875</ele>
        <time>2018-11-18T09:35:28Z</time>
      </trkpt>
      <trkpt lat="43.30554" lon="5.91779">
        <ele>676.03515625</ele>
        <time>2018-11-18T09:35:29Z</time>
      </trkpt>
      <trkpt lat="43.30556" lon="5.91778">
        <ele>676.01171875</ele>
        <time>2018-11-18T09:35:30Z</time>
      </trkpt>
      <trkpt lat="43.30557" lon="5.91778">
        <ele>676</ele>
        <time>2018-11-18T09:35:31Z</time>
      </trkpt>
      <trkpt lat="43.30558" lon="5.91777">
        <ele>676.015625</ele>
        <time>2018-11-18T09:35:32Z</time>
      </trkpt>
      <trkpt lat="43.3056" lon="5.91777">
        <ele>675.9296875</ele>
        <time>2018-11-18T09:35:34Z</time>
      </trkpt>
      <trkpt lat="43.30561" lon="5.91777">
        <ele>675.95703125</ele>
        <time>2018-11-18T09:35:35Z</time>
      </trkpt>
      <trkpt lat="43.30583" lon="5.91772">
        <ele>675.51171875</ele>
        <time>2018-11-18T09:35:47Z</time>
      </trkpt>
      <trkpt lat="43.30608" lon="5.91749">
        <ele>677.1171875</ele>
        <time>2018-11-18T09:35:58Z</time>
      </trkpt>
      <trkpt lat="43.30613" lon="5.91732">
        <ele>678.35546875</ele>
        <time>2018-11-18T09:36:05Z</time>
      </trkpt>
      <trkpt lat="43.30617" lon="5.91724">
        <ele>678.94921875</ele>
        <time>2018-11-18T09:36:09Z</time>
      </trkpt>
      <trkpt lat="43.30619" lon="5.91723">
        <ele>678.9921875</ele>
        <time>2018-11-18T09:36:10Z</time>
      </trkpt>
      <trkpt lat="43.30621" lon="5.91723">
        <ele>678.97265625</ele>
        <time>2018-11-18T09:36:11Z</time>
      </trkpt>
      <trkpt lat="43.30624" lon="5.91725">
        <ele>678.875</ele>
        <time>2018-11-18T09:36:12Z</time>
      </trkpt>
      <trkpt lat="43.30627" lon="5.91727">
        <ele>678.72265625</ele>
        <time>2018-11-18T09:36:13Z</time>
      </trkpt>
      <trkpt lat="43.30629" lon="5.91729">
        <ele>678.53515625</ele>
        <time>2018-11-18T09:36:14Z</time>
      </trkpt>
      <trkpt lat="43.30632" lon="5.91732">
        <ele>678.36328125</ele>
        <time>2018-11-18T09:36:15Z</time>
      </trkpt>
      <trkpt lat="43.30634" lon="5.91734">
        <ele>678.16796875</ele>
        <time>2018-11-18T09:36:16Z</time>
      </trkpt>
      <trkpt lat="43.30635" lon="5.91737">
        <ele>677.9609375</ele>
        <time>2018-11-18T09:36:17Z</time>
      </trkpt>
      <trkpt lat="43.30637" lon="5.9174">
        <ele>677.7578125</ele>
        <time>2018-11-18T09:36:18Z</time>
      </trkpt>
      <trkpt lat="43.30638" lon="5.91743">
        <ele>677.57421875</ele>
        <time>2018-11-18T09:36:19Z</time>
      </trkpt>
      <trkpt lat="43.30639" lon="5.91745">
        <ele>677.40625</ele>
        <time>2018-11-18T09:36:20Z</time>
      </trkpt>
      <trkpt lat="43.30641" lon="5.91747">
        <ele>677.20703125</ele>
        <time>2018-11-18T09:36:21Z</time>
      </trkpt>
      <trkpt lat="43.30642" lon="5.91749">
        <ele>677.046875</ele>
        <time>2018-11-18T09:36:22Z</time>
      </trkpt>
      <trkpt lat="43.30648" lon="5.91755">
        <ele>676.4453125</ele>
        <time>2018-11-18T09:36:27Z</time>
      </trkpt>
      <trkpt lat="43.30649" lon="5.91757">
        <ele>676.34375</ele>
        <time>2018-11-18T09:36:28Z</time>
      </trkpt>
      <trkpt lat="43.30651" lon="5.91758">
        <ele>676.27734375</ele>
        <time>2018-11-18T09:36:29Z</time>
      </trkpt>
      <trkpt lat="43.30652" lon="5.91759">
        <ele>676.22265625</ele>
        <time>2018-11-18T09:36:30Z</time>
      </trkpt>
      <trkpt lat="43.30654" lon="5.91759">
        <ele>676.171875</ele>
        <time>2018-11-18T09:36:31Z</time>
      </trkpt>
      <trkpt lat="43.30656" lon="5.9176">
        <ele>676.125</ele>
        <time>2018-11-18T09:36:32Z</time>
      </trkpt>
      <trkpt lat="43.30657" lon="5.9176">
        <ele>676.109375</ele>
        <time>2018-11-18T09:36:33Z</time>
      </trkpt>
      <trkpt lat="43.30659" lon="5.9176">
        <ele>676.09375</ele>
        <time>2018-11-18T09:36:34Z</time>
      </trkpt>
      <trkpt lat="43.3068" lon="5.91755">
        <ele>676.9765625</ele>
        <time>2018-11-18T09:36:44Z</time>
      </trkpt>
      <trkpt lat="43.30691" lon="5.91751">
        <ele>677.75390625</ele>
        <time>2018-11-18T09:36:46Z</time>
      </trkpt>
      <trkpt lat="43.30696" lon="5.91747">
        <ele>678.1640625</ele>
        <time>2018-11-18T09:36:47Z</time>
      </trkpt>
      <trkpt lat="43.30701" lon="5.91742">
        <ele>678.5234375</ele>
        <time>2018-11-18T09:36:48Z</time>
      </trkpt>
      <trkpt lat="43.30704" lon="5.91736">
        <ele>678.68359375</ele>
        <time>2018-11-18T09:36:49Z</time>
      </trkpt>
      <trkpt lat="43.30707" lon="5.9173">
        <ele>678.671875</ele>
        <time>2018-11-18T09:36:50Z</time>
      </trkpt>
      <trkpt lat="43.3071" lon="5.91723">
        <ele>678.5546875</ele>
        <time>2018-11-18T09:36:51Z</time>
      </trkpt>
      <trkpt lat="43.30727" lon="5.91688">
        <ele>678.1484375</ele>
        <time>2018-11-18T09:37:01Z</time>
      </trkpt>
      <trkpt lat="43.30728" lon="5.91686">
        <ele>678.1875</ele>
        <time>2018-11-18T09:37:02Z</time>
      </trkpt>
      <trkpt lat="43.30729" lon="5.91684">
        <ele>678.23828125</ele>
        <time>2018-11-18T09:37:03Z</time>
      </trkpt>
      <trkpt lat="43.3073" lon="5.91682">
        <ele>678.2734375</ele>
        <time>2018-11-18T09:37:04Z</time>
      </trkpt>
      <trkpt lat="43.30733" lon="5.9168">
        <ele>678.37890625</ele>
        <time>2018-11-18T09:37:15Z</time>
      </trkpt>
      <trkpt lat="43.30734" lon="5.9168">
        <ele>678.40234375</ele>
        <time>2018-11-18T09:37:43Z</time>
      </trkpt>
      <trkpt lat="43.30732" lon="5.91681">
        <ele>678.359375</ele>
        <time>2018-11-18T09:38:06Z</time>
      </trkpt>
      <trkpt lat="43.30733" lon="5.91675">
        <ele>678.3828125</ele>
        <time>2018-11-18T09:38:27Z</time>
      </trkpt>
      <trkpt lat="43.30733" lon="5.91676">
        <ele>678.36328125</ele>
        <time>2018-11-18T09:38:59Z</time>
      </trkpt>
      <trkpt lat="43.30732" lon="5.91676">
        <ele>678.3515625</ele>
        <time>2018-11-18T09:39:23Z</time>
      </trkpt>
      <trkpt lat="43.30738" lon="5.91669">
        <ele>678.5546875</ele>
        <time>2018-11-18T09:39:32Z</time>
      </trkpt>
      <trkpt lat="43.30738" lon="5.91666">
        <ele>678.58203125</ele>
        <time>2018-11-18T09:39:33Z</time>
      </trkpt>
      <trkpt lat="43.30739" lon="5.91664">
        <ele>678.640625</ele>
        <time>2018-11-18T09:39:34Z</time>
      </trkpt>
      <trkpt lat="43.30747" lon="5.91629">
        <ele>679.4140625</ele>
        <time>2018-11-18T09:39:49Z</time>
      </trkpt>
      <trkpt lat="43.30768" lon="5.91583">
        <ele>684.91015625</ele>
        <time>2018-11-18T09:40:04Z</time>
      </trkpt>
      <trkpt lat="43.30793" lon="5.91533">
        <ele>692.234375</ele>
        <time>2018-11-18T09:40:20Z</time>
      </trkpt>
      <trkpt lat="43.30819" lon="5.91492">
        <ele>694.11328125</ele>
        <time>2018-11-18T09:40:37Z</time>
      </trkpt>
      <trkpt lat="43.30844" lon="5.91469">
        <ele>694.25</ele>
        <time>2018-11-18T09:40:50Z</time>
      </trkpt>
      <trkpt lat="43.30862" lon="5.91461">
        <ele>696.08203125</ele>
        <time>2018-11-18T09:40:59Z</time>
      </trkpt>
      <trkpt lat="43.30864" lon="5.9146">
        <ele>696.25390625</ele>
        <time>2018-11-18T09:41:00Z</time>
      </trkpt>
      <trkpt lat="43.30865" lon="5.91459">
        <ele>696.4140625</ele>
        <time>2018-11-18T09:41:01Z</time>
      </trkpt>
      <trkpt lat="43.30878" lon="5.9146">
        <ele>697.76171875</ele>
        <time>2018-11-18T09:41:15Z</time>
      </trkpt>
      <trkpt lat="43.30888" lon="5.91464">
        <ele>698.8828125</ele>
        <time>2018-11-18T09:41:28Z</time>
      </trkpt>
      <trkpt lat="43.30895" lon="5.91468">
        <ele>699.83203125</ele>
        <time>2018-11-18T09:41:37Z</time>
      </trkpt>
      <trkpt lat="43.30905" lon="5.91469">
        <ele>701.2109375</ele>
        <time>2018-11-18T09:41:52Z</time>
      </trkpt>
      <trkpt lat="43.30912" lon="5.91467">
        <ele>702.140625</ele>
        <time>2018-11-18T09:42:06Z</time>
      </trkpt>
      <trkpt lat="43.30922" lon="5.91463">
        <ele>703.6171875</ele>
        <time>2018-11-18T09:42:20Z</time>
      </trkpt>
      <trkpt lat="43.30923" lon="5.91463">
        <ele>703.85546875</ele>
        <time>2018-11-18T09:42:22Z</time>
      </trkpt>
      <trkpt lat="43.30925" lon="5.91461">
        <ele>704.1484375</ele>
        <time>2018-11-18T09:42:24Z</time>
      </trkpt>
      <trkpt lat="43.30926" lon="5.91461">
        <ele>704.39453125</ele>
        <time>2018-11-18T09:42:25Z</time>
      </trkpt>
      <trkpt lat="43.30927" lon="5.9146">
        <ele>704.55078125</ele>
        <time>2018-11-18T09:42:26Z</time>
      </trkpt>
      <trkpt lat="43.30931" lon="5.91456">
        <ele>705.06640625</ele>
        <time>2018-11-18T09:42:30Z</time>
      </trkpt>
      <trkpt lat="43.30932" lon="5.91455">
        <ele>705.1875</ele>
        <time>2018-11-18T09:42:31Z</time>
      </trkpt>
      <trkpt lat="43.30938" lon="5.91447">
        <ele>705.9375</ele>
        <time>2018-11-18T09:42:37Z</time>
      </trkpt>
      <trkpt lat="43.30939" lon="5.91447">
        <ele>706.13671875</ele>
        <time>2018-11-18T09:42:38Z</time>
      </trkpt>
      <trkpt lat="43.3094" lon="5.91446">
        <ele>706.2890625</ele>
        <time>2018-11-18T09:42:39Z</time>
      </trkpt>
      <trkpt lat="43.30941" lon="5.91445">
        <ele>706.4453125</ele>
        <time>2018-11-18T09:42:40Z</time>
      </trkpt>
      <trkpt lat="43.30943" lon="5.91444">
        <ele>706.59375</ele>
        <time>2018-11-18T09:42:41Z</time>
      </trkpt>
      <trkpt lat="43.30944" lon="5.91443">
        <ele>706.68359375</ele>
        <time>2018-11-18T09:42:42Z</time>
      </trkpt>
      <trkpt lat="43.30945" lon="5.91442">
        <ele>706.75390625</ele>
        <time>2018-11-18T09:42:43Z</time>
      </trkpt>
      <trkpt lat="43.30945" lon="5.9144">
        <ele>707.05859375</ele>
        <time>2018-11-18T09:42:44Z</time>
      </trkpt>
      <trkpt lat="43.30946" lon="5.91439">
        <ele>707.23046875</ele>
        <time>2018-11-18T09:42:45Z</time>
      </trkpt>
      <trkpt lat="43.30947" lon="5.91437">
        <ele>707.34765625</ele>
        <time>2018-11-18T09:42:46Z</time>
      </trkpt>
      <trkpt lat="43.30948" lon="5.91436">
        <ele>707.609375</ele>
        <time>2018-11-18T09:42:47Z</time>
      </trkpt>
      <trkpt lat="43.30952" lon="5.91406">
        <ele>708.16015625</ele>
        <time>2018-11-18T09:43:02Z</time>
      </trkpt>
      <trkpt lat="43.30951" lon="5.914">
        <ele>707.65234375</ele>
        <time>2018-11-18T09:43:05Z</time>
      </trkpt>
      <trkpt lat="43.30951" lon="5.91398">
        <ele>707.46875</ele>
        <time>2018-11-18T09:43:06Z</time>
      </trkpt>
      <trkpt lat="43.3095" lon="5.91395">
        <ele>707.2265625</ele>
        <time>2018-11-18T09:43:07Z</time>
      </trkpt>
      <trkpt lat="43.3095" lon="5.91393">
        <ele>707.02734375</ele>
        <time>2018-11-18T09:43:08Z</time>
      </trkpt>
      <trkpt lat="43.30949" lon="5.91391">
        <ele>706.87890625</ele>
        <time>2018-11-18T09:43:09Z</time>
      </trkpt>
      <trkpt lat="43.30949" lon="5.9139">
        <ele>706.74609375</ele>
        <time>2018-11-18T09:43:10Z</time>
      </trkpt>
      <trkpt lat="43.30949" lon="5.91388">
        <ele>706.69921875</ele>
        <time>2018-11-18T09:43:11Z</time>
      </trkpt>
      <trkpt lat="43.30945" lon="5.91363">
        <ele>706.078125</ele>
        <time>2018-11-18T09:43:26Z</time>
      </trkpt>
      <trkpt lat="43.3094" lon="5.91352">
        <ele>706.80859375</ele>
        <time>2018-11-18T09:43:34Z</time>
      </trkpt>
      <trkpt lat="43.30939" lon="5.91351">
        <ele>706.9453125</ele>
        <time>2018-11-18T09:43:35Z</time>
      </trkpt>
      <trkpt lat="43.30939" lon="5.91348">
        <ele>707.15625</ele>
        <time>2018-11-18T09:43:37Z</time>
      </trkpt>
      <trkpt lat="43.30938" lon="5.91347">
        <ele>707.2421875</ele>
        <time>2018-11-18T09:43:38Z</time>
      </trkpt>
      <trkpt lat="43.30938" lon="5.91346">
        <ele>707.35546875</ele>
        <time>2018-11-18T09:43:39Z</time>
      </trkpt>
      <trkpt lat="43.30928" lon="5.91331">
        <ele>708.328125</ele>
        <time>2018-11-18T09:43:53Z</time>
      </trkpt>
      <trkpt lat="43.30924" lon="5.91325">
        <ele>709</ele>
        <time>2018-11-18T09:44:06Z</time>
      </trkpt>
      <trkpt lat="43.30918" lon="5.91314">
        <ele>710</ele>
        <time>2018-11-18T09:44:22Z</time>
      </trkpt>
      <trkpt lat="43.30915" lon="5.91307">
        <ele>710.91796875</ele>
        <time>2018-11-18T09:44:29Z</time>
      </trkpt>
      <trkpt lat="43.30915" lon="5.91304">
        <ele>711.33203125</ele>
        <time>2018-11-18T09:44:41Z</time>
      </trkpt>
      <trkpt lat="43.30908" lon="5.91295">
        <ele>712.55859375</ele>
        <time>2018-11-18T09:44:55Z</time>
      </trkpt>
      <trkpt lat="43.30904" lon="5.91285">
        <ele>713.4453125</ele>
        <time>2018-11-18T09:45:06Z</time>
      </trkpt>
      <trkpt lat="43.30896" lon="5.91275">
        <ele>713.88671875</ele>
        <time>2018-11-18T09:45:21Z</time>
      </trkpt>
      <trkpt lat="43.30886" lon="5.91261">
        <ele>715.26953125</ele>
        <time>2018-11-18T09:45:37Z</time>
      </trkpt>
      <trkpt lat="43.30885" lon="5.91257">
        <ele>715.78515625</ele>
        <time>2018-11-18T09:45:50Z</time>
      </trkpt>
      <trkpt lat="43.30887" lon="5.9125">
        <ele>716.37890625</ele>
        <time>2018-11-18T09:46:07Z</time>
      </trkpt>
      <trkpt lat="43.3089" lon="5.91244">
        <ele>717.04296875</ele>
        <time>2018-11-18T09:46:28Z</time>
      </trkpt>
      <trkpt lat="43.30893" lon="5.9123">
        <ele>719.28515625</ele>
        <time>2018-11-18T09:46:42Z</time>
      </trkpt>
      <trkpt lat="43.30894" lon="5.91221">
        <ele>720.69921875</ele>
        <time>2018-11-18T09:46:53Z</time>
      </trkpt>
      <trkpt lat="43.30894" lon="5.9122">
        <ele>720.96484375</ele>
        <time>2018-11-18T09:46:54Z</time>
      </trkpt>
      <trkpt lat="43.30893" lon="5.91218">
        <ele>721.20703125</ele>
        <time>2018-11-18T09:46:55Z</time>
      </trkpt>
      <trkpt lat="43.30893" lon="5.91216">
        <ele>721.51953125</ele>
        <time>2018-11-18T09:46:56Z</time>
      </trkpt>
      <trkpt lat="43.30893" lon="5.91214">
        <ele>721.83984375</ele>
        <time>2018-11-18T09:46:57Z</time>
      </trkpt>
      <trkpt lat="43.30893" lon="5.91213">
        <ele>722.140625</ele>
        <time>2018-11-18T09:46:58Z</time>
      </trkpt>
      <trkpt lat="43.30892" lon="5.91207">
        <ele>723.09375</ele>
        <time>2018-11-18T09:47:02Z</time>
      </trkpt>
      <trkpt lat="43.30892" lon="5.91205">
        <ele>723.38671875</ele>
        <time>2018-11-18T09:47:03Z</time>
      </trkpt>
      <trkpt lat="43.30893" lon="5.9119">
        <ele>726.328125</ele>
        <time>2018-11-18T09:47:18Z</time>
      </trkpt>
      <trkpt lat="43.30898" lon="5.91185">
        <ele>727.53125</ele>
        <time>2018-11-18T09:47:33Z</time>
      </trkpt>
      <trkpt lat="43.30904" lon="5.91183">
        <ele>728.30078125</ele>
        <time>2018-11-18T09:47:45Z</time>
      </trkpt>
      <trkpt lat="43.30911" lon="5.91185">
        <ele>728.453125</ele>
        <time>2018-11-18T09:48:00Z</time>
      </trkpt>
      <trkpt lat="43.30912" lon="5.91185">
        <ele>728.421875</ele>
        <time>2018-11-18T09:48:01Z</time>
      </trkpt>
      <trkpt lat="43.30924" lon="5.91189">
        <ele>728.90625</ele>
        <time>2018-11-18T09:48:17Z</time>
      </trkpt>
      <trkpt lat="43.30931" lon="5.91192">
        <ele>729.05859375</ele>
        <time>2018-11-18T09:48:30Z</time>
      </trkpt>
      <trkpt lat="43.30933" lon="5.91193">
        <ele>729.01171875</ele>
        <time>2018-11-18T09:48:34Z</time>
      </trkpt>
      <trkpt lat="43.30934" lon="5.91194">
        <ele>729.06640625</ele>
        <time>2018-11-18T09:48:35Z</time>
      </trkpt>
      <trkpt lat="43.30935" lon="5.91194">
        <ele>729.1796875</ele>
        <time>2018-11-18T09:48:36Z</time>
      </trkpt>
      <trkpt lat="43.30937" lon="5.91195">
        <ele>729.265625</ele>
        <time>2018-11-18T09:48:37Z</time>
      </trkpt>
      <trkpt lat="43.30948" lon="5.912">
        <ele>730.19921875</ele>
        <time>2018-11-18T09:48:48Z</time>
      </trkpt>
      <trkpt lat="43.30949" lon="5.912">
        <ele>730.4453125</ele>
        <time>2018-11-18T09:48:49Z</time>
      </trkpt>
      <trkpt lat="43.30955" lon="5.91201">
        <ele>731.52734375</ele>
        <time>2018-11-18T09:48:54Z</time>
      </trkpt>
      <trkpt lat="43.30957" lon="5.912">
        <ele>731.80859375</ele>
        <time>2018-11-18T09:48:55Z</time>
      </trkpt>
      <trkpt lat="43.30958" lon="5.912">
        <ele>732.04296875</ele>
        <time>2018-11-18T09:48:56Z</time>
      </trkpt>
      <trkpt lat="43.30965" lon="5.91197">
        <ele>733.65234375</ele>
        <time>2018-11-18T09:49:02Z</time>
      </trkpt>
      <trkpt lat="43.30967" lon="5.91196">
        <ele>733.921875</ele>
        <time>2018-11-18T09:49:03Z</time>
      </trkpt>
      <trkpt lat="43.30968" lon="5.91196">
        <ele>734.14453125</ele>
        <time>2018-11-18T09:49:04Z</time>
      </trkpt>
      <trkpt lat="43.30969" lon="5.91195">
        <ele>734.34375</ele>
        <time>2018-11-18T09:49:05Z</time>
      </trkpt>
      <trkpt lat="43.3098" lon="5.91182">
        <ele>737.2890625</ele>
        <time>2018-11-18T09:49:17Z</time>
      </trkpt>
      <trkpt lat="43.30981" lon="5.91181">
        <ele>737.453125</ele>
        <time>2018-11-18T09:49:18Z</time>
      </trkpt>
      <trkpt lat="43.30992" lon="5.91158">
        <ele>738.96875</ele>
        <time>2018-11-18T09:49:32Z</time>
      </trkpt>
      <trkpt lat="43.31001" lon="5.91139">
        <ele>739.12890625</ele>
        <time>2018-11-18T09:49:41Z</time>
      </trkpt>
      <trkpt lat="43.31002" lon="5.91139">
        <ele>739.26171875</ele>
        <time>2018-11-18T09:49:42Z</time>
      </trkpt>
      <trkpt lat="43.31004" lon="5.91137">
        <ele>739.3984375</ele>
        <time>2018-11-18T09:49:43Z</time>
      </trkpt>
      <trkpt lat="43.31005" lon="5.91136">
        <ele>739.5</ele>
        <time>2018-11-18T09:49:44Z</time>
      </trkpt>
      <trkpt lat="43.31006" lon="5.91135">
        <ele>739.5859375</ele>
        <time>2018-11-18T09:49:45Z</time>
      </trkpt>
      <trkpt lat="43.31007" lon="5.91134">
        <ele>739.7109375</ele>
        <time>2018-11-18T09:49:46Z</time>
      </trkpt>
      <trkpt lat="43.31009" lon="5.91133">
        <ele>739.859375</ele>
        <time>2018-11-18T09:49:47Z</time>
      </trkpt>
      <trkpt lat="43.3101" lon="5.91132">
        <ele>740.00390625</ele>
        <time>2018-11-18T09:49:48Z</time>
      </trkpt>
      <trkpt lat="43.31026" lon="5.91123">
        <ele>741.27734375</ele>
        <time>2018-11-18T09:49:59Z</time>
      </trkpt>
      <trkpt lat="43.3103" lon="5.91119">
        <ele>741.3671875</ele>
        <time>2018-11-18T09:50:11Z</time>
      </trkpt>
      <trkpt lat="43.31032" lon="5.91118">
        <ele>741.38671875</ele>
        <time>2018-11-18T09:50:33Z</time>
      </trkpt>
      <trkpt lat="43.3103" lon="5.91118">
        <ele>741.28515625</ele>
        <time>2018-11-18T09:50:54Z</time>
      </trkpt>
      <trkpt lat="43.3103" lon="5.9112">
        <ele>741.390625</ele>
        <time>2018-11-18T09:51:18Z</time>
      </trkpt>
      <trkpt lat="43.3103" lon="5.91114">
        <ele>741.171875</ele>
        <time>2018-11-18T09:51:51Z</time>
      </trkpt>
      <trkpt lat="43.31029" lon="5.91115">
        <ele>741.14453125</ele>
        <time>2018-11-18T09:52:04Z</time>
      </trkpt>
      <trkpt lat="43.31028" lon="5.91112">
        <ele>740.98828125</ele>
        <time>2018-11-18T09:52:30Z</time>
      </trkpt>
      <trkpt lat="43.31028" lon="5.91114">
        <ele>741.08984375</ele>
        <time>2018-11-18T09:52:50Z</time>
      </trkpt>
      <trkpt lat="43.31029" lon="5.91113">
        <ele>741.10546875</ele>
        <time>2018-11-18T09:53:14Z</time>
      </trkpt>
      <trkpt lat="43.3103" lon="5.91115">
        <ele>741.21875</ele>
        <time>2018-11-18T09:53:39Z</time>
      </trkpt>
      <trkpt lat="43.31035" lon="5.91116">
        <ele>741.46484375</ele>
        <time>2018-11-18T09:54:02Z</time>
      </trkpt>
      <trkpt lat="43.31047" lon="5.91112">
        <ele>741.69140625</ele>
        <time>2018-11-18T09:54:10Z</time>
      </trkpt>
      <trkpt lat="43.31049" lon="5.91112">
        <ele>741.7734375</ele>
        <time>2018-11-18T09:54:11Z</time>
      </trkpt>
      <trkpt lat="43.3108" lon="5.91118">
        <ele>743.1328125</ele>
        <time>2018-11-18T09:54:26Z</time>
      </trkpt>
      <trkpt lat="43.31091" lon="5.9112">
        <ele>742.98828125</ele>
        <time>2018-11-18T09:54:29Z</time>
      </trkpt>
      <trkpt lat="43.31118" lon="5.91146">
        <ele>742.46875</ele>
        <time>2018-11-18T09:54:40Z</time>
      </trkpt>
      <trkpt lat="43.31145" lon="5.91158">
        <ele>740.77734375</ele>
        <time>2018-11-18T09:54:50Z</time>
      </trkpt>
      <trkpt lat="43.31186" lon="5.91155">
        <ele>739.28515625</ele>
        <time>2018-11-18T09:55:00Z</time>
      </trkpt>
      <trkpt lat="43.31197" lon="5.91155">
        <ele>738.890625</ele>
        <time>2018-11-18T09:55:02Z</time>
      </trkpt>
      <trkpt lat="43.31206" lon="5.91156">
        <ele>738.390625</ele>
        <time>2018-11-18T09:55:04Z</time>
      </trkpt>
      <trkpt lat="43.31228" lon="5.91162">
        <ele>737.79296875</ele>
        <time>2018-11-18T09:55:08Z</time>
      </trkpt>
      <trkpt lat="43.31233" lon="5.91167">
        <ele>737.984375</ele>
        <time>2018-11-18T09:55:09Z</time>
      </trkpt>
      <trkpt lat="43.31237" lon="5.91175">
        <ele>738</ele>
        <time>2018-11-18T09:55:10Z</time>
      </trkpt>
      <trkpt lat="43.3124" lon="5.91184">
        <ele>738</ele>
        <time>2018-11-18T09:55:11Z</time>
      </trkpt>
      <trkpt lat="43.31242" lon="5.91193">
        <ele>738</ele>
        <time>2018-11-18T09:55:12Z</time>
      </trkpt>
      <trkpt lat="43.31242" lon="5.91201">
        <ele>738.19921875</ele>
        <time>2018-11-18T09:55:13Z</time>
      </trkpt>
      <trkpt lat="43.31242" lon="5.91209">
        <ele>738.48046875</ele>
        <time>2018-11-18T09:55:14Z</time>
      </trkpt>
      <trkpt lat="43.31241" lon="5.91216">
        <ele>738.73828125</ele>
        <time>2018-11-18T09:55:15Z</time>
      </trkpt>
      <trkpt lat="43.3124" lon="5.91223">
        <ele>738.98046875</ele>
        <time>2018-11-18T09:55:16Z</time>
      </trkpt>
      <trkpt lat="43.31245" lon="5.91258">
        <ele>739</ele>
        <time>2018-11-18T09:55:25Z</time>
      </trkpt>
      <trkpt lat="43.3126" lon="5.91286">
        <ele>739.59765625</ele>
        <time>2018-11-18T09:55:39Z</time>
      </trkpt>
      <trkpt lat="43.3126" lon="5.91287">
        <ele>739.6875</ele>
        <time>2018-11-18T09:55:40Z</time>
      </trkpt>
      <trkpt lat="43.31261" lon="5.91289">
        <ele>739.7734375</ele>
        <time>2018-11-18T09:55:41Z</time>
      </trkpt>
      <trkpt lat="43.31262" lon="5.9129">
        <ele>739.86328125</ele>
        <time>2018-11-18T09:55:42Z</time>
      </trkpt>
      <trkpt lat="43.31263" lon="5.91293">
        <ele>739.96484375</ele>
        <time>2018-11-18T09:55:43Z</time>
      </trkpt>
      <trkpt lat="43.31264" lon="5.91295">
        <ele>740.078125</ele>
        <time>2018-11-18T09:55:44Z</time>
      </trkpt>
      <trkpt lat="43.3127" lon="5.91342">
        <ele>741.9453125</ele>
        <time>2018-11-18T09:55:58Z</time>
      </trkpt>
      <trkpt lat="43.31261" lon="5.91393">
        <ele>742.99609375</ele>
        <time>2018-11-18T09:56:10Z</time>
      </trkpt>
      <trkpt lat="43.31248" lon="5.91444">
        <ele>744.94921875</ele>
        <time>2018-11-18T09:56:22Z</time>
      </trkpt>
      <trkpt lat="43.31254" lon="5.91475">
        <ele>747.25390625</ele>
        <time>2018-11-18T09:56:32Z</time>
      </trkpt>
      <trkpt lat="43.31255" lon="5.91498">
        <ele>749</ele>
        <time>2018-11-18T09:56:47Z</time>
      </trkpt>
      <trkpt lat="43.31255" lon="5.91508">
        <ele>749.65234375</ele>
        <time>2018-11-18T09:56:55Z</time>
      </trkpt>
      <trkpt lat="43.31255" lon="5.91526">
        <ele>750.85546875</ele>
        <time>2018-11-18T09:57:11Z</time>
      </trkpt>
      <trkpt lat="43.31254" lon="5.9154">
        <ele>751.47265625</ele>
        <time>2018-11-18T09:57:25Z</time>
      </trkpt>
      <trkpt lat="43.31252" lon="5.91554">
        <ele>751.95703125</ele>
        <time>2018-11-18T09:57:40Z</time>
      </trkpt>
      <trkpt lat="43.31251" lon="5.91556">
        <ele>752.0234375</ele>
        <time>2018-11-18T09:57:41Z</time>
      </trkpt>
      <trkpt lat="43.31251" lon="5.91564">
        <ele>752.3359375</ele>
        <time>2018-11-18T09:57:45Z</time>
      </trkpt>
      <trkpt lat="43.31252" lon="5.91566">
        <ele>752.41015625</ele>
        <time>2018-11-18T09:57:46Z</time>
      </trkpt>
      <trkpt lat="43.31252" lon="5.91569">
        <ele>752.4921875</ele>
        <time>2018-11-18T09:57:47Z</time>
      </trkpt>
      <trkpt lat="43.31254" lon="5.91591">
        <ele>753.03125</ele>
        <time>2018-11-18T09:57:58Z</time>
      </trkpt>
      <trkpt lat="43.31253" lon="5.91621">
        <ele>753.12890625</ele>
        <time>2018-11-18T09:58:14Z</time>
      </trkpt>
      <trkpt lat="43.31253" lon="5.91623">
        <ele>753.12890625</ele>
        <time>2018-11-18T09:58:15Z</time>
      </trkpt>
      <trkpt lat="43.31254" lon="5.91624">
        <ele>753.15234375</ele>
        <time>2018-11-18T09:58:16Z</time>
      </trkpt>
      <trkpt lat="43.31255" lon="5.91626">
        <ele>753.1953125</ele>
        <time>2018-11-18T09:58:17Z</time>
      </trkpt>
      <trkpt lat="43.31257" lon="5.91628">
        <ele>753.2421875</ele>
        <time>2018-11-18T09:58:18Z</time>
      </trkpt>
      <trkpt lat="43.31258" lon="5.91628">
        <ele>753.29296875</ele>
        <time>2018-11-18T09:58:19Z</time>
      </trkpt>
      <trkpt lat="43.31259" lon="5.9163">
        <ele>753.34375</ele>
        <time>2018-11-18T09:58:20Z</time>
      </trkpt>
      <trkpt lat="43.3126" lon="5.91636">
        <ele>753.37109375</ele>
        <time>2018-11-18T09:58:30Z</time>
      </trkpt>
      <trkpt lat="43.3126" lon="5.91647">
        <ele>753.3828125</ele>
        <time>2018-11-18T09:58:43Z</time>
      </trkpt>
      <trkpt lat="43.31257" lon="5.91655">
        <ele>753.265625</ele>
        <time>2018-11-18T09:58:54Z</time>
      </trkpt>
      <trkpt lat="43.31256" lon="5.91664">
        <ele>753.20703125</ele>
        <time>2018-11-18T09:59:07Z</time>
      </trkpt>
      <trkpt lat="43.31256" lon="5.9167">
        <ele>753.11328125</ele>
        <time>2018-11-18T09:59:10Z</time>
      </trkpt>
      <trkpt lat="43.31256" lon="5.91672">
        <ele>753.00390625</ele>
        <time>2018-11-18T09:59:11Z</time>
      </trkpt>
      <trkpt lat="43.31257" lon="5.91674">
        <ele>752.92578125</ele>
        <time>2018-11-18T09:59:12Z</time>
      </trkpt>
      <trkpt lat="43.31257" lon="5.91677">
        <ele>752.828125</ele>
        <time>2018-11-18T09:59:13Z</time>
      </trkpt>
      <trkpt lat="43.31258" lon="5.91679">
        <ele>752.71875</ele>
        <time>2018-11-18T09:59:14Z</time>
      </trkpt>
      <trkpt lat="43.31258" lon="5.91682">
        <ele>752.62109375</ele>
        <time>2018-11-18T09:59:15Z</time>
      </trkpt>
      <trkpt lat="43.31258" lon="5.91684">
        <ele>752.52734375</ele>
        <time>2018-11-18T09:59:16Z</time>
      </trkpt>
      <trkpt lat="43.31258" lon="5.91686">
        <ele>752.42578125</ele>
        <time>2018-11-18T09:59:17Z</time>
      </trkpt>
      <trkpt lat="43.31258" lon="5.91688">
        <ele>752.33203125</ele>
        <time>2018-11-18T09:59:18Z</time>
      </trkpt>
      <trkpt lat="43.31258" lon="5.9169">
        <ele>752.25</ele>
        <time>2018-11-18T09:59:19Z</time>
      </trkpt>
      <trkpt lat="43.31258" lon="5.91691">
        <ele>752.18359375</ele>
        <time>2018-11-18T09:59:20Z</time>
      </trkpt>
      <trkpt lat="43.31258" lon="5.91692">
        <ele>752.12109375</ele>
        <time>2018-11-18T09:59:21Z</time>
      </trkpt>
      <trkpt lat="43.31258" lon="5.91699">
        <ele>751.84375</ele>
        <time>2018-11-18T09:59:31Z</time>
      </trkpt>
      <trkpt lat="43.31258" lon="5.91699">
        <ele>751.83984375</ele>
        <time>2018-11-18T09:59:32Z</time>
      </trkpt>
      <trkpt lat="43.31258" lon="5.91701">
        <ele>751.80078125</ele>
        <time>2018-11-18T09:59:40Z</time>
      </trkpt>
      <trkpt lat="43.31257" lon="5.91702">
        <ele>751.7421875</ele>
        <time>2018-11-18T09:59:42Z</time>
      </trkpt>
      <trkpt lat="43.31257" lon="5.91702">
        <ele>751.73828125</ele>
        <time>2018-11-18T09:59:52Z</time>
      </trkpt>
      <trkpt lat="43.31257" lon="5.917">
        <ele>751.8046875</ele>
        <time>2018-11-18T10:00:07Z</time>
      </trkpt>
      <trkpt lat="43.31257" lon="5.917">
        <ele>751.8125</ele>
        <time>2018-11-18T10:00:10Z</time>
      </trkpt>
      <trkpt lat="43.31256" lon="5.91701">
        <ele>751.7890625</ele>
        <time>2018-11-18T10:00:26Z</time>
      </trkpt>
      <trkpt lat="43.31253" lon="5.91703">
        <ele>751.71875</ele>
        <time>2018-11-18T10:01:05Z</time>
      </trkpt>
      <trkpt lat="43.31255" lon="5.91705">
        <ele>751.6484375</ele>
        <time>2018-11-18T10:01:37Z</time>
      </trkpt>
      <trkpt lat="43.31255" lon="5.91702">
        <ele>751.74609375</ele>
        <time>2018-11-18T10:02:04Z</time>
      </trkpt>
      <trkpt lat="43.31255" lon="5.91702">
        <ele>751.734375</ele>
        <time>2018-11-18T10:02:38Z</time>
      </trkpt>
      <trkpt lat="43.31255" lon="5.91698">
        <ele>751.8828125</ele>
        <time>2018-11-18T10:03:15Z</time>
      </trkpt>
      <trkpt lat="43.31254" lon="5.91697">
        <ele>751.9296875</ele>
        <time>2018-11-18T10:03:50Z</time>
      </trkpt>
      <trkpt lat="43.31256" lon="5.91698">
        <ele>751.890625</ele>
        <time>2018-11-18T10:04:28Z</time>
      </trkpt>
      <trkpt lat="43.31254" lon="5.91701">
        <ele>751.796875</ele>
        <time>2018-11-18T10:05:02Z</time>
      </trkpt>
      <trkpt lat="43.31254" lon="5.91695">
        <ele>752</ele>
        <time>2018-11-18T10:05:34Z</time>
      </trkpt>
      <trkpt lat="43.31252" lon="5.91699">
        <ele>751.87109375</ele>
        <time>2018-11-18T10:06:03Z</time>
      </trkpt>
      <trkpt lat="43.31253" lon="5.91699">
        <ele>751.8515625</ele>
        <time>2018-11-18T10:06:28Z</time>
      </trkpt>
      <trkpt lat="43.31252" lon="5.91699">
        <ele>751.83984375</ele>
        <time>2018-11-18T10:06:59Z</time>
      </trkpt>
      <trkpt lat="43.31252" lon="5.91701">
        <ele>751.77734375</ele>
        <time>2018-11-18T10:07:22Z</time>
      </trkpt>
      <trkpt lat="43.31252" lon="5.91698">
        <ele>751.90234375</ele>
        <time>2018-11-18T10:07:48Z</time>
      </trkpt>
      <trkpt lat="43.31253" lon="5.91697">
        <ele>751.9375</ele>
        <time>2018-11-18T10:08:14Z</time>
      </trkpt>
      <trkpt lat="43.31253" lon="5.91699">
        <ele>751.87109375</ele>
        <time>2018-11-18T10:08:37Z</time>
      </trkpt>
      <trkpt lat="43.31255" lon="5.91701">
        <ele>751.796875</ele>
        <time>2018-11-18T10:09:00Z</time>
      </trkpt>
      <trkpt lat="43.31256" lon="5.91703">
        <ele>751.71484375</ele>
        <time>2018-11-18T10:09:14Z</time>
      </trkpt>
      <trkpt lat="43.31257" lon="5.91702">
        <ele>751.73828125</ele>
        <time>2018-11-18T10:09:36Z</time>
      </trkpt>
      <trkpt lat="43.31257" lon="5.91714">
        <ele>751.33203125</ele>
        <time>2018-11-18T10:09:47Z</time>
      </trkpt>
      <trkpt lat="43.31257" lon="5.91717">
        <ele>751.22265625</ele>
        <time>2018-11-18T10:09:48Z</time>
      </trkpt>
      <trkpt lat="43.31262" lon="5.91764">
        <ele>750.56640625</ele>
        <time>2018-11-18T10:09:59Z</time>
      </trkpt>
      <trkpt lat="43.31258" lon="5.91777">
        <ele>750.69140625</ele>
        <time>2018-11-18T10:10:02Z</time>
      </trkpt>
      <trkpt lat="43.31259" lon="5.91781">
        <ele>750.7578125</ele>
        <time>2018-11-18T10:10:03Z</time>
      </trkpt>
      <trkpt lat="43.3126" lon="5.91785">
        <ele>750.8046875</ele>
        <time>2018-11-18T10:10:04Z</time>
      </trkpt>
      <trkpt lat="43.31261" lon="5.91789">
        <ele>750.8203125</ele>
        <time>2018-11-18T10:10:05Z</time>
      </trkpt>
      <trkpt lat="43.31262" lon="5.91793">
        <ele>750.83984375</ele>
        <time>2018-11-18T10:10:06Z</time>
      </trkpt>
      <trkpt lat="43.31264" lon="5.91797">
        <ele>750.8515625</ele>
        <time>2018-11-18T10:10:07Z</time>
      </trkpt>
      <trkpt lat="43.31264" lon="5.91802">
        <ele>750.8828125</ele>
        <time>2018-11-18T10:10:08Z</time>
      </trkpt>
      <trkpt lat="43.31265" lon="5.91806">
        <ele>750.94921875</ele>
        <time>2018-11-18T10:10:09Z</time>
      </trkpt>
      <trkpt lat="43.31265" lon="5.91826">
        <ele>752.0234375</ele>
        <time>2018-11-18T10:10:13Z</time>
      </trkpt>
      <trkpt lat="43.31265" lon="5.91863">
        <ele>753.5859375</ele>
        <time>2018-11-18T10:10:24Z</time>
      </trkpt>
      <trkpt lat="43.3126" lon="5.91894">
        <ele>755.96484375</ele>
        <time>2018-11-18T10:10:33Z</time>
      </trkpt>
      <trkpt lat="43.31263" lon="5.91924">
        <ele>757.99609375</ele>
        <time>2018-11-18T10:10:43Z</time>
      </trkpt>
      <trkpt lat="43.31264" lon="5.91927">
        <ele>758.17578125</ele>
        <time>2018-11-18T10:10:44Z</time>
      </trkpt>
      <trkpt lat="43.31264" lon="5.91929">
        <ele>758.3671875</ele>
        <time>2018-11-18T10:10:45Z</time>
      </trkpt>
      <trkpt lat="43.31263" lon="5.91932">
        <ele>758.56640625</ele>
        <time>2018-11-18T10:10:46Z</time>
      </trkpt>
      <trkpt lat="43.31263" lon="5.91934">
        <ele>758.75390625</ele>
        <time>2018-11-18T10:10:47Z</time>
      </trkpt>
      <trkpt lat="43.31263" lon="5.91937">
        <ele>758.93359375</ele>
        <time>2018-11-18T10:10:48Z</time>
      </trkpt>
      <trkpt lat="43.31263" lon="5.91939">
        <ele>759.09765625</ele>
        <time>2018-11-18T10:10:49Z</time>
      </trkpt>
      <trkpt lat="43.31262" lon="5.9194">
        <ele>759.234375</ele>
        <time>2018-11-18T10:10:50Z</time>
      </trkpt>
      <trkpt lat="43.31258" lon="5.9196">
        <ele>760.83984375</ele>
        <time>2018-11-18T10:11:03Z</time>
      </trkpt>
      <trkpt lat="43.31249" lon="5.91985">
        <ele>762.453125</ele>
        <time>2018-11-18T10:11:18Z</time>
      </trkpt>
      <trkpt lat="43.31236" lon="5.92013">
        <ele>763.21875</ele>
        <time>2018-11-18T10:11:32Z</time>
      </trkpt>
      <trkpt lat="43.31226" lon="5.92034">
        <ele>764.09375</ele>
        <time>2018-11-18T10:11:42Z</time>
      </trkpt>
      <trkpt lat="43.31222" lon="5.92054">
        <ele>764.92578125</ele>
        <time>2018-11-18T10:11:50Z</time>
      </trkpt>
      <trkpt lat="43.31222" lon="5.92056">
        <ele>765</ele>
        <time>2018-11-18T10:11:51Z</time>
      </trkpt>
      <trkpt lat="43.31221" lon="5.92058">
        <ele>765.0703125</ele>
        <time>2018-11-18T10:11:52Z</time>
      </trkpt>
      <trkpt lat="43.31221" lon="5.9206">
        <ele>765.15625</ele>
        <time>2018-11-18T10:11:53Z</time>
      </trkpt>
      <trkpt lat="43.31221" lon="5.92063">
        <ele>765.23046875</ele>
        <time>2018-11-18T10:11:54Z</time>
      </trkpt>
      <trkpt lat="43.31221" lon="5.92065">
        <ele>765.30859375</ele>
        <time>2018-11-18T10:11:55Z</time>
      </trkpt>
      <trkpt lat="43.31221" lon="5.92067">
        <ele>765.37890625</ele>
        <time>2018-11-18T10:11:56Z</time>
      </trkpt>
      <trkpt lat="43.31221" lon="5.92069">
        <ele>765.44921875</ele>
        <time>2018-11-18T10:11:57Z</time>
      </trkpt>
      <trkpt lat="43.31221" lon="5.92084">
        <ele>765.98046875</ele>
        <time>2018-11-18T10:12:03Z</time>
      </trkpt>
      <trkpt lat="43.31222" lon="5.92087">
        <ele>766.0859375</ele>
        <time>2018-11-18T10:12:04Z</time>
      </trkpt>
      <trkpt lat="43.31222" lon="5.92105">
        <ele>766.74609375</ele>
        <time>2018-11-18T10:12:10Z</time>
      </trkpt>
      <trkpt lat="43.31222" lon="5.92107">
        <ele>766.828125</ele>
        <time>2018-11-18T10:12:11Z</time>
      </trkpt>
      <trkpt lat="43.31211" lon="5.92134">
        <ele>766.51171875</ele>
        <time>2018-11-18T10:12:22Z</time>
      </trkpt>
      <trkpt lat="43.31202" lon="5.92164">
        <ele>766.2890625</ele>
        <time>2018-11-18T10:12:32Z</time>
      </trkpt>
      <trkpt lat="43.31181" lon="5.92191">
        <ele>765.53125</ele>
        <time>2018-11-18T10:12:44Z</time>
      </trkpt>
      <trkpt lat="43.31153" lon="5.92227">
        <ele>765.51171875</ele>
        <time>2018-11-18T10:12:58Z</time>
      </trkpt>
      <trkpt lat="43.31135" lon="5.92253">
        <ele>766.1484375</ele>
        <time>2018-11-18T10:13:10Z</time>
      </trkpt>
      <trkpt lat="43.31129" lon="5.92279">
        <ele>766.7109375</ele>
        <time>2018-11-18T10:13:21Z</time>
      </trkpt>
      <trkpt lat="43.3113" lon="5.92307">
        <ele>765.9453125</ele>
        <time>2018-11-18T10:13:34Z</time>
      </trkpt>
      <trkpt lat="43.31131" lon="5.92309">
        <ele>765.8671875</ele>
        <time>2018-11-18T10:13:35Z</time>
      </trkpt>
      <trkpt lat="43.31131" lon="5.92311">
        <ele>765.84375</ele>
        <time>2018-11-18T10:13:36Z</time>
      </trkpt>
      <trkpt lat="43.31132" lon="5.92315">
        <ele>765.73046875</ele>
        <time>2018-11-18T10:13:39Z</time>
      </trkpt>
      <trkpt lat="43.31133" lon="5.92319">
        <ele>765.59765625</ele>
        <time>2018-11-18T10:13:41Z</time>
      </trkpt>
      <trkpt lat="43.31134" lon="5.92321">
        <ele>765.53515625</ele>
        <time>2018-11-18T10:13:42Z</time>
      </trkpt>
      <trkpt lat="43.31134" lon="5.92324">
        <ele>765.47265625</ele>
        <time>2018-11-18T10:13:43Z</time>
      </trkpt>
      <trkpt lat="43.31135" lon="5.92328">
        <ele>765.45703125</ele>
        <time>2018-11-18T10:13:44Z</time>
      </trkpt>
      <trkpt lat="43.31134" lon="5.92331">
        <ele>765.49609375</ele>
        <time>2018-11-18T10:13:45Z</time>
      </trkpt>
      <trkpt lat="43.31134" lon="5.92334">
        <ele>765.5703125</ele>
        <time>2018-11-18T10:13:46Z</time>
      </trkpt>
      <trkpt lat="43.31133" lon="5.92337">
        <ele>765.61328125</ele>
        <time>2018-11-18T10:13:47Z</time>
      </trkpt>
      <trkpt lat="43.31128" lon="5.92376">
        <ele>765.65234375</ele>
        <time>2018-11-18T10:14:00Z</time>
      </trkpt>
      <trkpt lat="43.31114" lon="5.92395">
        <ele>766.734375</ele>
        <time>2018-11-18T10:14:12Z</time>
      </trkpt>
      <trkpt lat="43.31113" lon="5.92396">
        <ele>766.828125</ele>
        <time>2018-11-18T10:14:13Z</time>
      </trkpt>
      <trkpt lat="43.31102" lon="5.9242">
        <ele>767.5234375</ele>
        <time>2018-11-18T10:14:27Z</time>
      </trkpt>
      <trkpt lat="43.31089" lon="5.92423">
        <ele>768.53515625</ele>
        <time>2018-11-18T10:14:38Z</time>
      </trkpt>
      <trkpt lat="43.31088" lon="5.92423">
        <ele>768.62890625</ele>
        <time>2018-11-18T10:14:39Z</time>
      </trkpt>
      <trkpt lat="43.31086" lon="5.92424">
        <ele>768.734375</ele>
        <time>2018-11-18T10:14:40Z</time>
      </trkpt>
      <trkpt lat="43.31085" lon="5.92425">
        <ele>768.828125</ele>
        <time>2018-11-18T10:14:41Z</time>
      </trkpt>
      <trkpt lat="43.31084" lon="5.92426">
        <ele>768.9140625</ele>
        <time>2018-11-18T10:14:42Z</time>
      </trkpt>
      <trkpt lat="43.31077" lon="5.92429">
        <ele>769.3515625</ele>
        <time>2018-11-18T10:14:49Z</time>
      </trkpt>
      <trkpt lat="43.31062" lon="5.92455">
        <ele>768.97265625</ele>
        <time>2018-11-18T10:15:03Z</time>
      </trkpt>
      <trkpt lat="43.31053" lon="5.92478">
        <ele>767.8046875</ele>
        <time>2018-11-18T10:15:10Z</time>
      </trkpt>
      <trkpt lat="43.31044" lon="5.9249">
        <ele>767.375</ele>
        <time>2018-11-18T10:15:13Z</time>
      </trkpt>
      <trkpt lat="43.31023" lon="5.92514">
        <ele>766.40625</ele>
        <time>2018-11-18T10:15:18Z</time>
      </trkpt>
      <trkpt lat="43.31005" lon="5.92528">
        <ele>765.98046875</ele>
        <time>2018-11-18T10:15:29Z</time>
      </trkpt>
      <trkpt lat="43.31001" lon="5.92535">
        <ele>765.74609375</ele>
        <time>2018-11-18T10:15:41Z</time>
      </trkpt>
      <trkpt lat="43.31" lon="5.92537">
        <ele>765.67578125</ele>
        <time>2018-11-18T10:15:42Z</time>
      </trkpt>
      <trkpt lat="43.30999" lon="5.92539">
        <ele>765.5625</ele>
        <time>2018-11-18T10:15:43Z</time>
      </trkpt>
      <trkpt lat="43.30998" lon="5.92541">
        <ele>765.4296875</ele>
        <time>2018-11-18T10:15:44Z</time>
      </trkpt>
      <trkpt lat="43.30997" lon="5.92542">
        <ele>765.3046875</ele>
        <time>2018-11-18T10:15:45Z</time>
      </trkpt>
      <trkpt lat="43.30995" lon="5.92544">
        <ele>765.16015625</ele>
        <time>2018-11-18T10:15:46Z</time>
      </trkpt>
      <trkpt lat="43.30966" lon="5.92572">
        <ele>763.32421875</ele>
        <time>2018-11-18T10:15:56Z</time>
      </trkpt>
      <trkpt lat="43.30954" lon="5.92589">
        <ele>763</ele>
        <time>2018-11-18T10:16:00Z</time>
      </trkpt>
      <trkpt lat="43.30912" lon="5.92635">
        <ele>760.66796875</ele>
        <time>2018-11-18T10:16:13Z</time>
      </trkpt>
      <trkpt lat="43.30909" lon="5.9264">
        <ele>760.4140625</ele>
        <time>2018-11-18T10:16:14Z</time>
      </trkpt>
      <trkpt lat="43.30898" lon="5.92656">
        <ele>759.62109375</ele>
        <time>2018-11-18T10:16:17Z</time>
      </trkpt>
      <trkpt lat="43.30889" lon="5.92665">
        <ele>759.0078125</ele>
        <time>2018-11-18T10:16:19Z</time>
      </trkpt>
      <trkpt lat="43.30884" lon="5.92668">
        <ele>758.83203125</ele>
        <time>2018-11-18T10:16:20Z</time>
      </trkpt>
      <trkpt lat="43.3088" lon="5.9267">
        <ele>758.6640625</ele>
        <time>2018-11-18T10:16:21Z</time>
      </trkpt>
      <trkpt lat="43.30875" lon="5.92671">
        <ele>758.49609375</ele>
        <time>2018-11-18T10:16:22Z</time>
      </trkpt>
      <trkpt lat="43.3087" lon="5.92673">
        <ele>758.328125</ele>
        <time>2018-11-18T10:16:23Z</time>
      </trkpt>
      <trkpt lat="43.30866" lon="5.92675">
        <ele>758.15625</ele>
        <time>2018-11-18T10:16:24Z</time>
      </trkpt>
      <trkpt lat="43.30862" lon="5.92678">
        <ele>758.0078125</ele>
        <time>2018-11-18T10:16:25Z</time>
      </trkpt>
      <trkpt lat="43.30859" lon="5.92681">
        <ele>757.90234375</ele>
        <time>2018-11-18T10:16:26Z</time>
      </trkpt>
      <trkpt lat="43.30835" lon="5.92719">
        <ele>757.05859375</ele>
        <time>2018-11-18T10:16:36Z</time>
      </trkpt>
      <trkpt lat="43.30819" lon="5.92749">
        <ele>757.421875</ele>
        <time>2018-11-18T10:16:46Z</time>
      </trkpt>
      <trkpt lat="43.30813" lon="5.92766">
        <ele>757.26171875</ele>
        <time>2018-11-18T10:16:52Z</time>
      </trkpt>
      <trkpt lat="43.308" lon="5.92794">
        <ele>757.37890625</ele>
        <time>2018-11-18T10:17:03Z</time>
      </trkpt>
      <trkpt lat="43.30796" lon="5.92801">
        <ele>757.46484375</ele>
        <time>2018-11-18T10:17:06Z</time>
      </trkpt>
      <trkpt lat="43.30794" lon="5.92803">
        <ele>757.5</ele>
        <time>2018-11-18T10:17:07Z</time>
      </trkpt>
      <trkpt lat="43.30793" lon="5.92805">
        <ele>757.52734375</ele>
        <time>2018-11-18T10:17:08Z</time>
      </trkpt>
      <trkpt lat="43.30791" lon="5.92808">
        <ele>757.5546875</ele>
        <time>2018-11-18T10:17:09Z</time>
      </trkpt>
      <trkpt lat="43.3079" lon="5.92809">
        <ele>757.546875</ele>
        <time>2018-11-18T10:17:10Z</time>
      </trkpt>
      <trkpt lat="43.30788" lon="5.92811">
        <ele>757.54296875</ele>
        <time>2018-11-18T10:17:11Z</time>
      </trkpt>
      <trkpt lat="43.30786" lon="5.92813">
        <ele>757.5625</ele>
        <time>2018-11-18T10:17:12Z</time>
      </trkpt>
      <trkpt lat="43.30772" lon="5.92834">
        <ele>757.8125</ele>
        <time>2018-11-18T10:17:20Z</time>
      </trkpt>
      <trkpt lat="43.30771" lon="5.92835">
        <ele>757.82421875</ele>
        <time>2018-11-18T10:17:21Z</time>
      </trkpt>
      <trkpt lat="43.3077" lon="5.92837">
        <ele>757.83984375</ele>
        <time>2018-11-18T10:17:22Z</time>
      </trkpt>
      <trkpt lat="43.30764" lon="5.92846">
        <ele>757.93359375</ele>
        <time>2018-11-18T10:17:29Z</time>
      </trkpt>
      <trkpt lat="43.30759" lon="5.92863">
        <ele>758.41015625</ele>
        <time>2018-11-18T10:17:36Z</time>
      </trkpt>
      <trkpt lat="43.30758" lon="5.92866">
        <ele>758.453125</ele>
        <time>2018-11-18T10:17:37Z</time>
      </trkpt>
      <trkpt lat="43.30757" lon="5.92868">
        <ele>758.4921875</ele>
        <time>2018-11-18T10:17:38Z</time>
      </trkpt>
      <trkpt lat="43.30754" lon="5.92872">
        <ele>758.515625</ele>
        <time>2018-11-18T10:17:40Z</time>
      </trkpt>
      <trkpt lat="43.30752" lon="5.92873">
        <ele>758.5</ele>
        <time>2018-11-18T10:17:41Z</time>
      </trkpt>
      <trkpt lat="43.30751" lon="5.92874">
        <ele>758.484375</ele>
        <time>2018-11-18T10:17:42Z</time>
      </trkpt>
      <trkpt lat="43.30749" lon="5.92875">
        <ele>758.48828125</ele>
        <time>2018-11-18T10:17:43Z</time>
      </trkpt>
      <trkpt lat="43.30748" lon="5.92877">
        <ele>758.515625</ele>
        <time>2018-11-18T10:17:44Z</time>
      </trkpt>
      <trkpt lat="43.30747" lon="5.9288">
        <ele>758.55859375</ele>
        <time>2018-11-18T10:17:45Z</time>
      </trkpt>
      <trkpt lat="43.30729" lon="5.92903">
        <ele>759.26171875</ele>
        <time>2018-11-18T10:17:56Z</time>
      </trkpt>
      <trkpt lat="43.30704" lon="5.92936">
        <ele>760.49609375</ele>
        <time>2018-11-18T10:18:10Z</time>
      </trkpt>
      <trkpt lat="43.30683" lon="5.92967">
        <ele>762.609375</ele>
        <time>2018-11-18T10:18:23Z</time>
      </trkpt>
      <trkpt lat="43.30668" lon="5.9299">
        <ele>763.6328125</ele>
        <time>2018-11-18T10:18:33Z</time>
      </trkpt>
      <trkpt lat="43.30654" lon="5.93016">
        <ele>765.04296875</ele>
        <time>2018-11-18T10:18:47Z</time>
      </trkpt>
      <trkpt lat="43.30643" lon="5.93033">
        <ele>765.88671875</ele>
        <time>2018-11-18T10:18:59Z</time>
      </trkpt>
      <trkpt lat="43.30642" lon="5.93035">
        <ele>765.91796875</ele>
        <time>2018-11-18T10:19:00Z</time>
      </trkpt>
      <trkpt lat="43.30641" lon="5.93036">
        <ele>765.94921875</ele>
        <time>2018-11-18T10:19:01Z</time>
      </trkpt>
      <trkpt lat="43.30622" lon="5.93053">
        <ele>766.54296875</ele>
        <time>2018-11-18T10:19:16Z</time>
      </trkpt>
      <trkpt lat="43.30621" lon="5.93054">
        <ele>766.609375</ele>
        <time>2018-11-18T10:19:17Z</time>
      </trkpt>
      <trkpt lat="43.30603" lon="5.93071">
        <ele>767</ele>
        <time>2018-11-18T10:19:31Z</time>
      </trkpt>
      <trkpt lat="43.30594" lon="5.93076">
        <ele>767</ele>
        <time>2018-11-18T10:19:36Z</time>
      </trkpt>
      <trkpt lat="43.30593" lon="5.93078">
        <ele>767</ele>
        <time>2018-11-18T10:19:37Z</time>
      </trkpt>
      <trkpt lat="43.30591" lon="5.93079">
        <ele>767</ele>
        <time>2018-11-18T10:19:38Z</time>
      </trkpt>
      <trkpt lat="43.3059" lon="5.93081">
        <ele>767</ele>
        <time>2018-11-18T10:19:39Z</time>
      </trkpt>
      <trkpt lat="43.30589" lon="5.93082">
        <ele>767</ele>
        <time>2018-11-18T10:19:40Z</time>
      </trkpt>
      <trkpt lat="43.30588" lon="5.93084">
        <ele>767.046875</ele>
        <time>2018-11-18T10:19:41Z</time>
      </trkpt>
      <trkpt lat="43.30588" lon="5.93087">
        <ele>767.13671875</ele>
        <time>2018-11-18T10:19:42Z</time>
      </trkpt>
      <trkpt lat="43.30588" lon="5.93089">
        <ele>767.22265625</ele>
        <time>2018-11-18T10:19:43Z</time>
      </trkpt>
      <trkpt lat="43.30588" lon="5.93092">
        <ele>767.3046875</ele>
        <time>2018-11-18T10:19:44Z</time>
      </trkpt>
      <trkpt lat="43.30588" lon="5.93094">
        <ele>767.37890625</ele>
        <time>2018-11-18T10:19:45Z</time>
      </trkpt>
      <trkpt lat="43.30588" lon="5.93096">
        <ele>767.45703125</ele>
        <time>2018-11-18T10:19:46Z</time>
      </trkpt>
      <trkpt lat="43.30588" lon="5.93098">
        <ele>767.53125</ele>
        <time>2018-11-18T10:19:47Z</time>
      </trkpt>
      <trkpt lat="43.30588" lon="5.931">
        <ele>767.6015625</ele>
        <time>2018-11-18T10:19:48Z</time>
      </trkpt>
      <trkpt lat="43.30588" lon="5.93102">
        <ele>767.66796875</ele>
        <time>2018-11-18T10:19:49Z</time>
      </trkpt>
      <trkpt lat="43.30588" lon="5.93103">
        <ele>767.7265625</ele>
        <time>2018-11-18T10:19:50Z</time>
      </trkpt>
      <trkpt lat="43.30584" lon="5.93136">
        <ele>768</ele>
        <time>2018-11-18T10:20:05Z</time>
      </trkpt>
      <trkpt lat="43.30584" lon="5.93138">
        <ele>768</ele>
        <time>2018-11-18T10:20:06Z</time>
      </trkpt>
      <trkpt lat="43.30583" lon="5.93139">
        <ele>767.98046875</ele>
        <time>2018-11-18T10:20:07Z</time>
      </trkpt>
      <trkpt lat="43.30583" lon="5.93143">
        <ele>767.83984375</ele>
        <time>2018-11-18T10:20:10Z</time>
      </trkpt>
      <trkpt lat="43.30583" lon="5.93145">
        <ele>767.74609375</ele>
        <time>2018-11-18T10:20:11Z</time>
      </trkpt>
      <trkpt lat="43.3059" lon="5.93193">
        <ele>767.9609375</ele>
        <time>2018-11-18T10:20:21Z</time>
      </trkpt>
      <trkpt lat="43.30593" lon="5.93246">
        <ele>769.21875</ele>
        <time>2018-11-18T10:20:34Z</time>
      </trkpt>
      <trkpt lat="43.3059" lon="5.93288">
        <ele>770.08203125</ele>
        <time>2018-11-18T10:20:48Z</time>
      </trkpt>
      <trkpt lat="43.30587" lon="5.93305">
        <ele>770.10546875</ele>
        <time>2018-11-18T10:20:55Z</time>
      </trkpt>
      <trkpt lat="43.30587" lon="5.93308">
        <ele>770.1171875</ele>
        <time>2018-11-18T10:20:56Z</time>
      </trkpt>
      <trkpt lat="43.30587" lon="5.9331">
        <ele>770.125</ele>
        <time>2018-11-18T10:20:57Z</time>
      </trkpt>
      <trkpt lat="43.30587" lon="5.93311">
        <ele>770.13671875</ele>
        <time>2018-11-18T10:20:58Z</time>
      </trkpt>
      <trkpt lat="43.30588" lon="5.93313">
        <ele>770.16015625</ele>
        <time>2018-11-18T10:20:59Z</time>
      </trkpt>
      <trkpt lat="43.30589" lon="5.93315">
        <ele>770.18359375</ele>
        <time>2018-11-18T10:21:00Z</time>
      </trkpt>
      <trkpt lat="43.3059" lon="5.93316">
        <ele>770.21484375</ele>
        <time>2018-11-18T10:21:01Z</time>
      </trkpt>
      <trkpt lat="43.30591" lon="5.93318">
        <ele>770.24609375</ele>
        <time>2018-11-18T10:21:02Z</time>
      </trkpt>
      <trkpt lat="43.30591" lon="5.9332">
        <ele>770.27734375</ele>
        <time>2018-11-18T10:21:03Z</time>
      </trkpt>
      <trkpt lat="43.30592" lon="5.93322">
        <ele>770.3046875</ele>
        <time>2018-11-18T10:21:04Z</time>
      </trkpt>
      <trkpt lat="43.30593" lon="5.93324">
        <ele>770.328125</ele>
        <time>2018-11-18T10:21:05Z</time>
      </trkpt>
      <trkpt lat="43.30594" lon="5.93325">
        <ele>770.35546875</ele>
        <time>2018-11-18T10:21:06Z</time>
      </trkpt>
      <trkpt lat="43.30609" lon="5.93355">
        <ele>770.90234375</ele>
        <time>2018-11-18T10:21:20Z</time>
      </trkpt>
      <trkpt lat="43.30635" lon="5.93374">
        <ele>770.9375</ele>
        <time>2018-11-18T10:21:34Z</time>
      </trkpt>
      <trkpt lat="43.30646" lon="5.93395">
        <ele>771.484375</ele>
        <time>2018-11-18T10:21:43Z</time>
      </trkpt>
      <trkpt lat="43.30646" lon="5.93398">
        <ele>771.52734375</ele>
        <time>2018-11-18T10:21:44Z</time>
      </trkpt>
      <trkpt lat="43.30647" lon="5.93401">
        <ele>771.58984375</ele>
        <time>2018-11-18T10:21:45Z</time>
      </trkpt>
      <trkpt lat="43.30648" lon="5.93403">
        <ele>771.63671875</ele>
        <time>2018-11-18T10:21:46Z</time>
      </trkpt>
      <trkpt lat="43.30649" lon="5.93405">
        <ele>771.6875</ele>
        <time>2018-11-18T10:21:47Z</time>
      </trkpt>
      <trkpt lat="43.3065" lon="5.93408">
        <ele>771.75</ele>
        <time>2018-11-18T10:21:48Z</time>
      </trkpt>
      <trkpt lat="43.30651" lon="5.9341">
        <ele>771.82421875</ele>
        <time>2018-11-18T10:21:49Z</time>
      </trkpt>
      <trkpt lat="43.30652" lon="5.93412">
        <ele>771.89453125</ele>
        <time>2018-11-18T10:21:50Z</time>
      </trkpt>
      <trkpt lat="43.30652" lon="5.93415">
        <ele>771.9375</ele>
        <time>2018-11-18T10:21:51Z</time>
      </trkpt>
      <trkpt lat="43.30653" lon="5.93417">
        <ele>771.99609375</ele>
        <time>2018-11-18T10:21:52Z</time>
      </trkpt>
      <trkpt lat="43.30653" lon="5.9342">
        <ele>772.15625</ele>
        <time>2018-11-18T10:21:54Z</time>
      </trkpt>
      <trkpt lat="43.30653" lon="5.93422">
        <ele>772.19140625</ele>
        <time>2018-11-18T10:21:55Z</time>
      </trkpt>
      <trkpt lat="43.30652" lon="5.93425">
        <ele>772.1953125</ele>
        <time>2018-11-18T10:21:57Z</time>
      </trkpt>
      <trkpt lat="43.30647" lon="5.93437">
        <ele>772.33984375</ele>
        <time>2018-11-18T10:22:07Z</time>
      </trkpt>
      <trkpt lat="43.30647" lon="5.93445">
        <ele>772.56640625</ele>
        <time>2018-11-18T10:22:22Z</time>
      </trkpt>
      <trkpt lat="43.30642" lon="5.93457">
        <ele>772.20703125</ele>
        <time>2018-11-18T10:22:33Z</time>
      </trkpt>
      <trkpt lat="43.30638" lon="5.9347">
        <ele>771.94140625</ele>
        <time>2018-11-18T10:22:43Z</time>
      </trkpt>
      <trkpt lat="43.30639" lon="5.93469">
        <ele>772.0234375</ele>
        <time>2018-11-18T10:22:45Z</time>
      </trkpt>
      <trkpt lat="43.30645" lon="5.93449">
        <ele>772.453125</ele>
        <time>2018-11-18T10:22:59Z</time>
      </trkpt>
      <trkpt lat="43.30646" lon="5.93443">
        <ele>772.49609375</ele>
        <time>2018-11-18T10:23:03Z</time>
      </trkpt>
      <trkpt lat="43.30653" lon="5.93439">
        <ele>772.7890625</ele>
        <time>2018-11-18T10:23:12Z</time>
      </trkpt>
      <trkpt lat="43.30656" lon="5.93431">
        <ele>772.74609375</ele>
        <time>2018-11-18T10:23:27Z</time>
      </trkpt>
      <trkpt lat="43.3066" lon="5.93435">
        <ele>773.1796875</ele>
        <time>2018-11-18T10:23:36Z</time>
      </trkpt>
      <trkpt lat="43.30666" lon="5.93445">
        <ele>773.90625</ele>
        <time>2018-11-18T10:23:46Z</time>
      </trkpt>
      <trkpt lat="43.30683" lon="5.93456">
        <ele>774.24609375</ele>
        <time>2018-11-18T10:23:56Z</time>
      </trkpt>
      <trkpt lat="43.30698" lon="5.93459">
        <ele>774.64453125</ele>
        <time>2018-11-18T10:24:02Z</time>
      </trkpt>
      <trkpt lat="43.30732" lon="5.93478">
        <ele>775.87890625</ele>
        <time>2018-11-18T10:24:19Z</time>
      </trkpt>
      <trkpt lat="43.30764" lon="5.93494">
        <ele>775.40234375</ele>
        <time>2018-11-18T10:24:34Z</time>
      </trkpt>
      <trkpt lat="43.30791" lon="5.93513">
        <ele>775</ele>
        <time>2018-11-18T10:24:46Z</time>
      </trkpt>
      <trkpt lat="43.30791" lon="5.93544">
        <ele>775.8671875</ele>
        <time>2018-11-18T10:24:57Z</time>
      </trkpt>
      <trkpt lat="43.30799" lon="5.93593">
        <ele>774.59765625</ele>
        <time>2018-11-18T10:25:13Z</time>
      </trkpt>
      <trkpt lat="43.30819" lon="5.93626">
        <ele>772.2578125</ele>
        <time>2018-11-18T10:25:21Z</time>
      </trkpt>
      <trkpt lat="43.30826" lon="5.93643">
        <ele>771.546875</ele>
        <time>2018-11-18T10:25:24Z</time>
      </trkpt>
      <trkpt lat="43.30829" lon="5.93648">
        <ele>771.33203125</ele>
        <time>2018-11-18T10:25:25Z</time>
      </trkpt>
      <trkpt lat="43.30832" lon="5.93654">
        <ele>771.12109375</ele>
        <time>2018-11-18T10:25:26Z</time>
      </trkpt>
      <trkpt lat="43.30837" lon="5.93665">
        <ele>770.625</ele>
        <time>2018-11-18T10:25:28Z</time>
      </trkpt>
      <trkpt lat="43.30839" lon="5.93671">
        <ele>770.40234375</ele>
        <time>2018-11-18T10:25:29Z</time>
      </trkpt>
      <trkpt lat="43.30841" lon="5.93678">
        <ele>770.21875</ele>
        <time>2018-11-18T10:25:30Z</time>
      </trkpt>
      <trkpt lat="43.3085" lon="5.93715">
        <ele>768.15625</ele>
        <time>2018-11-18T10:25:35Z</time>
      </trkpt>
      <trkpt lat="43.30854" lon="5.9372">
        <ele>767.60546875</ele>
        <time>2018-11-18T10:25:36Z</time>
      </trkpt>
      <trkpt lat="43.30858" lon="5.93725">
        <ele>767.2109375</ele>
        <time>2018-11-18T10:25:37Z</time>
      </trkpt>
      <trkpt lat="43.30864" lon="5.93729">
        <ele>766.74609375</ele>
        <time>2018-11-18T10:25:38Z</time>
      </trkpt>
      <trkpt lat="43.30869" lon="5.93732">
        <ele>766.15234375</ele>
        <time>2018-11-18T10:25:39Z</time>
      </trkpt>
      <trkpt lat="43.30874" lon="5.93735">
        <ele>765.57421875</ele>
        <time>2018-11-18T10:25:40Z</time>
      </trkpt>
      <trkpt lat="43.3088" lon="5.9374">
        <ele>765.0234375</ele>
        <time>2018-11-18T10:25:41Z</time>
      </trkpt>
      <trkpt lat="43.30891" lon="5.93753">
        <ele>763.90625</ele>
        <time>2018-11-18T10:25:46Z</time>
      </trkpt>
      <trkpt lat="43.30891" lon="5.93756">
        <ele>763.97265625</ele>
        <time>2018-11-18T10:25:47Z</time>
      </trkpt>
      <trkpt lat="43.30892" lon="5.9376">
        <ele>764.08984375</ele>
        <time>2018-11-18T10:25:48Z</time>
      </trkpt>
      <trkpt lat="43.30891" lon="5.93764">
        <ele>764.26953125</ele>
        <time>2018-11-18T10:25:49Z</time>
      </trkpt>
      <trkpt lat="43.30891" lon="5.93768">
        <ele>764.46484375</ele>
        <time>2018-11-18T10:25:50Z</time>
      </trkpt>
      <trkpt lat="43.3089" lon="5.93771">
        <ele>764.66015625</ele>
        <time>2018-11-18T10:25:51Z</time>
      </trkpt>
      <trkpt lat="43.3089" lon="5.93776">
        <ele>764.83203125</ele>
        <time>2018-11-18T10:25:52Z</time>
      </trkpt>
      <trkpt lat="43.30893" lon="5.9382">
        <ele>764.54296875</ele>
        <time>2018-11-18T10:26:03Z</time>
      </trkpt>
      <trkpt lat="43.309" lon="5.93874">
        <ele>762.0546875</ele>
        <time>2018-11-18T10:26:14Z</time>
      </trkpt>
      <trkpt lat="43.30905" lon="5.93893">
        <ele>760.51171875</ele>
        <time>2018-11-18T10:26:17Z</time>
      </trkpt>
      <trkpt lat="43.30908" lon="5.93899">
        <ele>759.87890625</ele>
        <time>2018-11-18T10:26:18Z</time>
      </trkpt>
      <trkpt lat="43.30912" lon="5.93903">
        <ele>759.26171875</ele>
        <time>2018-11-18T10:26:19Z</time>
      </trkpt>
      <trkpt lat="43.30916" lon="5.93907">
        <ele>758.6875</ele>
        <time>2018-11-18T10:26:20Z</time>
      </trkpt>
      <trkpt lat="43.3092" lon="5.9391">
        <ele>758.00390625</ele>
        <time>2018-11-18T10:26:21Z</time>
      </trkpt>
      <trkpt lat="43.30924" lon="5.93912">
        <ele>757.40234375</ele>
        <time>2018-11-18T10:26:22Z</time>
      </trkpt>
      <trkpt lat="43.30928" lon="5.93914">
        <ele>756.83984375</ele>
        <time>2018-11-18T10:26:23Z</time>
      </trkpt>
      <trkpt lat="43.30932" lon="5.93918">
        <ele>756.2421875</ele>
        <time>2018-11-18T10:26:24Z</time>
      </trkpt>
      <trkpt lat="43.30935" lon="5.93922">
        <ele>755.58203125</ele>
        <time>2018-11-18T10:26:25Z</time>
      </trkpt>
      <trkpt lat="43.30937" lon="5.93928">
        <ele>754.91015625</ele>
        <time>2018-11-18T10:26:26Z</time>
      </trkpt>
      <trkpt lat="43.30939" lon="5.93934">
        <ele>754.26171875</ele>
        <time>2018-11-18T10:26:27Z</time>
      </trkpt>
      <trkpt lat="43.3094" lon="5.93941">
        <ele>753.7265625</ele>
        <time>2018-11-18T10:26:28Z</time>
      </trkpt>
      <trkpt lat="43.30939" lon="5.93947">
        <ele>753.3046875</ele>
        <time>2018-11-18T10:26:29Z</time>
      </trkpt>
      <trkpt lat="43.30938" lon="5.93953">
        <ele>753</ele>
        <time>2018-11-18T10:26:30Z</time>
      </trkpt>
      <trkpt lat="43.30936" lon="5.9396">
        <ele>752.71484375</ele>
        <time>2018-11-18T10:26:31Z</time>
      </trkpt>
      <trkpt lat="43.30935" lon="5.93967">
        <ele>752.32421875</ele>
        <time>2018-11-18T10:26:32Z</time>
      </trkpt>
      <trkpt lat="43.30935" lon="5.93975">
        <ele>751.87109375</ele>
        <time>2018-11-18T10:26:33Z</time>
      </trkpt>
      <trkpt lat="43.30935" lon="5.93983">
        <ele>751.453125</ele>
        <time>2018-11-18T10:26:34Z</time>
      </trkpt>
      <trkpt lat="43.30936" lon="5.93992">
        <ele>750.98046875</ele>
        <time>2018-11-18T10:26:35Z</time>
      </trkpt>
      <trkpt lat="43.30938" lon="5.94">
        <ele>750.46484375</ele>
        <time>2018-11-18T10:26:36Z</time>
      </trkpt>
      <trkpt lat="43.30939" lon="5.94007">
        <ele>749.79296875</ele>
        <time>2018-11-18T10:26:37Z</time>
      </trkpt>
      <trkpt lat="43.3094" lon="5.94015">
        <ele>749.18359375</ele>
        <time>2018-11-18T10:26:38Z</time>
      </trkpt>
      <trkpt lat="43.3094" lon="5.94023">
        <ele>748.6171875</ele>
        <time>2018-11-18T10:26:39Z</time>
      </trkpt>
      <trkpt lat="43.30939" lon="5.94032">
        <ele>748.09375</ele>
        <time>2018-11-18T10:26:40Z</time>
      </trkpt>
      <trkpt lat="43.30939" lon="5.94051">
        <ele>746.9140625</ele>
        <time>2018-11-18T10:26:42Z</time>
      </trkpt>
      <trkpt lat="43.30939" lon="5.94061">
        <ele>746.36328125</ele>
        <time>2018-11-18T10:26:43Z</time>
      </trkpt>
      <trkpt lat="43.3094" lon="5.94072">
        <ele>745.921875</ele>
        <time>2018-11-18T10:26:44Z</time>
      </trkpt>
      <trkpt lat="43.30941" lon="5.94082">
        <ele>745.40234375</ele>
        <time>2018-11-18T10:26:45Z</time>
      </trkpt>
      <trkpt lat="43.30943" lon="5.94092">
        <ele>744.453125</ele>
        <time>2018-11-18T10:26:46Z</time>
      </trkpt>
      <trkpt lat="43.30946" lon="5.94102">
        <ele>743.3984375</ele>
        <time>2018-11-18T10:26:47Z</time>
      </trkpt>
      <trkpt lat="43.3095" lon="5.94112">
        <ele>742.328125</ele>
        <time>2018-11-18T10:26:48Z</time>
      </trkpt>
      <trkpt lat="43.30955" lon="5.94121">
        <ele>741.51953125</ele>
        <time>2018-11-18T10:26:49Z</time>
      </trkpt>
      <trkpt lat="43.30967" lon="5.9415">
        <ele>739.078125</ele>
        <time>2018-11-18T10:26:52Z</time>
      </trkpt>
      <trkpt lat="43.30976" lon="5.94181">
        <ele>736.5390625</ele>
        <time>2018-11-18T10:26:55Z</time>
      </trkpt>
      <trkpt lat="43.30979" lon="5.94192">
        <ele>735.65625</ele>
        <time>2018-11-18T10:26:56Z</time>
      </trkpt>
      <trkpt lat="43.30984" lon="5.94224">
        <ele>733.51171875</ele>
        <time>2018-11-18T10:26:59Z</time>
      </trkpt>
      <trkpt lat="43.30995" lon="5.94257">
        <ele>730.88671875</ele>
        <time>2018-11-18T10:27:02Z</time>
      </trkpt>
      <trkpt lat="43.30997" lon="5.94268">
        <ele>729.96484375</ele>
        <time>2018-11-18T10:27:03Z</time>
      </trkpt>
      <trkpt lat="43.31001" lon="5.94299">
        <ele>728.08203125</ele>
        <time>2018-11-18T10:27:06Z</time>
      </trkpt>
      <trkpt lat="43.31004" lon="5.9431">
        <ele>727.3203125</ele>
        <time>2018-11-18T10:27:07Z</time>
      </trkpt>
      <trkpt lat="43.31008" lon="5.94319">
        <ele>726.37109375</ele>
        <time>2018-11-18T10:27:08Z</time>
      </trkpt>
      <trkpt lat="43.31011" lon="5.94328">
        <ele>725.5</ele>
        <time>2018-11-18T10:27:09Z</time>
      </trkpt>
      <trkpt lat="43.31014" lon="5.94335">
        <ele>724.90625</ele>
        <time>2018-11-18T10:27:10Z</time>
      </trkpt>
      <trkpt lat="43.31015" lon="5.94341">
        <ele>724.60546875</ele>
        <time>2018-11-18T10:27:11Z</time>
      </trkpt>
      <trkpt lat="43.31016" lon="5.94345">
        <ele>724.3828125</ele>
        <time>2018-11-18T10:27:12Z</time>
      </trkpt>
      <trkpt lat="43.31017" lon="5.94349">
        <ele>724.1875</ele>
        <time>2018-11-18T10:27:13Z</time>
      </trkpt>
      <trkpt lat="43.31024" lon="5.9436">
        <ele>723.28125</ele>
        <time>2018-11-18T10:27:16Z</time>
      </trkpt>
      <trkpt lat="43.31028" lon="5.94364">
        <ele>722.85546875</ele>
        <time>2018-11-18T10:27:17Z</time>
      </trkpt>
      <trkpt lat="43.31032" lon="5.94369">
        <ele>722.3984375</ele>
        <time>2018-11-18T10:27:18Z</time>
      </trkpt>
      <trkpt lat="43.31037" lon="5.94372">
        <ele>721.921875</ele>
        <time>2018-11-18T10:27:19Z</time>
      </trkpt>
      <trkpt lat="43.31042" lon="5.94374">
        <ele>721.5</ele>
        <time>2018-11-18T10:27:20Z</time>
      </trkpt>
      <trkpt lat="43.31046" lon="5.94375">
        <ele>721.15234375</ele>
        <time>2018-11-18T10:27:21Z</time>
      </trkpt>
      <trkpt lat="43.31051" lon="5.94376">
        <ele>720.77734375</ele>
        <time>2018-11-18T10:27:22Z</time>
      </trkpt>
      <trkpt lat="43.31056" lon="5.94379">
        <ele>720.3125</ele>
        <time>2018-11-18T10:27:23Z</time>
      </trkpt>
      <trkpt lat="43.31061" lon="5.94384">
        <ele>719.8203125</ele>
        <time>2018-11-18T10:27:24Z</time>
      </trkpt>
      <trkpt lat="43.31065" lon="5.9439">
        <ele>719.1875</ele>
        <time>2018-11-18T10:27:25Z</time>
      </trkpt>
      <trkpt lat="43.31068" lon="5.94397">
        <ele>718.41796875</ele>
        <time>2018-11-18T10:27:26Z</time>
      </trkpt>
      <trkpt lat="43.31071" lon="5.94405">
        <ele>717.64453125</ele>
        <time>2018-11-18T10:27:27Z</time>
      </trkpt>
      <trkpt lat="43.31079" lon="5.9443">
        <ele>715.80078125</ele>
        <time>2018-11-18T10:27:30Z</time>
      </trkpt>
      <trkpt lat="43.31082" lon="5.94447">
        <ele>714.8125</ele>
        <time>2018-11-18T10:27:32Z</time>
      </trkpt>
      <trkpt lat="43.31083" lon="5.94456">
        <ele>714.15234375</ele>
        <time>2018-11-18T10:27:33Z</time>
      </trkpt>
      <trkpt lat="43.31082" lon="5.94465">
        <ele>713.515625</ele>
        <time>2018-11-18T10:27:34Z</time>
      </trkpt>
      <trkpt lat="43.31082" lon="5.94474">
        <ele>712.91015625</ele>
        <time>2018-11-18T10:27:35Z</time>
      </trkpt>
      <trkpt lat="43.3108" lon="5.94483">
        <ele>712.390625</ele>
        <time>2018-11-18T10:27:36Z</time>
      </trkpt>
      <trkpt lat="43.31078" lon="5.94492">
        <ele>711.91015625</ele>
        <time>2018-11-18T10:27:37Z</time>
      </trkpt>
      <trkpt lat="43.31077" lon="5.945">
        <ele>711.375</ele>
        <time>2018-11-18T10:27:38Z</time>
      </trkpt>
      <trkpt lat="43.31077" lon="5.94509">
        <ele>710.73046875</ele>
        <time>2018-11-18T10:27:39Z</time>
      </trkpt>
      <trkpt lat="43.31086" lon="5.94546">
        <ele>707.39453125</ele>
        <time>2018-11-18T10:27:43Z</time>
      </trkpt>
      <trkpt lat="43.31093" lon="5.94565">
        <ele>705.55078125</ele>
        <time>2018-11-18T10:27:45Z</time>
      </trkpt>
      <trkpt lat="43.31095" lon="5.94575">
        <ele>704.66796875</ele>
        <time>2018-11-18T10:27:46Z</time>
      </trkpt>
      <trkpt lat="43.31096" lon="5.94585">
        <ele>703.87109375</ele>
        <time>2018-11-18T10:27:47Z</time>
      </trkpt>
      <trkpt lat="43.31098" lon="5.9462">
        <ele>701.04296875</ele>
        <time>2018-11-18T10:27:51Z</time>
      </trkpt>
      <trkpt lat="43.31097" lon="5.94626">
        <ele>700.51953125</ele>
        <time>2018-11-18T10:27:52Z</time>
      </trkpt>
      <trkpt lat="43.31095" lon="5.94633">
        <ele>700.01171875</ele>
        <time>2018-11-18T10:27:53Z</time>
      </trkpt>
      <trkpt lat="43.31091" lon="5.94639">
        <ele>699.66796875</ele>
        <time>2018-11-18T10:27:54Z</time>
      </trkpt>
      <trkpt lat="43.31088" lon="5.94643">
        <ele>699.61328125</ele>
        <time>2018-11-18T10:27:55Z</time>
      </trkpt>
      <trkpt lat="43.31085" lon="5.94648">
        <ele>699.57421875</ele>
        <time>2018-11-18T10:27:56Z</time>
      </trkpt>
      <trkpt lat="43.31083" lon="5.94652">
        <ele>699.5234375</ele>
        <time>2018-11-18T10:27:57Z</time>
      </trkpt>
      <trkpt lat="43.31082" lon="5.94657">
        <ele>699.38671875</ele>
        <time>2018-11-18T10:27:58Z</time>
      </trkpt>
      <trkpt lat="43.31082" lon="5.94663">
        <ele>699.15234375</ele>
        <time>2018-11-18T10:27:59Z</time>
      </trkpt>
      <trkpt lat="43.31083" lon="5.94669">
        <ele>698.7421875</ele>
        <time>2018-11-18T10:28:00Z</time>
      </trkpt>
      <trkpt lat="43.31086" lon="5.94675">
        <ele>698.15625</ele>
        <time>2018-11-18T10:28:01Z</time>
      </trkpt>
      <trkpt lat="43.31089" lon="5.94681">
        <ele>697.5703125</ele>
        <time>2018-11-18T10:28:02Z</time>
      </trkpt>
      <trkpt lat="43.31093" lon="5.94688">
        <ele>696.9921875</ele>
        <time>2018-11-18T10:28:03Z</time>
      </trkpt>
      <trkpt lat="43.31108" lon="5.94718">
        <ele>694.32421875</ele>
        <time>2018-11-18T10:28:07Z</time>
      </trkpt>
      <trkpt lat="43.31112" lon="5.94727">
        <ele>693.55859375</ele>
        <time>2018-11-18T10:28:08Z</time>
      </trkpt>
      <trkpt lat="43.31121" lon="5.94753">
        <ele>691.40234375</ele>
        <time>2018-11-18T10:28:11Z</time>
      </trkpt>
      <trkpt lat="43.31137" lon="5.94816">
        <ele>687.2734375</ele>
        <time>2018-11-18T10:28:17Z</time>
      </trkpt>
      <trkpt lat="43.31139" lon="5.94825">
        <ele>686.53125</ele>
        <time>2018-11-18T10:28:18Z</time>
      </trkpt>
      <trkpt lat="43.31139" lon="5.94833">
        <ele>685.92578125</ele>
        <time>2018-11-18T10:28:19Z</time>
      </trkpt>
      <trkpt lat="43.3114" lon="5.94842">
        <ele>685.578125</ele>
        <time>2018-11-18T10:28:20Z</time>
      </trkpt>
      <trkpt lat="43.31142" lon="5.9485">
        <ele>685.15625</ele>
        <time>2018-11-18T10:28:21Z</time>
      </trkpt>
      <trkpt lat="43.31145" lon="5.94857">
        <ele>684.69140625</ele>
        <time>2018-11-18T10:28:22Z</time>
      </trkpt>
      <trkpt lat="43.31148" lon="5.94863">
        <ele>684.0859375</ele>
        <time>2018-11-18T10:28:23Z</time>
      </trkpt>
      <trkpt lat="43.3115" lon="5.9487">
        <ele>683.44921875</ele>
        <time>2018-11-18T10:28:24Z</time>
      </trkpt>
      <trkpt lat="43.31151" lon="5.94875">
        <ele>683.00390625</ele>
        <time>2018-11-18T10:28:25Z</time>
      </trkpt>
      <trkpt lat="43.3115" lon="5.9488">
        <ele>682.69140625</ele>
        <time>2018-11-18T10:28:26Z</time>
      </trkpt>
      <trkpt lat="43.31148" lon="5.94886">
        <ele>682.4453125</ele>
        <time>2018-11-18T10:28:27Z</time>
      </trkpt>
      <trkpt lat="43.31145" lon="5.94891">
        <ele>682.41015625</ele>
        <time>2018-11-18T10:28:28Z</time>
      </trkpt>
      <trkpt lat="43.31142" lon="5.94895">
        <ele>682.48828125</ele>
        <time>2018-11-18T10:28:29Z</time>
      </trkpt>
      <trkpt lat="43.31139" lon="5.949">
        <ele>682.546875</ele>
        <time>2018-11-18T10:28:30Z</time>
      </trkpt>
      <trkpt lat="43.31136" lon="5.94906">
        <ele>682.44921875</ele>
        <time>2018-11-18T10:28:31Z</time>
      </trkpt>
      <trkpt lat="43.31134" lon="5.94912">
        <ele>682.3046875</ele>
        <time>2018-11-18T10:28:32Z</time>
      </trkpt>
      <trkpt lat="43.31131" lon="5.94919">
        <ele>682.09375</ele>
        <time>2018-11-18T10:28:33Z</time>
      </trkpt>
      <trkpt lat="43.31125" lon="5.94941">
        <ele>681.13671875</ele>
        <time>2018-11-18T10:28:36Z</time>
      </trkpt>
      <trkpt lat="43.31117" lon="5.9496">
        <ele>680.375</ele>
        <time>2018-11-18T10:28:39Z</time>
      </trkpt>
      <trkpt lat="43.31114" lon="5.94965">
        <ele>680.22265625</ele>
        <time>2018-11-18T10:28:40Z</time>
      </trkpt>
      <trkpt lat="43.31112" lon="5.94967">
        <ele>680.12109375</ele>
        <time>2018-11-18T10:28:41Z</time>
      </trkpt>
      <trkpt lat="43.31109" lon="5.94969">
        <ele>680.0625</ele>
        <time>2018-11-18T10:28:42Z</time>
      </trkpt>
      <trkpt lat="43.31105" lon="5.94971">
        <ele>679.99609375</ele>
        <time>2018-11-18T10:28:43Z</time>
      </trkpt>
      <trkpt lat="43.31089" lon="5.94973">
        <ele>679.8828125</ele>
        <time>2018-11-18T10:28:47Z</time>
      </trkpt>
      <trkpt lat="43.31079" lon="5.94975">
        <ele>679.84375</ele>
        <time>2018-11-18T10:28:49Z</time>
      </trkpt>
      <trkpt lat="43.31041" lon="5.9498">
        <ele>678.83203125</ele>
        <time>2018-11-18T10:28:58Z</time>
      </trkpt>
      <trkpt lat="43.31033" lon="5.94983">
        <ele>678.2734375</ele>
        <time>2018-11-18T10:29:00Z</time>
      </trkpt>
      <trkpt lat="43.31029" lon="5.94984">
        <ele>678.0546875</ele>
        <time>2018-11-18T10:29:01Z</time>
      </trkpt>
      <trkpt lat="43.31013" lon="5.94986">
        <ele>677.65625</ele>
        <time>2018-11-18T10:29:05Z</time>
      </trkpt>
      <trkpt lat="43.31009" lon="5.94987">
        <ele>677.57421875</ele>
        <time>2018-11-18T10:29:06Z</time>
      </trkpt>
      <trkpt lat="43.31005" lon="5.94986">
        <ele>677.52734375</ele>
        <time>2018-11-18T10:29:07Z</time>
      </trkpt>
      <trkpt lat="43.31001" lon="5.94986">
        <ele>677.48828125</ele>
        <time>2018-11-18T10:29:08Z</time>
      </trkpt>
      <trkpt lat="43.30985" lon="5.94984">
        <ele>676.99609375</ele>
        <time>2018-11-18T10:29:14Z</time>
      </trkpt>
      <trkpt lat="43.30969" lon="5.94964">
        <ele>677.47265625</ele>
        <time>2018-11-18T10:29:27Z</time>
      </trkpt>
      <trkpt lat="43.30955" lon="5.94958">
        <ele>677.640625</ele>
        <time>2018-11-18T10:29:34Z</time>
      </trkpt>
      <trkpt lat="43.30938" lon="5.94975">
        <ele>676.6953125</ele>
        <time>2018-11-18T10:29:42Z</time>
      </trkpt>
      <trkpt lat="43.30903" lon="5.94975">
        <ele>677.203125</ele>
        <time>2018-11-18T10:29:56Z</time>
      </trkpt>
      <trkpt lat="43.30897" lon="5.94976">
        <ele>677.3359375</ele>
        <time>2018-11-18T10:29:59Z</time>
      </trkpt>
      <trkpt lat="43.30895" lon="5.94977">
        <ele>677.3203125</ele>
        <time>2018-11-18T10:30:00Z</time>
      </trkpt>
      <trkpt lat="43.30878" lon="5.94985">
        <ele>677.609375</ele>
        <time>2018-11-18T10:30:09Z</time>
      </trkpt>
      <trkpt lat="43.30876" lon="5.94987">
        <ele>677.57421875</ele>
        <time>2018-11-18T10:30:10Z</time>
      </trkpt>
      <trkpt lat="43.30854" lon="5.95006">
        <ele>677.80078125</ele>
        <time>2018-11-18T10:30:21Z</time>
      </trkpt>
      <trkpt lat="43.30822" lon="5.95037">
        <ele>678.4375</ele>
        <time>2018-11-18T10:30:35Z</time>
      </trkpt>
      <trkpt lat="43.30799" lon="5.95057">
        <ele>679.671875</ele>
        <time>2018-11-18T10:30:45Z</time>
      </trkpt>
      <trkpt lat="43.3078" lon="5.95075">
        <ele>681.03515625</ele>
        <time>2018-11-18T10:30:56Z</time>
      </trkpt>
      <trkpt lat="43.30763" lon="5.95088">
        <ele>681.67578125</ele>
        <time>2018-11-18T10:31:09Z</time>
      </trkpt>
      <trkpt lat="43.30742" lon="5.95103">
        <ele>681.78515625</ele>
        <time>2018-11-18T10:31:24Z</time>
      </trkpt>
      <trkpt lat="43.30717" lon="5.95131">
        <ele>681.3046875</ele>
        <time>2018-11-18T10:31:38Z</time>
      </trkpt>
      <trkpt lat="43.30703" lon="5.9514">
        <ele>680.79296875</ele>
        <time>2018-11-18T10:31:42Z</time>
      </trkpt>
      <trkpt lat="43.30698" lon="5.95143">
        <ele>680.57421875</ele>
        <time>2018-11-18T10:31:43Z</time>
      </trkpt>
      <trkpt lat="43.30694" lon="5.95146">
        <ele>680.3671875</ele>
        <time>2018-11-18T10:31:44Z</time>
      </trkpt>
      <trkpt lat="43.3069" lon="5.9515">
        <ele>680.203125</ele>
        <time>2018-11-18T10:31:45Z</time>
      </trkpt>
      <trkpt lat="43.30687" lon="5.95153">
        <ele>679.98828125</ele>
        <time>2018-11-18T10:31:46Z</time>
      </trkpt>
      <trkpt lat="43.30619" lon="5.95195">
        <ele>677.6171875</ele>
        <time>2018-11-18T10:32:00Z</time>
      </trkpt>
      <trkpt lat="43.30592" lon="5.95203">
        <ele>677.97265625</ele>
        <time>2018-11-18T10:32:05Z</time>
      </trkpt>
      <trkpt lat="43.30557" lon="5.95222">
        <ele>677.84375</ele>
        <time>2018-11-18T10:32:16Z</time>
      </trkpt>
      <trkpt lat="43.30514" lon="5.95228">
        <ele>679.3203125</ele>
        <time>2018-11-18T10:32:31Z</time>
      </trkpt>
      <trkpt lat="43.30509" lon="5.95228">
        <ele>679.68359375</ele>
        <time>2018-11-18T10:32:33Z</time>
      </trkpt>
      <trkpt lat="43.30486" lon="5.9522">
        <ele>681.57421875</ele>
        <time>2018-11-18T10:32:46Z</time>
      </trkpt>
      <trkpt lat="43.3047" lon="5.95212">
        <ele>682.80078125</ele>
        <time>2018-11-18T10:33:00Z</time>
      </trkpt>
      <trkpt lat="43.30448" lon="5.95212">
        <ele>684.41015625</ele>
        <time>2018-11-18T10:33:13Z</time>
      </trkpt>
      <trkpt lat="43.3043" lon="5.95211">
        <ele>685.265625</ele>
        <time>2018-11-18T10:33:24Z</time>
      </trkpt>
      <trkpt lat="43.30418" lon="5.95209">
        <ele>685.78515625</ele>
        <time>2018-11-18T10:33:32Z</time>
      </trkpt>
      <trkpt lat="43.30416" lon="5.95211">
        <ele>685.69921875</ele>
        <time>2018-11-18T10:33:33Z</time>
      </trkpt>
      <trkpt lat="43.30415" lon="5.95214">
        <ele>685.6171875</ele>
        <time>2018-11-18T10:33:34Z</time>
      </trkpt>
      <trkpt lat="43.30414" lon="5.95215">
        <ele>685.56640625</ele>
        <time>2018-11-18T10:33:35Z</time>
      </trkpt>
      <trkpt lat="43.30411" lon="5.95219">
        <ele>685.5078125</ele>
        <time>2018-11-18T10:33:43Z</time>
      </trkpt>
      <trkpt lat="43.30404" lon="5.95225">
        <ele>685.75390625</ele>
        <time>2018-11-18T10:33:54Z</time>
      </trkpt>
      <trkpt lat="43.30402" lon="5.95225">
        <ele>685.95703125</ele>
        <time>2018-11-18T10:33:57Z</time>
      </trkpt>
      <trkpt lat="43.30401" lon="5.95225">
        <ele>686.0234375</ele>
        <time>2018-11-18T10:33:58Z</time>
      </trkpt>
      <trkpt lat="43.30399" lon="5.95226">
        <ele>686.0859375</ele>
        <time>2018-11-18T10:33:59Z</time>
      </trkpt>
      <trkpt lat="43.30397" lon="5.95227">
        <ele>686.18359375</ele>
        <time>2018-11-18T10:34:00Z</time>
      </trkpt>
      <trkpt lat="43.30396" lon="5.95228">
        <ele>686.2890625</ele>
        <time>2018-11-18T10:34:01Z</time>
      </trkpt>
      <trkpt lat="43.30394" lon="5.95229">
        <ele>686.3828125</ele>
        <time>2018-11-18T10:34:02Z</time>
      </trkpt>
      <trkpt lat="43.30392" lon="5.9523">
        <ele>686.4765625</ele>
        <time>2018-11-18T10:34:03Z</time>
      </trkpt>
      <trkpt lat="43.3039" lon="5.95231">
        <ele>686.58203125</ele>
        <time>2018-11-18T10:34:04Z</time>
      </trkpt>
      <trkpt lat="43.30388" lon="5.95231">
        <ele>686.62890625</ele>
        <time>2018-11-18T10:34:05Z</time>
      </trkpt>
      <trkpt lat="43.30361" lon="5.95247">
        <ele>687.01171875</ele>
        <time>2018-11-18T10:34:18Z</time>
      </trkpt>
      <trkpt lat="43.30338" lon="5.95266">
        <ele>687.83984375</ele>
        <time>2018-11-18T10:34:31Z</time>
      </trkpt>
      <trkpt lat="43.30322" lon="5.95289">
        <ele>688</ele>
        <time>2018-11-18T10:34:44Z</time>
      </trkpt>
      <trkpt lat="43.30302" lon="5.9532">
        <ele>687.49609375</ele>
        <time>2018-11-18T10:34:57Z</time>
      </trkpt>
      <trkpt lat="43.30268" lon="5.95354">
        <ele>688</ele>
        <time>2018-11-18T10:35:12Z</time>
      </trkpt>
      <trkpt lat="43.3025" lon="5.95393">
        <ele>688.9765625</ele>
        <time>2018-11-18T10:35:24Z</time>
      </trkpt>
      <trkpt lat="43.30245" lon="5.95425">
        <ele>689.17578125</ele>
        <time>2018-11-18T10:35:34Z</time>
      </trkpt>
      <trkpt lat="43.30245" lon="5.95458">
        <ele>690.34375</ele>
        <time>2018-11-18T10:35:47Z</time>
      </trkpt>
      <trkpt lat="43.30245" lon="5.95499">
        <ele>691.8203125</ele>
        <time>2018-11-18T10:36:04Z</time>
      </trkpt>
      <trkpt lat="43.30243" lon="5.95533">
        <ele>693.24609375</ele>
        <time>2018-11-18T10:36:19Z</time>
      </trkpt>
      <trkpt lat="43.30243" lon="5.95535">
        <ele>693.3359375</ele>
        <time>2018-11-18T10:36:31Z</time>
      </trkpt>
      <trkpt lat="43.30242" lon="5.95542">
        <ele>693.5859375</ele>
        <time>2018-11-18T10:36:53Z</time>
      </trkpt>
      <trkpt lat="43.30238" lon="5.95578">
        <ele>694.85546875</ele>
        <time>2018-11-18T10:37:08Z</time>
      </trkpt>
      <trkpt lat="43.30233" lon="5.95616">
        <ele>695.85546875</ele>
        <time>2018-11-18T10:37:24Z</time>
      </trkpt>
      <trkpt lat="43.30241" lon="5.95641">
        <ele>695.56640625</ele>
        <time>2018-11-18T10:37:38Z</time>
      </trkpt>
      <trkpt lat="43.30241" lon="5.95643">
        <ele>695.53125</ele>
        <time>2018-11-18T10:37:39Z</time>
      </trkpt>
      <trkpt lat="43.30242" lon="5.95645">
        <ele>695.5</ele>
        <time>2018-11-18T10:37:40Z</time>
      </trkpt>
      <trkpt lat="43.30242" lon="5.95646">
        <ele>695.4609375</ele>
        <time>2018-11-18T10:37:41Z</time>
      </trkpt>
      <trkpt lat="43.30241" lon="5.95648">
        <ele>695.41015625</ele>
        <time>2018-11-18T10:37:42Z</time>
      </trkpt>
      <trkpt lat="43.30241" lon="5.95649">
        <ele>695.359375</ele>
        <time>2018-11-18T10:37:52Z</time>
      </trkpt>
      <trkpt lat="43.30242" lon="5.9565">
        <ele>695.359375</ele>
        <time>2018-11-18T10:38:12Z</time>
      </trkpt>
      <trkpt lat="43.30233" lon="5.95665">
        <ele>694.984375</ele>
        <time>2018-11-18T10:38:26Z</time>
      </trkpt>
      <trkpt lat="43.30207" lon="5.95683">
        <ele>692.24609375</ele>
        <time>2018-11-18T10:38:33Z</time>
      </trkpt>
      <trkpt lat="43.30203" lon="5.95685">
        <ele>691.875</ele>
        <time>2018-11-18T10:38:34Z</time>
      </trkpt>
      <trkpt lat="43.30199" lon="5.95689">
        <ele>691.4375</ele>
        <time>2018-11-18T10:38:35Z</time>
      </trkpt>
      <trkpt lat="43.30195" lon="5.95693">
        <ele>690.97265625</ele>
        <time>2018-11-18T10:38:36Z</time>
      </trkpt>
      <trkpt lat="43.30192" lon="5.95698">
        <ele>690.37109375</ele>
        <time>2018-11-18T10:38:37Z</time>
      </trkpt>
      <trkpt lat="43.30189" lon="5.95704">
        <ele>689.71484375</ele>
        <time>2018-11-18T10:38:38Z</time>
      </trkpt>
      <trkpt lat="43.30176" lon="5.95732">
        <ele>685.8046875</ele>
        <time>2018-11-18T10:38:43Z</time>
      </trkpt>
      <trkpt lat="43.30173" lon="5.95736">
        <ele>685.01953125</ele>
        <time>2018-11-18T10:38:44Z</time>
      </trkpt>
      <trkpt lat="43.30166" lon="5.95744">
        <ele>683.45703125</ele>
        <time>2018-11-18T10:38:46Z</time>
      </trkpt>
      <trkpt lat="43.30161" lon="5.95747">
        <ele>682.69921875</ele>
        <time>2018-11-18T10:38:47Z</time>
      </trkpt>
      <trkpt lat="43.30156" lon="5.9575">
        <ele>681.88671875</ele>
        <time>2018-11-18T10:38:48Z</time>
      </trkpt>
      <trkpt lat="43.30147" lon="5.95756">
        <ele>680.390625</ele>
        <time>2018-11-18T10:38:50Z</time>
      </trkpt>
      <trkpt lat="43.30142" lon="5.95758">
        <ele>679.6953125</ele>
        <time>2018-11-18T10:38:51Z</time>
      </trkpt>
      <trkpt lat="43.30138" lon="5.95761">
        <ele>678.98828125</ele>
        <time>2018-11-18T10:38:52Z</time>
      </trkpt>
      <trkpt lat="43.30123" lon="5.95772">
        <ele>676.86328125</ele>
        <time>2018-11-18T10:38:55Z</time>
      </trkpt>
      <trkpt lat="43.30114" lon="5.9578">
        <ele>675.52734375</ele>
        <time>2018-11-18T10:38:57Z</time>
      </trkpt>
      <trkpt lat="43.30104" lon="5.95787">
        <ele>674.1796875</ele>
        <time>2018-11-18T10:38:59Z</time>
      </trkpt>
      <trkpt lat="43.30099" lon="5.9579">
        <ele>673.515625</ele>
        <time>2018-11-18T10:39:00Z</time>
      </trkpt>
      <trkpt lat="43.30094" lon="5.95793">
        <ele>672.91796875</ele>
        <time>2018-11-18T10:39:01Z</time>
      </trkpt>
      <trkpt lat="43.30072" lon="5.95804">
        <ele>670.5</ele>
        <time>2018-11-18T10:39:05Z</time>
      </trkpt>
      <trkpt lat="43.30061" lon="5.95809">
        <ele>669.375</ele>
        <time>2018-11-18T10:39:07Z</time>
      </trkpt>
      <trkpt lat="43.30045" lon="5.95814">
        <ele>668.5546875</ele>
        <time>2018-11-18T10:39:10Z</time>
      </trkpt>
      <trkpt lat="43.30032" lon="5.95821">
        <ele>667.53515625</ele>
        <time>2018-11-18T10:39:13Z</time>
      </trkpt>
      <trkpt lat="43.30003" lon="5.95827">
        <ele>666.49609375</ele>
        <time>2018-11-18T10:39:22Z</time>
      </trkpt>
      <trkpt lat="43.29984" lon="5.95825">
        <ele>666.53515625</ele>
        <time>2018-11-18T10:39:31Z</time>
      </trkpt>
      <trkpt lat="43.29983" lon="5.95826">
        <ele>666.49609375</ele>
        <time>2018-11-18T10:39:32Z</time>
      </trkpt>
      <trkpt lat="43.2997" lon="5.95831">
        <ele>665.94921875</ele>
        <time>2018-11-18T10:39:36Z</time>
      </trkpt>
      <trkpt lat="43.29965" lon="5.95831">
        <ele>665.72265625</ele>
        <time>2018-11-18T10:39:37Z</time>
      </trkpt>
      <trkpt lat="43.29956" lon="5.95832">
        <ele>665.31640625</ele>
        <time>2018-11-18T10:39:39Z</time>
      </trkpt>
      <trkpt lat="43.29951" lon="5.95833">
        <ele>665.05859375</ele>
        <time>2018-11-18T10:39:40Z</time>
      </trkpt>
      <trkpt lat="43.29946" lon="5.95835">
        <ele>664.796875</ele>
        <time>2018-11-18T10:39:41Z</time>
      </trkpt>
      <trkpt lat="43.29908" lon="5.9584">
        <ele>662.09765625</ele>
        <time>2018-11-18T10:39:48Z</time>
      </trkpt>
      <trkpt lat="43.29891" lon="5.95842">
        <ele>661.08203125</ele>
        <time>2018-11-18T10:39:51Z</time>
      </trkpt>
      <trkpt lat="43.29886" lon="5.95842">
        <ele>660.80078125</ele>
        <time>2018-11-18T10:39:52Z</time>
      </trkpt>
      <trkpt lat="43.29877" lon="5.95841">
        <ele>660.37890625</ele>
        <time>2018-11-18T10:39:54Z</time>
      </trkpt>
      <trkpt lat="43.29872" lon="5.95841">
        <ele>660.171875</ele>
        <time>2018-11-18T10:39:55Z</time>
      </trkpt>
      <trkpt lat="43.29841" lon="5.95834">
        <ele>656.953125</ele>
        <time>2018-11-18T10:40:01Z</time>
      </trkpt>
      <trkpt lat="43.29835" lon="5.95833">
        <ele>656.12109375</ele>
        <time>2018-11-18T10:40:02Z</time>
      </trkpt>
      <trkpt lat="43.2983" lon="5.95832">
        <ele>655.328125</ele>
        <time>2018-11-18T10:40:03Z</time>
      </trkpt>
      <trkpt lat="43.2982" lon="5.9583">
        <ele>654.03125</ele>
        <time>2018-11-18T10:40:05Z</time>
      </trkpt>
      <trkpt lat="43.29817" lon="5.9583">
        <ele>653.64453125</ele>
        <time>2018-11-18T10:40:06Z</time>
      </trkpt>
      <trkpt lat="43.29817" lon="5.95829">
        <ele>653.69140625</ele>
        <time>2018-11-18T10:40:17Z</time>
      </trkpt>
      <trkpt lat="43.29815" lon="5.95822">
        <ele>653.6796875</ele>
        <time>2018-11-18T10:40:33Z</time>
      </trkpt>
      <trkpt lat="43.29814" lon="5.9582">
        <ele>653.640625</ele>
        <time>2018-11-18T10:40:35Z</time>
      </trkpt>
      <trkpt lat="43.29813" lon="5.95818">
        <ele>653.70703125</ele>
        <time>2018-11-18T10:40:36Z</time>
      </trkpt>
      <trkpt lat="43.29798" lon="5.95786">
        <ele>653.3125</ele>
        <time>2018-11-18T10:40:48Z</time>
      </trkpt>
      <trkpt lat="43.29788" lon="5.95775">
        <ele>652.66796875</ele>
        <time>2018-11-18T10:40:58Z</time>
      </trkpt>
      <trkpt lat="43.29788" lon="5.95776">
        <ele>652.69921875</ele>
        <time>2018-11-18T10:41:11Z</time>
      </trkpt>
      <trkpt lat="43.298" lon="5.95782">
        <ele>653.45703125</ele>
        <time>2018-11-18T10:41:23Z</time>
      </trkpt>
      <trkpt lat="43.29799" lon="5.95778">
        <ele>653.48046875</ele>
        <time>2018-11-18T10:41:28Z</time>
      </trkpt>
      <trkpt lat="43.298" lon="5.95776">
        <ele>653.53515625</ele>
        <time>2018-11-18T10:41:29Z</time>
      </trkpt>
      <trkpt lat="43.298" lon="5.95773">
        <ele>653.40234375</ele>
        <time>2018-11-18T10:41:30Z</time>
      </trkpt>
      <trkpt lat="43.29801" lon="5.9577">
        <ele>653.27734375</ele>
        <time>2018-11-18T10:41:31Z</time>
      </trkpt>
      <trkpt lat="43.29802" lon="5.95767">
        <ele>653.140625</ele>
        <time>2018-11-18T10:41:32Z</time>
      </trkpt>
      <trkpt lat="43.29803" lon="5.95764">
        <ele>652.96484375</ele>
        <time>2018-11-18T10:41:33Z</time>
      </trkpt>
      <trkpt lat="43.29803" lon="5.95761">
        <ele>652.73046875</ele>
        <time>2018-11-18T10:41:34Z</time>
      </trkpt>
      <trkpt lat="43.29802" lon="5.95758">
        <ele>652.51953125</ele>
        <time>2018-11-18T10:41:35Z</time>
      </trkpt>
      <trkpt lat="43.29802" lon="5.95756">
        <ele>652.3671875</ele>
        <time>2018-11-18T10:41:36Z</time>
      </trkpt>
      <trkpt lat="43.29802" lon="5.95754">
        <ele>652.1953125</ele>
        <time>2018-11-18T10:41:37Z</time>
      </trkpt>
      <trkpt lat="43.29801" lon="5.9575">
        <ele>651.94140625</ele>
        <time>2018-11-18T10:41:38Z</time>
      </trkpt>
      <trkpt lat="43.29801" lon="5.95746">
        <ele>651.62890625</ele>
        <time>2018-11-18T10:41:39Z</time>
      </trkpt>
      <trkpt lat="43.29801" lon="5.95743">
        <ele>651.36328125</ele>
        <time>2018-11-18T10:41:40Z</time>
      </trkpt>
      <trkpt lat="43.29801" lon="5.9574">
        <ele>651.140625</ele>
        <time>2018-11-18T10:41:41Z</time>
      </trkpt>
      <trkpt lat="43.29801" lon="5.95737">
        <ele>650.8984375</ele>
        <time>2018-11-18T10:41:42Z</time>
      </trkpt>
      <trkpt lat="43.298" lon="5.95735">
        <ele>650.68359375</ele>
        <time>2018-11-18T10:41:43Z</time>
      </trkpt>
      <trkpt lat="43.29799" lon="5.9573">
        <ele>650.26953125</ele>
        <time>2018-11-18T10:41:46Z</time>
      </trkpt>
      <trkpt lat="43.298" lon="5.95723">
        <ele>649.69140625</ele>
        <time>2018-11-18T10:41:49Z</time>
      </trkpt>
      <trkpt lat="43.298" lon="5.95721">
        <ele>649.59375</ele>
        <time>2018-11-18T10:41:50Z</time>
      </trkpt>
      <trkpt lat="43.29802" lon="5.95719">
        <ele>649.46484375</ele>
        <time>2018-11-18T10:41:51Z</time>
      </trkpt>
      <trkpt lat="43.29803" lon="5.95718">
        <ele>649.3046875</ele>
        <time>2018-11-18T10:41:52Z</time>
      </trkpt>
      <trkpt lat="43.29803" lon="5.95716">
        <ele>648.9765625</ele>
        <time>2018-11-18T10:41:53Z</time>
      </trkpt>
      <trkpt lat="43.29801" lon="5.95712">
        <ele>648.06640625</ele>
        <time>2018-11-18T10:42:02Z</time>
      </trkpt>
      <trkpt lat="43.29798" lon="5.95704">
        <ele>646.640625</ele>
        <time>2018-11-18T10:42:08Z</time>
      </trkpt>
      <trkpt lat="43.29798" lon="5.957">
        <ele>645.8828125</ele>
        <time>2018-11-18T10:42:09Z</time>
      </trkpt>
      <trkpt lat="43.29797" lon="5.95696">
        <ele>645.31640625</ele>
        <time>2018-11-18T10:42:10Z</time>
      </trkpt>
      <trkpt lat="43.29795" lon="5.95695">
        <ele>645.01171875</ele>
        <time>2018-11-18T10:42:19Z</time>
      </trkpt>
      <trkpt lat="43.29792" lon="5.95694">
        <ele>644.6953125</ele>
        <time>2018-11-18T10:42:30Z</time>
      </trkpt>
      <trkpt lat="43.2979" lon="5.95688">
        <ele>643.8046875</ele>
        <time>2018-11-18T10:42:43Z</time>
      </trkpt>
      <trkpt lat="43.2979" lon="5.95685">
        <ele>643.37109375</ele>
        <time>2018-11-18T10:42:44Z</time>
      </trkpt>
      <trkpt lat="43.29791" lon="5.95682">
        <ele>642.875</ele>
        <time>2018-11-18T10:42:45Z</time>
      </trkpt>
      <trkpt lat="43.29792" lon="5.9568">
        <ele>642.66015625</ele>
        <time>2018-11-18T10:42:54Z</time>
      </trkpt>
      <trkpt lat="43.29793" lon="5.9567">
        <ele>641.3203125</ele>
        <time>2018-11-18T10:43:02Z</time>
      </trkpt>
      <trkpt lat="43.29794" lon="5.95669">
        <ele>641.1328125</ele>
        <time>2018-11-18T10:43:03Z</time>
      </trkpt>
      <trkpt lat="43.29795" lon="5.95667">
        <ele>640.98046875</ele>
        <time>2018-11-18T10:43:04Z</time>
      </trkpt>
      <trkpt lat="43.29797" lon="5.95667">
        <ele>640.8984375</ele>
        <time>2018-11-18T10:43:05Z</time>
      </trkpt>
      <trkpt lat="43.29797" lon="5.95662">
        <ele>640.12109375</ele>
        <time>2018-11-18T10:43:09Z</time>
      </trkpt>
      <trkpt lat="43.29797" lon="5.95661">
        <ele>639.87890625</ele>
        <time>2018-11-18T10:43:10Z</time>
      </trkpt>
      <trkpt lat="43.29778" lon="5.9564">
        <ele>634.5390625</ele>
        <time>2018-11-18T10:43:19Z</time>
      </trkpt>
      <trkpt lat="43.29778" lon="5.95636">
        <ele>633.890625</ele>
        <time>2018-11-18T10:43:20Z</time>
      </trkpt>
      <trkpt lat="43.29777" lon="5.95634">
        <ele>633.40625</ele>
        <time>2018-11-18T10:43:21Z</time>
      </trkpt>
      <trkpt lat="43.29777" lon="5.95632">
        <ele>633.015625</ele>
        <time>2018-11-18T10:43:22Z</time>
      </trkpt>
      <trkpt lat="43.29778" lon="5.9563">
        <ele>632.56640625</ele>
        <time>2018-11-18T10:43:23Z</time>
      </trkpt>
      <trkpt lat="43.29779" lon="5.95628">
        <ele>632.1171875</ele>
        <time>2018-11-18T10:43:24Z</time>
      </trkpt>
      <trkpt lat="43.29781" lon="5.95627">
        <ele>631.90234375</ele>
        <time>2018-11-18T10:43:25Z</time>
      </trkpt>
      <trkpt lat="43.29783" lon="5.95626">
        <ele>631.72265625</ele>
        <time>2018-11-18T10:43:26Z</time>
      </trkpt>
      <trkpt lat="43.29784" lon="5.95624">
        <ele>631.36328125</ele>
        <time>2018-11-18T10:43:27Z</time>
      </trkpt>
      <trkpt lat="43.29786" lon="5.95622">
        <ele>631.078125</ele>
        <time>2018-11-18T10:43:28Z</time>
      </trkpt>
      <trkpt lat="43.29788" lon="5.95621">
        <ele>630.78515625</ele>
        <time>2018-11-18T10:43:29Z</time>
      </trkpt>
      <trkpt lat="43.29795" lon="5.95616">
        <ele>629.953125</ele>
        <time>2018-11-18T10:43:37Z</time>
      </trkpt>
      <trkpt lat="43.29795" lon="5.95614">
        <ele>629.6484375</ele>
        <time>2018-11-18T10:43:38Z</time>
      </trkpt>
      <trkpt lat="43.29794" lon="5.95612">
        <ele>629.23046875</ele>
        <time>2018-11-18T10:43:39Z</time>
      </trkpt>
      <trkpt lat="43.29793" lon="5.95611">
        <ele>628.9296875</ele>
        <time>2018-11-18T10:43:40Z</time>
      </trkpt>
      <trkpt lat="43.29793" lon="5.9561">
        <ele>628.70703125</ele>
        <time>2018-11-18T10:43:41Z</time>
      </trkpt>
      <trkpt lat="43.29792" lon="5.95609">
        <ele>628.28125</ele>
        <time>2018-11-18T10:43:42Z</time>
      </trkpt>
      <trkpt lat="43.29787" lon="5.95602">
        <ele>626.39453125</ele>
        <time>2018-11-18T10:43:46Z</time>
      </trkpt>
      <trkpt lat="43.29786" lon="5.956">
        <ele>625.85546875</ele>
        <time>2018-11-18T10:43:47Z</time>
      </trkpt>
      <trkpt lat="43.29778" lon="5.95581">
        <ele>620.98828125</ele>
        <time>2018-11-18T10:43:54Z</time>
      </trkpt>
      <trkpt lat="43.29771" lon="5.95565">
        <ele>617.375</ele>
        <time>2018-11-18T10:43:59Z</time>
      </trkpt>
      <trkpt lat="43.2977" lon="5.95562">
        <ele>616.60546875</ele>
        <time>2018-11-18T10:44:00Z</time>
      </trkpt>
      <trkpt lat="43.29767" lon="5.95557">
        <ele>615.55859375</ele>
        <time>2018-11-18T10:44:02Z</time>
      </trkpt>
      <trkpt lat="43.29766" lon="5.95555">
        <ele>615.16015625</ele>
        <time>2018-11-18T10:44:03Z</time>
      </trkpt>
      <trkpt lat="43.29762" lon="5.95541">
        <ele>611.67578125</ele>
        <time>2018-11-18T10:44:10Z</time>
      </trkpt>
      <trkpt lat="43.29762" lon="5.95539">
        <ele>611.1796875</ele>
        <time>2018-11-18T10:44:11Z</time>
      </trkpt>
      <trkpt lat="43.29761" lon="5.95537">
        <ele>610.58984375</ele>
        <time>2018-11-18T10:44:12Z</time>
      </trkpt>
      <trkpt lat="43.29761" lon="5.95534">
        <ele>609.85546875</ele>
        <time>2018-11-18T10:44:13Z</time>
      </trkpt>
      <trkpt lat="43.2976" lon="5.95531">
        <ele>609.03125</ele>
        <time>2018-11-18T10:44:14Z</time>
      </trkpt>
      <trkpt lat="43.29759" lon="5.95528">
        <ele>608.3671875</ele>
        <time>2018-11-18T10:44:16Z</time>
      </trkpt>
      <trkpt lat="43.29757" lon="5.95522">
        <ele>606.53125</ele>
        <time>2018-11-18T10:44:34Z</time>
      </trkpt>
      <trkpt lat="43.29756" lon="5.95519">
        <ele>605.71484375</ele>
        <time>2018-11-18T10:44:36Z</time>
      </trkpt>
      <trkpt lat="43.29753" lon="5.9551">
        <ele>603.33984375</ele>
        <time>2018-11-18T10:44:40Z</time>
      </trkpt>
      <trkpt lat="43.2975" lon="5.95503">
        <ele>601.59375</ele>
        <time>2018-11-18T10:44:43Z</time>
      </trkpt>
      <trkpt lat="43.29749" lon="5.95501">
        <ele>601.296875</ele>
        <time>2018-11-18T10:44:44Z</time>
      </trkpt>
      <trkpt lat="43.29748" lon="5.955">
        <ele>600.96875</ele>
        <time>2018-11-18T10:44:45Z</time>
      </trkpt>
      <trkpt lat="43.29747" lon="5.95498">
        <ele>600.62890625</ele>
        <time>2018-11-18T10:44:46Z</time>
      </trkpt>
      <trkpt lat="43.29746" lon="5.95496">
        <ele>600.328125</ele>
        <time>2018-11-18T10:44:47Z</time>
      </trkpt>
      <trkpt lat="43.29745" lon="5.95494">
        <ele>600.015625</ele>
        <time>2018-11-18T10:44:48Z</time>
      </trkpt>
      <trkpt lat="43.29737" lon="5.95478">
        <ele>596.88671875</ele>
        <time>2018-11-18T10:44:56Z</time>
      </trkpt>
      <trkpt lat="43.2973" lon="5.95461">
        <ele>593.09375</ele>
        <time>2018-11-18T10:45:04Z</time>
      </trkpt>
      <trkpt lat="43.29729" lon="5.95458">
        <ele>592.5859375</ele>
        <time>2018-11-18T10:45:05Z</time>
      </trkpt>
      <trkpt lat="43.29717" lon="5.95444">
        <ele>590.140625</ele>
        <time>2018-11-18T10:45:11Z</time>
      </trkpt>
      <trkpt lat="43.29712" lon="5.95438">
        <ele>588.85546875</ele>
        <time>2018-11-18T10:45:21Z</time>
      </trkpt>
      <trkpt lat="43.29712" lon="5.95436">
        <ele>588.30078125</ele>
        <time>2018-11-18T10:45:50Z</time>
      </trkpt>
      <trkpt lat="43.2971" lon="5.95434">
        <ele>588.078125</ele>
        <time>2018-11-18T10:46:07Z</time>
      </trkpt>
      <trkpt lat="43.2971" lon="5.95432">
        <ele>587.47265625</ele>
        <time>2018-11-18T10:46:08Z</time>
      </trkpt>
      <trkpt lat="43.2971" lon="5.9543">
        <ele>586.90625</ele>
        <time>2018-11-18T10:46:09Z</time>
      </trkpt>
      <trkpt lat="43.2971" lon="5.95428">
        <ele>586.453125</ele>
        <time>2018-11-18T10:46:10Z</time>
      </trkpt>
      <trkpt lat="43.29709" lon="5.95426">
        <ele>585.9296875</ele>
        <time>2018-11-18T10:46:12Z</time>
      </trkpt>
      <trkpt lat="43.29702" lon="5.95417">
        <ele>583.95703125</ele>
        <time>2018-11-18T10:46:17Z</time>
      </trkpt>
      <trkpt lat="43.29701" lon="5.95414">
        <ele>583.26171875</ele>
        <time>2018-11-18T10:46:18Z</time>
      </trkpt>
      <trkpt lat="43.29697" lon="5.95404">
        <ele>580.640625</ele>
        <time>2018-11-18T10:46:22Z</time>
      </trkpt>
      <trkpt lat="43.29678" lon="5.95392">
        <ele>578.50390625</ele>
        <time>2018-11-18T10:46:30Z</time>
      </trkpt>
      <trkpt lat="43.29675" lon="5.9539">
        <ele>578.2421875</ele>
        <time>2018-11-18T10:46:32Z</time>
      </trkpt>
      <trkpt lat="43.29662" lon="5.95383">
        <ele>576.79296875</ele>
        <time>2018-11-18T10:46:39Z</time>
      </trkpt>
      <trkpt lat="43.2966" lon="5.95381">
        <ele>576.3984375</ele>
        <time>2018-11-18T10:46:40Z</time>
      </trkpt>
      <trkpt lat="43.29661" lon="5.95374">
        <ele>574.1328125</ele>
        <time>2018-11-18T10:46:47Z</time>
      </trkpt>
      <trkpt lat="43.29663" lon="5.95371">
        <ele>573.05078125</ele>
        <time>2018-11-18T10:47:01Z</time>
      </trkpt>
      <trkpt lat="43.29664" lon="5.9537">
        <ele>572.7109375</ele>
        <time>2018-11-18T10:47:03Z</time>
      </trkpt>
      <trkpt lat="43.29666" lon="5.95369">
        <ele>572.23046875</ele>
        <time>2018-11-18T10:47:04Z</time>
      </trkpt>
      <trkpt lat="43.29668" lon="5.95367">
        <ele>571.5078125</ele>
        <time>2018-11-18T10:47:05Z</time>
      </trkpt>
      <trkpt lat="43.2967" lon="5.95366">
        <ele>570.96484375</ele>
        <time>2018-11-18T10:47:06Z</time>
      </trkpt>
      <trkpt lat="43.29673" lon="5.95365">
        <ele>570.40234375</ele>
        <time>2018-11-18T10:47:07Z</time>
      </trkpt>
      <trkpt lat="43.29676" lon="5.95363">
        <ele>569.796875</ele>
        <time>2018-11-18T10:47:08Z</time>
      </trkpt>
      <trkpt lat="43.29679" lon="5.95362">
        <ele>569.5078125</ele>
        <time>2018-11-18T10:47:09Z</time>
      </trkpt>
      <trkpt lat="43.29682" lon="5.95362">
        <ele>569.37890625</ele>
        <time>2018-11-18T10:47:10Z</time>
      </trkpt>
      <trkpt lat="43.29685" lon="5.95362">
        <ele>569.25390625</ele>
        <time>2018-11-18T10:47:11Z</time>
      </trkpt>
      <trkpt lat="43.29688" lon="5.95362">
        <ele>569.06640625</ele>
        <time>2018-11-18T10:47:12Z</time>
      </trkpt>
      <trkpt lat="43.2969" lon="5.95361">
        <ele>568.75</ele>
        <time>2018-11-18T10:47:13Z</time>
      </trkpt>
      <trkpt lat="43.29693" lon="5.9536">
        <ele>568.34375</ele>
        <time>2018-11-18T10:47:14Z</time>
      </trkpt>
      <trkpt lat="43.297" lon="5.95356">
        <ele>566.61328125</ele>
        <time>2018-11-18T10:47:17Z</time>
      </trkpt>
      <trkpt lat="43.29706" lon="5.9535">
        <ele>564.49609375</ele>
        <time>2018-11-18T10:47:20Z</time>
      </trkpt>
      <trkpt lat="43.29708" lon="5.95349">
        <ele>564.01171875</ele>
        <time>2018-11-18T10:47:21Z</time>
      </trkpt>
      <trkpt lat="43.29711" lon="5.95348">
        <ele>563.57421875</ele>
        <time>2018-11-18T10:47:22Z</time>
      </trkpt>
      <trkpt lat="43.29713" lon="5.95347">
        <ele>563.2578125</ele>
        <time>2018-11-18T10:47:23Z</time>
      </trkpt>
      <trkpt lat="43.29716" lon="5.95347">
        <ele>562.84375</ele>
        <time>2018-11-18T10:47:24Z</time>
      </trkpt>
      <trkpt lat="43.2972" lon="5.95345">
        <ele>562.1484375</ele>
        <time>2018-11-18T10:47:25Z</time>
      </trkpt>
      <trkpt lat="43.29723" lon="5.95343">
        <ele>561.359375</ele>
        <time>2018-11-18T10:47:26Z</time>
      </trkpt>
      <trkpt lat="43.29727" lon="5.95342">
        <ele>560.75390625</ele>
        <time>2018-11-18T10:47:27Z</time>
      </trkpt>
      <trkpt lat="43.29731" lon="5.95342">
        <ele>560.3046875</ele>
        <time>2018-11-18T10:47:28Z</time>
      </trkpt>
      <trkpt lat="43.29734" lon="5.95341">
        <ele>559.734375</ele>
        <time>2018-11-18T10:47:29Z</time>
      </trkpt>
      <trkpt lat="43.29736" lon="5.9534">
        <ele>559.234375</ele>
        <time>2018-11-18T10:47:30Z</time>
      </trkpt>
      <trkpt lat="43.29739" lon="5.95339">
        <ele>558.8203125</ele>
        <time>2018-11-18T10:47:31Z</time>
      </trkpt>
      <trkpt lat="43.29743" lon="5.95338">
        <ele>558.16796875</ele>
        <time>2018-11-18T10:47:33Z</time>
      </trkpt>
      <trkpt lat="43.29745" lon="5.95337">
        <ele>557.75</ele>
        <time>2018-11-18T10:47:34Z</time>
      </trkpt>
      <trkpt lat="43.29749" lon="5.95335">
        <ele>556.84375</ele>
        <time>2018-11-18T10:47:36Z</time>
      </trkpt>
      <trkpt lat="43.29756" lon="5.95331">
        <ele>556.14453125</ele>
        <time>2018-11-18T10:47:39Z</time>
      </trkpt>
      <trkpt lat="43.29758" lon="5.95329">
        <ele>555.86328125</ele>
        <time>2018-11-18T10:47:40Z</time>
      </trkpt>
      <trkpt lat="43.2976" lon="5.95328">
        <ele>555.8125</ele>
        <time>2018-11-18T10:47:41Z</time>
      </trkpt>
      <trkpt lat="43.29762" lon="5.95328">
        <ele>556.04296875</ele>
        <time>2018-11-18T10:47:42Z</time>
      </trkpt>
      <trkpt lat="43.29765" lon="5.95329">
        <ele>556.44140625</ele>
        <time>2018-11-18T10:47:43Z</time>
      </trkpt>
      <trkpt lat="43.29773" lon="5.95331">
        <ele>557.4140625</ele>
        <time>2018-11-18T10:47:46Z</time>
      </trkpt>
      <trkpt lat="43.29778" lon="5.95333">
        <ele>558.20703125</ele>
        <time>2018-11-18T10:47:55Z</time>
      </trkpt>
      <trkpt lat="43.2978" lon="5.95324">
        <ele>556.53125</ele>
        <time>2018-11-18T10:48:09Z</time>
      </trkpt>
      <trkpt lat="43.2978" lon="5.95321">
        <ele>555.9921875</ele>
        <time>2018-11-18T10:48:10Z</time>
      </trkpt>
      <trkpt lat="43.29777" lon="5.95311">
        <ele>553.31640625</ele>
        <time>2018-11-18T10:48:14Z</time>
      </trkpt>
      <trkpt lat="43.29776" lon="5.95308">
        <ele>552.64453125</ele>
        <time>2018-11-18T10:48:15Z</time>
      </trkpt>
      <trkpt lat="43.29775" lon="5.95305">
        <ele>551.875</ele>
        <time>2018-11-18T10:48:16Z</time>
      </trkpt>
      <trkpt lat="43.29774" lon="5.953">
        <ele>551.38671875</ele>
        <time>2018-11-18T10:48:17Z</time>
      </trkpt>
      <trkpt lat="43.29773" lon="5.95295">
        <ele>550.890625</ele>
        <time>2018-11-18T10:48:18Z</time>
      </trkpt>
      <trkpt lat="43.2977" lon="5.95287">
        <ele>549.75</ele>
        <time>2018-11-18T10:48:26Z</time>
      </trkpt>
      <trkpt lat="43.29766" lon="5.95284">
        <ele>548.94921875</ele>
        <time>2018-11-18T10:48:40Z</time>
      </trkpt>
      <trkpt lat="43.29765" lon="5.95281">
        <ele>548.58203125</ele>
        <time>2018-11-18T10:48:46Z</time>
      </trkpt>
      <trkpt lat="43.29763" lon="5.9528">
        <ele>548.20703125</ele>
        <time>2018-11-18T10:48:47Z</time>
      </trkpt>
      <trkpt lat="43.29761" lon="5.95278">
        <ele>547.7109375</ele>
        <time>2018-11-18T10:48:48Z</time>
      </trkpt>
      <trkpt lat="43.29759" lon="5.95276">
        <ele>547.171875</ele>
        <time>2018-11-18T10:48:49Z</time>
      </trkpt>
      <trkpt lat="43.29757" lon="5.95274">
        <ele>546.62890625</ele>
        <time>2018-11-18T10:48:50Z</time>
      </trkpt>
      <trkpt lat="43.29755" lon="5.95271">
        <ele>546.09375</ele>
        <time>2018-11-18T10:48:51Z</time>
      </trkpt>
      <trkpt lat="43.29753" lon="5.95267">
        <ele>545.33984375</ele>
        <time>2018-11-18T10:48:56Z</time>
      </trkpt>
      <trkpt lat="43.29753" lon="5.95265">
        <ele>545.0859375</ele>
        <time>2018-11-18T10:48:57Z</time>
      </trkpt>
      <trkpt lat="43.29752" lon="5.95263">
        <ele>544.77734375</ele>
        <time>2018-11-18T10:48:58Z</time>
      </trkpt>
      <trkpt lat="43.29752" lon="5.95261">
        <ele>544.51171875</ele>
        <time>2018-11-18T10:48:59Z</time>
      </trkpt>
      <trkpt lat="43.29751" lon="5.95259">
        <ele>544.17578125</ele>
        <time>2018-11-18T10:49:00Z</time>
      </trkpt>
      <trkpt lat="43.2975" lon="5.95257">
        <ele>543.8125</ele>
        <time>2018-11-18T10:49:01Z</time>
      </trkpt>
      <trkpt lat="43.29748" lon="5.95255">
        <ele>543.421875</ele>
        <time>2018-11-18T10:49:02Z</time>
      </trkpt>
      <trkpt lat="43.29747" lon="5.95253">
        <ele>543.01171875</ele>
        <time>2018-11-18T10:49:03Z</time>
      </trkpt>
      <trkpt lat="43.29745" lon="5.95252">
        <ele>542.6015625</ele>
        <time>2018-11-18T10:49:04Z</time>
      </trkpt>
      <trkpt lat="43.29744" lon="5.9525">
        <ele>542.24609375</ele>
        <time>2018-11-18T10:49:05Z</time>
      </trkpt>
      <trkpt lat="43.29743" lon="5.95248">
        <ele>541.921875</ele>
        <time>2018-11-18T10:49:06Z</time>
      </trkpt>
      <trkpt lat="43.29742" lon="5.95247">
        <ele>541.921875</ele>
        <time>2018-11-18T10:49:07Z</time>
      </trkpt>
      <trkpt lat="43.29741" lon="5.95245">
        <ele>541.92578125</ele>
        <time>2018-11-18T10:49:08Z</time>
      </trkpt>
      <trkpt lat="43.2974" lon="5.95244">
        <ele>541.82421875</ele>
        <time>2018-11-18T10:49:09Z</time>
      </trkpt>
      <trkpt lat="43.29738" lon="5.95242">
        <ele>541.71875</ele>
        <time>2018-11-18T10:49:10Z</time>
      </trkpt>
      <trkpt lat="43.29722" lon="5.95217">
        <ele>540.171875</ele>
        <time>2018-11-18T10:49:23Z</time>
      </trkpt>
      <trkpt lat="43.2972" lon="5.95216">
        <ele>540.0625</ele>
        <time>2018-11-18T10:49:24Z</time>
      </trkpt>
      <trkpt lat="43.29719" lon="5.95214">
        <ele>539.95703125</ele>
        <time>2018-11-18T10:49:25Z</time>
      </trkpt>
      <trkpt lat="43.29707" lon="5.95203">
        <ele>538.6015625</ele>
        <time>2018-11-18T10:49:37Z</time>
      </trkpt>
      <trkpt lat="43.29705" lon="5.952">
        <ele>538.13671875</ele>
        <time>2018-11-18T10:49:53Z</time>
      </trkpt>
      <trkpt lat="43.29703" lon="5.95198">
        <ele>537.84765625</ele>
        <time>2018-11-18T10:49:54Z</time>
      </trkpt>
      <trkpt lat="43.29701" lon="5.95196">
        <ele>537.47265625</ele>
        <time>2018-11-18T10:49:55Z</time>
      </trkpt>
      <trkpt lat="43.297" lon="5.95194">
        <ele>537.04296875</ele>
        <time>2018-11-18T10:49:56Z</time>
      </trkpt>
      <trkpt lat="43.29698" lon="5.95193">
        <ele>536.60546875</ele>
        <time>2018-11-18T10:49:57Z</time>
      </trkpt>
      <trkpt lat="43.29695" lon="5.95191">
        <ele>536.484375</ele>
        <time>2018-11-18T10:49:58Z</time>
      </trkpt>
      <trkpt lat="43.29693" lon="5.95188">
        <ele>536.5859375</ele>
        <time>2018-11-18T10:49:59Z</time>
      </trkpt>
      <trkpt lat="43.29692" lon="5.95184">
        <ele>536.9375</ele>
        <time>2018-11-18T10:50:00Z</time>
      </trkpt>
      <trkpt lat="43.2969" lon="5.95181">
        <ele>537.28515625</ele>
        <time>2018-11-18T10:50:01Z</time>
      </trkpt>
      <trkpt lat="43.29688" lon="5.95178">
        <ele>537.36328125</ele>
        <time>2018-11-18T10:50:02Z</time>
      </trkpt>
      <trkpt lat="43.29686" lon="5.95176">
        <ele>537.4296875</ele>
        <time>2018-11-18T10:50:03Z</time>
      </trkpt>
      <trkpt lat="43.29666" lon="5.95137">
        <ele>537.67578125</ele>
        <time>2018-11-18T10:50:14Z</time>
      </trkpt>
      <trkpt lat="43.29669" lon="5.95113">
        <ele>541.09765625</ele>
        <time>2018-11-18T10:50:19Z</time>
      </trkpt>
      <trkpt lat="43.29668" lon="5.9511">
        <ele>541.2890625</ele>
        <time>2018-11-18T10:50:20Z</time>
      </trkpt>
      <trkpt lat="43.29668" lon="5.95106">
        <ele>541.51171875</ele>
        <time>2018-11-18T10:50:21Z</time>
      </trkpt>
      <trkpt lat="43.29669" lon="5.95103">
        <ele>541.7578125</ele>
        <time>2018-11-18T10:50:22Z</time>
      </trkpt>
      <trkpt lat="43.29669" lon="5.951">
        <ele>541.98046875</ele>
        <time>2018-11-18T10:50:23Z</time>
      </trkpt>
      <trkpt lat="43.29669" lon="5.95083">
        <ele>542.671875</ele>
        <time>2018-11-18T10:50:27Z</time>
      </trkpt>
      <trkpt lat="43.29667" lon="5.95067">
        <ele>541.703125</ele>
        <time>2018-11-18T10:50:31Z</time>
      </trkpt>
      <trkpt lat="43.29667" lon="5.95063">
        <ele>541.546875</ele>
        <time>2018-11-18T10:50:32Z</time>
      </trkpt>
      <trkpt lat="43.29667" lon="5.95059">
        <ele>541.578125</ele>
        <time>2018-11-18T10:50:33Z</time>
      </trkpt>
      <trkpt lat="43.29667" lon="5.95053">
        <ele>541.72265625</ele>
        <time>2018-11-18T10:50:34Z</time>
      </trkpt>
      <trkpt lat="43.29667" lon="5.95049">
        <ele>541.62109375</ele>
        <time>2018-11-18T10:50:35Z</time>
      </trkpt>
      <trkpt lat="43.29667" lon="5.95045">
        <ele>541.36328125</ele>
        <time>2018-11-18T10:50:36Z</time>
      </trkpt>
      <trkpt lat="43.29667" lon="5.9504">
        <ele>541.1015625</ele>
        <time>2018-11-18T10:50:37Z</time>
      </trkpt>
      <trkpt lat="43.29667" lon="5.95036">
        <ele>541.20703125</ele>
        <time>2018-11-18T10:50:38Z</time>
      </trkpt>
      <trkpt lat="43.29668" lon="5.95032">
        <ele>541.30078125</ele>
        <time>2018-11-18T10:50:39Z</time>
      </trkpt>
      <trkpt lat="43.29668" lon="5.95027">
        <ele>541.3671875</ele>
        <time>2018-11-18T10:50:40Z</time>
      </trkpt>
      <trkpt lat="43.29668" lon="5.95023">
        <ele>541.2421875</ele>
        <time>2018-11-18T10:50:41Z</time>
      </trkpt>
      <trkpt lat="43.29669" lon="5.95019">
        <ele>541.0390625</ele>
        <time>2018-11-18T10:50:42Z</time>
      </trkpt>
      <trkpt lat="43.29669" lon="5.95016">
        <ele>540.79296875</ele>
        <time>2018-11-18T10:50:43Z</time>
      </trkpt>
      <trkpt lat="43.29668" lon="5.95013">
        <ele>540.54296875</ele>
        <time>2018-11-18T10:50:44Z</time>
      </trkpt>
      <trkpt lat="43.29669" lon="5.9501">
        <ele>540.6015625</ele>
        <time>2018-11-18T10:50:45Z</time>
      </trkpt>
      <trkpt lat="43.2967" lon="5.95006">
        <ele>540.625</ele>
        <time>2018-11-18T10:50:46Z</time>
      </trkpt>
      <trkpt lat="43.29669" lon="5.95002">
        <ele>540.30078125</ele>
        <time>2018-11-18T10:50:47Z</time>
      </trkpt>
      <trkpt lat="43.29668" lon="5.94999">
        <ele>539.51171875</ele>
        <time>2018-11-18T10:50:48Z</time>
      </trkpt>
      <trkpt lat="43.29667" lon="5.94997">
        <ele>538.5078125</ele>
        <time>2018-11-18T10:50:49Z</time>
      </trkpt>
      <trkpt lat="43.29665" lon="5.94996">
        <ele>537.9140625</ele>
        <time>2018-11-18T10:50:50Z</time>
      </trkpt>
      <trkpt lat="43.29665" lon="5.94997">
        <ele>537.64453125</ele>
        <time>2018-11-18T10:50:52Z</time>
      </trkpt>
      <trkpt lat="43.29663" lon="5.94999">
        <ele>537.1640625</ele>
        <time>2018-11-18T10:51:14Z</time>
      </trkpt>
      <trkpt lat="43.2965" lon="5.95009">
        <ele>531.2890625</ele>
        <time>2018-11-18T10:51:20Z</time>
      </trkpt>
      <trkpt lat="43.29647" lon="5.95011">
        <ele>530.03125</ele>
        <time>2018-11-18T10:51:21Z</time>
      </trkpt>
      <trkpt lat="43.29643" lon="5.95021">
        <ele>528.0078125</ele>
        <time>2018-11-18T10:51:26Z</time>
      </trkpt>
      <trkpt lat="43.29643" lon="5.95025">
        <ele>527.69140625</ele>
        <time>2018-11-18T10:51:27Z</time>
      </trkpt>
      <trkpt lat="43.29642" lon="5.95028">
        <ele>527.19140625</ele>
        <time>2018-11-18T10:51:29Z</time>
      </trkpt>
      <trkpt lat="43.2964" lon="5.95032">
        <ele>526.3828125</ele>
        <time>2018-11-18T10:51:31Z</time>
      </trkpt>
      <trkpt lat="43.29631" lon="5.95041">
        <ele>523.921875</ele>
        <time>2018-11-18T10:51:35Z</time>
      </trkpt>
      <trkpt lat="43.2963" lon="5.95043">
        <ele>523.6015625</ele>
        <time>2018-11-18T10:51:36Z</time>
      </trkpt>
      <trkpt lat="43.2963" lon="5.95045">
        <ele>523.62890625</ele>
        <time>2018-11-18T10:51:37Z</time>
      </trkpt>
      <trkpt lat="43.29627" lon="5.95049">
        <ele>522.53515625</ele>
        <time>2018-11-18T10:51:56Z</time>
      </trkpt>
      <trkpt lat="43.29628" lon="5.95055">
        <ele>522.73046875</ele>
        <time>2018-11-18T10:52:12Z</time>
      </trkpt>
      <trkpt lat="43.29627" lon="5.95058">
        <ele>522.5234375</ele>
        <time>2018-11-18T10:52:28Z</time>
      </trkpt>
      <trkpt lat="43.29626" lon="5.95059">
        <ele>521.91796875</ele>
        <time>2018-11-18T10:52:29Z</time>
      </trkpt>
      <trkpt lat="43.29622" lon="5.95067">
        <ele>520.24609375</ele>
        <time>2018-11-18T10:52:39Z</time>
      </trkpt>
      <trkpt lat="43.29621" lon="5.95068">
        <ele>519.9765625</ele>
        <time>2018-11-18T10:52:40Z</time>
      </trkpt>
      <trkpt lat="43.2962" lon="5.9507">
        <ele>519.58203125</ele>
        <time>2018-11-18T10:52:41Z</time>
      </trkpt>
      <trkpt lat="43.29615" lon="5.95082">
        <ele>517.11328125</ele>
        <time>2018-11-18T10:52:48Z</time>
      </trkpt>
      <trkpt lat="43.29614" lon="5.95084">
        <ele>516.90625</ele>
        <time>2018-11-18T10:52:49Z</time>
      </trkpt>
      <trkpt lat="43.29613" lon="5.95087">
        <ele>516.59765625</ele>
        <time>2018-11-18T10:52:51Z</time>
      </trkpt>
      <trkpt lat="43.29612" lon="5.9509">
        <ele>516.140625</ele>
        <time>2018-11-18T10:52:52Z</time>
      </trkpt>
      <trkpt lat="43.29605" lon="5.95102">
        <ele>514.1015625</ele>
        <time>2018-11-18T10:52:57Z</time>
      </trkpt>
      <trkpt lat="43.29604" lon="5.95105">
        <ele>513.80078125</ele>
        <time>2018-11-18T10:52:58Z</time>
      </trkpt>
      <trkpt lat="43.29603" lon="5.95108">
        <ele>513.26953125</ele>
        <time>2018-11-18T10:52:59Z</time>
      </trkpt>
      <trkpt lat="43.29601" lon="5.9511">
        <ele>512.61328125</ele>
        <time>2018-11-18T10:53:00Z</time>
      </trkpt>
      <trkpt lat="43.29598" lon="5.95112">
        <ele>511.94921875</ele>
        <time>2018-11-18T10:53:01Z</time>
      </trkpt>
      <trkpt lat="43.29596" lon="5.95113">
        <ele>511.109375</ele>
        <time>2018-11-18T10:53:02Z</time>
      </trkpt>
      <trkpt lat="43.29593" lon="5.95114">
        <ele>510.1484375</ele>
        <time>2018-11-18T10:53:03Z</time>
      </trkpt>
      <trkpt lat="43.2959" lon="5.95116">
        <ele>509.2578125</ele>
        <time>2018-11-18T10:53:04Z</time>
      </trkpt>
      <trkpt lat="43.29587" lon="5.95117">
        <ele>508.21875</ele>
        <time>2018-11-18T10:53:05Z</time>
      </trkpt>
      <trkpt lat="43.29583" lon="5.95117">
        <ele>506.98828125</ele>
        <time>2018-11-18T10:53:06Z</time>
      </trkpt>
      <trkpt lat="43.2958" lon="5.95118">
        <ele>505.953125</ele>
        <time>2018-11-18T10:53:07Z</time>
      </trkpt>
      <trkpt lat="43.29577" lon="5.9512">
        <ele>505.33203125</ele>
        <time>2018-11-18T10:53:08Z</time>
      </trkpt>
      <trkpt lat="43.29575" lon="5.95123">
        <ele>505.09375</ele>
        <time>2018-11-18T10:53:09Z</time>
      </trkpt>
      <trkpt lat="43.29573" lon="5.95125">
        <ele>504.7578125</ele>
        <time>2018-11-18T10:53:10Z</time>
      </trkpt>
      <trkpt lat="43.29568" lon="5.95133">
        <ele>503.9921875</ele>
        <time>2018-11-18T10:53:20Z</time>
      </trkpt>
      <trkpt lat="43.29562" lon="5.95138">
        <ele>502.26171875</ele>
        <time>2018-11-18T10:53:50Z</time>
      </trkpt>
      <trkpt lat="43.29561" lon="5.95139">
        <ele>502.13671875</ele>
        <time>2018-11-18T10:54:17Z</time>
      </trkpt>
      <trkpt lat="43.2956" lon="5.9514">
        <ele>501.7890625</ele>
        <time>2018-11-18T10:54:18Z</time>
      </trkpt>
      <trkpt lat="43.29548" lon="5.95149">
        <ele>499.48046875</ele>
        <time>2018-11-18T10:54:24Z</time>
      </trkpt>
      <trkpt lat="43.29546" lon="5.95149">
        <ele>498.671875</ele>
        <time>2018-11-18T10:54:26Z</time>
      </trkpt>
      <trkpt lat="43.29543" lon="5.95149">
        <ele>497.96484375</ele>
        <time>2018-11-18T10:54:27Z</time>
      </trkpt>
      <trkpt lat="43.29541" lon="5.95151">
        <ele>497.2265625</ele>
        <time>2018-11-18T10:54:28Z</time>
      </trkpt>
      <trkpt lat="43.29538" lon="5.95152">
        <ele>496.6015625</ele>
        <time>2018-11-18T10:54:29Z</time>
      </trkpt>
      <trkpt lat="43.29536" lon="5.95154">
        <ele>496.0078125</ele>
        <time>2018-11-18T10:54:30Z</time>
      </trkpt>
      <trkpt lat="43.29534" lon="5.95156">
        <ele>495.5703125</ele>
        <time>2018-11-18T10:54:31Z</time>
      </trkpt>
      <trkpt lat="43.29532" lon="5.95157">
        <ele>494.98046875</ele>
        <time>2018-11-18T10:54:32Z</time>
      </trkpt>
      <trkpt lat="43.29529" lon="5.95158">
        <ele>493.97265625</ele>
        <time>2018-11-18T10:54:33Z</time>
      </trkpt>
      <trkpt lat="43.29525" lon="5.95157">
        <ele>493.21484375</ele>
        <time>2018-11-18T10:54:34Z</time>
      </trkpt>
      <trkpt lat="43.29522" lon="5.95156">
        <ele>492.421875</ele>
        <time>2018-11-18T10:54:35Z</time>
      </trkpt>
      <trkpt lat="43.29491" lon="5.95144">
        <ele>485.23046875</ele>
        <time>2018-11-18T10:54:44Z</time>
      </trkpt>
      <trkpt lat="43.29484" lon="5.95137">
        <ele>482.91015625</ele>
        <time>2018-11-18T10:54:46Z</time>
      </trkpt>
      <trkpt lat="43.2948" lon="5.95134">
        <ele>482.2421875</ele>
        <time>2018-11-18T10:54:47Z</time>
      </trkpt>
      <trkpt lat="43.29458" lon="5.95114">
        <ele>477.875</ele>
        <time>2018-11-18T10:54:56Z</time>
      </trkpt>
      <trkpt lat="43.29434" lon="5.95099">
        <ele>475.20703125</ele>
        <time>2018-11-18T10:55:05Z</time>
      </trkpt>
      <trkpt lat="43.29428" lon="5.95097">
        <ele>474.45703125</ele>
        <time>2018-11-18T10:55:27Z</time>
      </trkpt>
      <trkpt lat="43.29426" lon="5.95098">
        <ele>473.8125</ele>
        <time>2018-11-18T10:55:34Z</time>
      </trkpt>
      <trkpt lat="43.29424" lon="5.95099">
        <ele>473.2109375</ele>
        <time>2018-11-18T10:55:35Z</time>
      </trkpt>
      <trkpt lat="43.29422" lon="5.95101">
        <ele>472.43359375</ele>
        <time>2018-11-18T10:55:36Z</time>
      </trkpt>
      <trkpt lat="43.2942" lon="5.95101">
        <ele>471.9765625</ele>
        <time>2018-11-18T10:55:37Z</time>
      </trkpt>
      <trkpt lat="43.29417" lon="5.95099">
        <ele>471.71484375</ele>
        <time>2018-11-18T10:55:38Z</time>
      </trkpt>
      <trkpt lat="43.29414" lon="5.95098">
        <ele>471.51171875</ele>
        <time>2018-11-18T10:55:39Z</time>
      </trkpt>
      <trkpt lat="43.29411" lon="5.95096">
        <ele>471.32421875</ele>
        <time>2018-11-18T10:55:40Z</time>
      </trkpt>
      <trkpt lat="43.29409" lon="5.95093">
        <ele>471.375</ele>
        <time>2018-11-18T10:55:41Z</time>
      </trkpt>
      <trkpt lat="43.29407" lon="5.95091">
        <ele>471.53125</ele>
        <time>2018-11-18T10:55:42Z</time>
      </trkpt>
      <trkpt lat="43.29405" lon="5.95089">
        <ele>471.55078125</ele>
        <time>2018-11-18T10:55:43Z</time>
      </trkpt>
      <trkpt lat="43.29403" lon="5.95087">
        <ele>471.45703125</ele>
        <time>2018-11-18T10:55:44Z</time>
      </trkpt>
      <trkpt lat="43.29401" lon="5.95085">
        <ele>471.36328125</ele>
        <time>2018-11-18T10:55:45Z</time>
      </trkpt>
      <trkpt lat="43.29388" lon="5.95083">
        <ele>469.62109375</ele>
        <time>2018-11-18T10:55:51Z</time>
      </trkpt>
      <trkpt lat="43.29388" lon="5.95087">
        <ele>468.96484375</ele>
        <time>2018-11-18T10:55:52Z</time>
      </trkpt>
      <trkpt lat="43.29386" lon="5.95091">
        <ele>468.00390625</ele>
        <time>2018-11-18T10:55:53Z</time>
      </trkpt>
      <trkpt lat="43.29383" lon="5.95095">
        <ele>467.0546875</ele>
        <time>2018-11-18T10:55:54Z</time>
      </trkpt>
      <trkpt lat="43.29379" lon="5.95098">
        <ele>466.32421875</ele>
        <time>2018-11-18T10:55:55Z</time>
      </trkpt>
      <trkpt lat="43.29375" lon="5.95099">
        <ele>465.80078125</ele>
        <time>2018-11-18T10:55:56Z</time>
      </trkpt>
      <trkpt lat="43.29372" lon="5.951">
        <ele>465.390625</ele>
        <time>2018-11-18T10:55:57Z</time>
      </trkpt>
      <trkpt lat="43.2935" lon="5.95102">
        <ele>463.51953125</ele>
        <time>2018-11-18T10:56:06Z</time>
      </trkpt>
      <trkpt lat="43.29349" lon="5.95103">
        <ele>463.1640625</ele>
        <time>2018-11-18T10:56:07Z</time>
      </trkpt>
      <trkpt lat="43.29345" lon="5.95107">
        <ele>462.19140625</ele>
        <time>2018-11-18T10:56:09Z</time>
      </trkpt>
      <trkpt lat="43.29343" lon="5.9511">
        <ele>461.62109375</ele>
        <time>2018-11-18T10:56:18Z</time>
      </trkpt>
      <trkpt lat="43.29342" lon="5.95111">
        <ele>461.5546875</ele>
        <time>2018-11-18T10:56:19Z</time>
      </trkpt>
      <trkpt lat="43.2934" lon="5.95111">
        <ele>461.4375</ele>
        <time>2018-11-18T10:56:20Z</time>
      </trkpt>
      <trkpt lat="43.29339" lon="5.9511">
        <ele>461.3125</ele>
        <time>2018-11-18T10:56:21Z</time>
      </trkpt>
      <trkpt lat="43.29336" lon="5.9511">
        <ele>461.1484375</ele>
        <time>2018-11-18T10:56:22Z</time>
      </trkpt>
      <trkpt lat="43.29334" lon="5.9511">
        <ele>460.94921875</ele>
        <time>2018-11-18T10:56:23Z</time>
      </trkpt>
      <trkpt lat="43.2933" lon="5.95109">
        <ele>460.81640625</ele>
        <time>2018-11-18T10:56:24Z</time>
      </trkpt>
      <trkpt lat="43.29327" lon="5.95107">
        <ele>460.80859375</ele>
        <time>2018-11-18T10:56:25Z</time>
      </trkpt>
      <trkpt lat="43.29323" lon="5.95106">
        <ele>460.80859375</ele>
        <time>2018-11-18T10:56:26Z</time>
      </trkpt>
      <trkpt lat="43.2932" lon="5.95106">
        <ele>460.60546875</ele>
        <time>2018-11-18T10:56:27Z</time>
      </trkpt>
      <trkpt lat="43.29317" lon="5.95106">
        <ele>460.34765625</ele>
        <time>2018-11-18T10:56:28Z</time>
      </trkpt>
      <trkpt lat="43.29314" lon="5.95105">
        <ele>460.203125</ele>
        <time>2018-11-18T10:56:29Z</time>
      </trkpt>
      <trkpt lat="43.29311" lon="5.95104">
        <ele>460.13671875</ele>
        <time>2018-11-18T10:56:30Z</time>
      </trkpt>
      <trkpt lat="43.29307" lon="5.95104">
        <ele>459.90625</ele>
        <time>2018-11-18T10:56:31Z</time>
      </trkpt>
      <trkpt lat="43.29303" lon="5.95103">
        <ele>459.3984375</ele>
        <time>2018-11-18T10:56:32Z</time>
      </trkpt>
      <trkpt lat="43.293" lon="5.95101">
        <ele>459.2265625</ele>
        <time>2018-11-18T10:56:33Z</time>
      </trkpt>
      <trkpt lat="43.29298" lon="5.95098">
        <ele>459.3515625</ele>
        <time>2018-11-18T10:56:34Z</time>
      </trkpt>
      <trkpt lat="43.29296" lon="5.95095">
        <ele>459.5703125</ele>
        <time>2018-11-18T10:56:35Z</time>
      </trkpt>
      <trkpt lat="43.29293" lon="5.95091">
        <ele>459.78125</ele>
        <time>2018-11-18T10:56:36Z</time>
      </trkpt>
      <trkpt lat="43.29291" lon="5.95088">
        <ele>459.8203125</ele>
        <time>2018-11-18T10:56:37Z</time>
      </trkpt>
      <trkpt lat="43.29289" lon="5.95087">
        <ele>459.72265625</ele>
        <time>2018-11-18T10:56:38Z</time>
      </trkpt>
      <trkpt lat="43.29287" lon="5.95085">
        <ele>459.640625</ele>
        <time>2018-11-18T10:56:39Z</time>
      </trkpt>
      <trkpt lat="43.29274" lon="5.95069">
        <ele>460.54296875</ele>
        <time>2018-11-18T10:56:46Z</time>
      </trkpt>
      <trkpt lat="43.29272" lon="5.95068">
        <ele>460.19921875</ele>
        <time>2018-11-18T10:56:47Z</time>
      </trkpt>
      <trkpt lat="43.29269" lon="5.95067">
        <ele>459.84765625</ele>
        <time>2018-11-18T10:56:48Z</time>
      </trkpt>
      <trkpt lat="43.29266" lon="5.95065">
        <ele>459.59765625</ele>
        <time>2018-11-18T10:56:49Z</time>
      </trkpt>
      <trkpt lat="43.29264" lon="5.95063">
        <ele>459.43359375</ele>
        <time>2018-11-18T10:56:50Z</time>
      </trkpt>
      <trkpt lat="43.29262" lon="5.95061">
        <ele>459.3984375</ele>
        <time>2018-11-18T10:56:51Z</time>
      </trkpt>
      <trkpt lat="43.2926" lon="5.95058">
        <ele>459.359375</ele>
        <time>2018-11-18T10:56:52Z</time>
      </trkpt>
      <trkpt lat="43.29255" lon="5.95049">
        <ele>459.80078125</ele>
        <time>2018-11-18T10:57:00Z</time>
      </trkpt>
      <trkpt lat="43.29255" lon="5.95047">
        <ele>460.09765625</ele>
        <time>2018-11-18T10:57:19Z</time>
      </trkpt>
      <trkpt lat="43.29247" lon="5.95039">
        <ele>460.17578125</ele>
        <time>2018-11-18T10:57:26Z</time>
      </trkpt>
      <trkpt lat="43.29232" lon="5.95032">
        <ele>459.46484375</ele>
        <time>2018-11-18T10:57:36Z</time>
      </trkpt>
      <trkpt lat="43.29231" lon="5.95029">
        <ele>459.81640625</ele>
        <time>2018-11-18T10:57:39Z</time>
      </trkpt>
      <trkpt lat="43.29231" lon="5.95027">
        <ele>460.015625</ele>
        <time>2018-11-18T10:57:40Z</time>
      </trkpt>
      <trkpt lat="43.2923" lon="5.95025">
        <ele>460.203125</ele>
        <time>2018-11-18T10:57:41Z</time>
      </trkpt>
      <trkpt lat="43.2923" lon="5.95022">
        <ele>460.4609375</ele>
        <time>2018-11-18T10:57:42Z</time>
      </trkpt>
      <trkpt lat="43.29229" lon="5.95019">
        <ele>460.69921875</ele>
        <time>2018-11-18T10:57:43Z</time>
      </trkpt>
      <trkpt lat="43.29228" lon="5.95016">
        <ele>460.84375</ele>
        <time>2018-11-18T10:57:44Z</time>
      </trkpt>
      <trkpt lat="43.29227" lon="5.95014">
        <ele>460.8828125</ele>
        <time>2018-11-18T10:57:45Z</time>
      </trkpt>
      <trkpt lat="43.29225" lon="5.95012">
        <ele>460.82421875</ele>
        <time>2018-11-18T10:57:46Z</time>
      </trkpt>
      <trkpt lat="43.29224" lon="5.95011">
        <ele>460.71484375</ele>
        <time>2018-11-18T10:57:47Z</time>
      </trkpt>
      <trkpt lat="43.29222" lon="5.95009">
        <ele>460.671875</ele>
        <time>2018-11-18T10:57:48Z</time>
      </trkpt>
      <trkpt lat="43.29213" lon="5.94989">
        <ele>460.953125</ele>
        <time>2018-11-18T10:57:55Z</time>
      </trkpt>
      <trkpt lat="43.29205" lon="5.94962">
        <ele>461.53125</ele>
        <time>2018-11-18T10:58:04Z</time>
      </trkpt>
      <trkpt lat="43.29201" lon="5.94954">
        <ele>460.92578125</ele>
        <time>2018-11-18T10:58:07Z</time>
      </trkpt>
      <trkpt lat="43.29192" lon="5.94933">
        <ele>459.66015625</ele>
        <time>2018-11-18T10:58:17Z</time>
      </trkpt>
      <trkpt lat="43.29191" lon="5.9493">
        <ele>459.5390625</ele>
        <time>2018-11-18T10:58:18Z</time>
      </trkpt>
      <trkpt lat="43.29182" lon="5.94922">
        <ele>458.00390625</ele>
        <time>2018-11-18T10:58:23Z</time>
      </trkpt>
      <trkpt lat="43.29159" lon="5.949">
        <ele>454.83984375</ele>
        <time>2018-11-18T10:58:33Z</time>
      </trkpt>
      <trkpt lat="43.29123" lon="5.94891">
        <ele>449.390625</ele>
        <time>2018-11-18T10:58:44Z</time>
      </trkpt>
      <trkpt lat="43.29092" lon="5.94873">
        <ele>446.83984375</ele>
        <time>2018-11-18T10:58:54Z</time>
      </trkpt>
      <trkpt lat="43.2908" lon="5.94853">
        <ele>447.21484375</ele>
        <time>2018-11-18T10:59:01Z</time>
      </trkpt>
      <trkpt lat="43.29078" lon="5.94851">
        <ele>447.32421875</ele>
        <time>2018-11-18T10:59:02Z</time>
      </trkpt>
      <trkpt lat="43.29076" lon="5.94847">
        <ele>447.45703125</ele>
        <time>2018-11-18T10:59:03Z</time>
      </trkpt>
      <trkpt lat="43.29075" lon="5.94844">
        <ele>447.70703125</ele>
        <time>2018-11-18T10:59:04Z</time>
      </trkpt>
      <trkpt lat="43.29073" lon="5.9484">
        <ele>447.9375</ele>
        <time>2018-11-18T10:59:05Z</time>
      </trkpt>
      <trkpt lat="43.29072" lon="5.94838">
        <ele>447.96875</ele>
        <time>2018-11-18T10:59:06Z</time>
      </trkpt>
      <trkpt lat="43.29069" lon="5.94837">
        <ele>447.8125</ele>
        <time>2018-11-18T10:59:07Z</time>
      </trkpt>
      <trkpt lat="43.29066" lon="5.94836">
        <ele>447.53515625</ele>
        <time>2018-11-18T10:59:08Z</time>
      </trkpt>
      <trkpt lat="43.29063" lon="5.94836">
        <ele>447.21875</ele>
        <time>2018-11-18T10:59:09Z</time>
      </trkpt>
      <trkpt lat="43.29059" lon="5.94837">
        <ele>446.69921875</ele>
        <time>2018-11-18T10:59:11Z</time>
      </trkpt>
      <trkpt lat="43.29046" lon="5.94838">
        <ele>445.31640625</ele>
        <time>2018-11-18T10:59:17Z</time>
      </trkpt>
      <trkpt lat="43.29044" lon="5.94836">
        <ele>445.33203125</ele>
        <time>2018-11-18T10:59:18Z</time>
      </trkpt>
      <trkpt lat="43.29043" lon="5.94834">
        <ele>445.37890625</ele>
        <time>2018-11-18T10:59:19Z</time>
      </trkpt>
      <trkpt lat="43.29042" lon="5.94832">
        <ele>445.4453125</ele>
        <time>2018-11-18T10:59:20Z</time>
      </trkpt>
      <trkpt lat="43.29039" lon="5.9483">
        <ele>445.24609375</ele>
        <time>2018-11-18T10:59:31Z</time>
      </trkpt>
      <trkpt lat="43.29027" lon="5.94814">
        <ele>444.98828125</ele>
        <time>2018-11-18T10:59:47Z</time>
      </trkpt>
      <trkpt lat="43.29021" lon="5.94805">
        <ele>444.8125</ele>
        <time>2018-11-18T10:59:50Z</time>
      </trkpt>
      <trkpt lat="43.29019" lon="5.94803">
        <ele>444.6484375</ele>
        <time>2018-11-18T10:59:51Z</time>
      </trkpt>
      <trkpt lat="43.29017" lon="5.94801">
        <ele>444.39453125</ele>
        <time>2018-11-18T10:59:52Z</time>
      </trkpt>
      <trkpt lat="43.29013" lon="5.94798">
        <ele>444.05859375</ele>
        <time>2018-11-18T10:59:53Z</time>
      </trkpt>
      <trkpt lat="43.2901" lon="5.94794">
        <ele>443.734375</ele>
        <time>2018-11-18T10:59:54Z</time>
      </trkpt>
      <trkpt lat="43.29006" lon="5.94791">
        <ele>443.32421875</ele>
        <time>2018-11-18T10:59:55Z</time>
      </trkpt>
      <trkpt lat="43.28984" lon="5.94764">
        <ele>440.80859375</ele>
        <time>2018-11-18T11:00:04Z</time>
      </trkpt>
      <trkpt lat="43.28972" lon="5.94735">
        <ele>440.2578125</ele>
        <time>2018-11-18T11:00:13Z</time>
      </trkpt>
      <trkpt lat="43.2897" lon="5.94731">
        <ele>440.17578125</ele>
        <time>2018-11-18T11:00:14Z</time>
      </trkpt>
      <trkpt lat="43.28969" lon="5.94727">
        <ele>440.06640625</ele>
        <time>2018-11-18T11:00:15Z</time>
      </trkpt>
      <trkpt lat="43.28966" lon="5.94724">
        <ele>439.82421875</ele>
        <time>2018-11-18T11:00:16Z</time>
      </trkpt>
      <trkpt lat="43.28963" lon="5.94721">
        <ele>439.546875</ele>
        <time>2018-11-18T11:00:17Z</time>
      </trkpt>
      <trkpt lat="43.28941" lon="5.94702">
        <ele>437.140625</ele>
        <time>2018-11-18T11:00:24Z</time>
      </trkpt>
      <trkpt lat="43.28928" lon="5.94693">
        <ele>436.07421875</ele>
        <time>2018-11-18T11:00:27Z</time>
      </trkpt>
      <trkpt lat="43.28918" lon="5.94689">
        <ele>435.15625</ele>
        <time>2018-11-18T11:00:29Z</time>
      </trkpt>
      <trkpt lat="43.28913" lon="5.94687">
        <ele>434.71484375</ele>
        <time>2018-11-18T11:00:30Z</time>
      </trkpt>
      <trkpt lat="43.28904" lon="5.94682">
        <ele>433.93359375</ele>
        <time>2018-11-18T11:00:32Z</time>
      </trkpt>
      <trkpt lat="43.28864" lon="5.94669">
        <ele>430.859375</ele>
        <time>2018-11-18T11:00:43Z</time>
      </trkpt>
      <trkpt lat="43.28828" lon="5.94663">
        <ele>428.66015625</ele>
        <time>2018-11-18T11:00:52Z</time>
      </trkpt>
      <trkpt lat="43.28821" lon="5.9466">
        <ele>428.30859375</ele>
        <time>2018-11-18T11:00:54Z</time>
      </trkpt>
      <trkpt lat="43.28807" lon="5.94647">
        <ele>427.67578125</ele>
        <time>2018-11-18T11:00:58Z</time>
      </trkpt>
      <trkpt lat="43.28801" lon="5.94636">
        <ele>427.59765625</ele>
        <time>2018-11-18T11:01:01Z</time>
      </trkpt>
      <trkpt lat="43.28802" lon="5.94633">
        <ele>427.640625</ele>
        <time>2018-11-18T11:01:02Z</time>
      </trkpt>
      <trkpt lat="43.28803" lon="5.94629">
        <ele>427.71875</ele>
        <time>2018-11-18T11:01:03Z</time>
      </trkpt>
      <trkpt lat="43.28805" lon="5.94626">
        <ele>427.83984375</ele>
        <time>2018-11-18T11:01:04Z</time>
      </trkpt>
      <trkpt lat="43.28807" lon="5.94624">
        <ele>428</ele>
        <time>2018-11-18T11:01:05Z</time>
      </trkpt>
      <trkpt lat="43.28809" lon="5.94622">
        <ele>428.25</ele>
        <time>2018-11-18T11:01:06Z</time>
      </trkpt>
      <trkpt lat="43.28815" lon="5.94611">
        <ele>428.88671875</ele>
        <time>2018-11-18T11:01:09Z</time>
      </trkpt>
      <trkpt lat="43.28815" lon="5.94606">
        <ele>428.85546875</ele>
        <time>2018-11-18T11:01:10Z</time>
      </trkpt>
      <trkpt lat="43.28813" lon="5.94601">
        <ele>428.765625</ele>
        <time>2018-11-18T11:01:11Z</time>
      </trkpt>
      <trkpt lat="43.28812" lon="5.94597">
        <ele>428.5703125</ele>
        <time>2018-11-18T11:01:12Z</time>
      </trkpt>
      <trkpt lat="43.28809" lon="5.94594">
        <ele>428.31640625</ele>
        <time>2018-11-18T11:01:13Z</time>
      </trkpt>
      <trkpt lat="43.28807" lon="5.9459">
        <ele>427.99609375</ele>
        <time>2018-11-18T11:01:14Z</time>
      </trkpt>
      <trkpt lat="43.28804" lon="5.94588">
        <ele>427.71484375</ele>
        <time>2018-11-18T11:01:15Z</time>
      </trkpt>
      <trkpt lat="43.28795" lon="5.94575">
        <ele>426.97265625</ele>
        <time>2018-11-18T11:01:23Z</time>
      </trkpt>
      <trkpt lat="43.28795" lon="5.94572">
        <ele>427.07421875</ele>
        <time>2018-11-18T11:01:45Z</time>
      </trkpt>
      <trkpt lat="43.28794" lon="5.94572">
        <ele>427.03125</ele>
        <time>2018-11-18T11:02:10Z</time>
      </trkpt>
      <trkpt lat="43.28794" lon="5.9457">
        <ele>427.04296875</ele>
        <time>2018-11-18T11:02:24Z</time>
      </trkpt>
      <trkpt lat="43.28794" lon="5.94569">
        <ele>427.015625</ele>
        <time>2018-11-18T11:02:50Z</time>
      </trkpt>
      <trkpt lat="43.28793" lon="5.9457">
        <ele>426.97265625</ele>
        <time>2018-11-18T11:03:13Z</time>
      </trkpt>
      <trkpt lat="43.28791" lon="5.94566">
        <ele>426.875</ele>
        <time>2018-11-18T11:03:31Z</time>
      </trkpt>
      <trkpt lat="43.28767" lon="5.94557">
        <ele>425.0546875</ele>
        <time>2018-11-18T11:03:44Z</time>
      </trkpt>
      <trkpt lat="43.28747" lon="5.94565">
        <ele>423.69140625</ele>
        <time>2018-11-18T11:03:54Z</time>
      </trkpt>
      <trkpt lat="43.28744" lon="5.94566">
        <ele>423.484375</ele>
        <time>2018-11-18T11:03:55Z</time>
      </trkpt>
      <trkpt lat="43.28741" lon="5.94566">
        <ele>423.25</ele>
        <time>2018-11-18T11:03:56Z</time>
      </trkpt>
      <trkpt lat="43.28733" lon="5.94567">
        <ele>422.671875</ele>
        <time>2018-11-18T11:03:58Z</time>
      </trkpt>
      <trkpt lat="43.28728" lon="5.94568">
        <ele>422.30078125</ele>
        <time>2018-11-18T11:03:59Z</time>
      </trkpt>
      <trkpt lat="43.28717" lon="5.94569">
        <ele>421.3984375</ele>
        <time>2018-11-18T11:04:01Z</time>
      </trkpt>
      <trkpt lat="43.28702" lon="5.94567">
        <ele>420.0546875</ele>
        <time>2018-11-18T11:04:04Z</time>
      </trkpt>
      <trkpt lat="43.28699" lon="5.94568">
        <ele>419.8359375</ele>
        <time>2018-11-18T11:04:05Z</time>
      </trkpt>
      <trkpt lat="43.28698" lon="5.94568">
        <ele>419.6640625</ele>
        <time>2018-11-18T11:04:06Z</time>
      </trkpt>
      <trkpt lat="43.28695" lon="5.9457">
        <ele>419.37890625</ele>
        <time>2018-11-18T11:04:08Z</time>
      </trkpt>
      <trkpt lat="43.28694" lon="5.94572">
        <ele>419.234375</ele>
        <time>2018-11-18T11:04:09Z</time>
      </trkpt>
      <trkpt lat="43.28693" lon="5.94573">
        <ele>419.0859375</ele>
        <time>2018-11-18T11:04:10Z</time>
      </trkpt>
      <trkpt lat="43.28692" lon="5.94607">
        <ele>418.71484375</ele>
        <time>2018-11-18T11:04:20Z</time>
      </trkpt>
      <trkpt lat="43.28691" lon="5.94608">
        <ele>418.6640625</ele>
        <time>2018-11-18T11:04:42Z</time>
      </trkpt>
      <trkpt lat="43.2869" lon="5.9461">
        <ele>418.5625</ele>
        <time>2018-11-18T11:05:11Z</time>
      </trkpt>
      <trkpt lat="43.2869" lon="5.94633">
        <ele>417.75</ele>
        <time>2018-11-18T11:05:23Z</time>
      </trkpt>
      <trkpt lat="43.28705" lon="5.94664">
        <ele>417.73046875</ele>
        <time>2018-11-18T11:05:34Z</time>
      </trkpt>
      <trkpt lat="43.28723" lon="5.94703">
        <ele>418.9375</ele>
        <time>2018-11-18T11:05:44Z</time>
      </trkpt>
      <trkpt lat="43.28723" lon="5.94707">
        <ele>418.9140625</ele>
        <time>2018-11-18T11:05:45Z</time>
      </trkpt>
      <trkpt lat="43.28722" lon="5.94712">
        <ele>418.8828125</ele>
        <time>2018-11-18T11:05:46Z</time>
      </trkpt>
      <trkpt lat="43.28722" lon="5.94722">
        <ele>418.83984375</ele>
        <time>2018-11-18T11:05:48Z</time>
      </trkpt>
      <trkpt lat="43.28723" lon="5.94726">
        <ele>418.78125</ele>
        <time>2018-11-18T11:05:49Z</time>
      </trkpt>
      <trkpt lat="43.28723" lon="5.94777">
        <ele>417.9921875</ele>
        <time>2018-11-18T11:06:00Z</time>
      </trkpt>
      <trkpt lat="43.28721" lon="5.94784">
        <ele>417.890625</ele>
        <time>2018-11-18T11:06:04Z</time>
      </trkpt>
      <trkpt lat="43.28721" lon="5.94792">
        <ele>417.8984375</ele>
        <time>2018-11-18T11:06:14Z</time>
      </trkpt>
      <trkpt lat="43.28722" lon="5.94797">
        <ele>417.9296875</ele>
        <time>2018-11-18T11:06:29Z</time>
      </trkpt>
      <trkpt lat="43.28722" lon="5.94799">
        <ele>417.93359375</ele>
        <time>2018-11-18T11:06:30Z</time>
      </trkpt>
      <trkpt lat="43.28722" lon="5.94802">
        <ele>417.9375</ele>
        <time>2018-11-18T11:06:31Z</time>
      </trkpt>
      <trkpt lat="43.28722" lon="5.94805">
        <ele>417.953125</ele>
        <time>2018-11-18T11:06:32Z</time>
      </trkpt>
      <trkpt lat="43.28723" lon="5.94808">
        <ele>417.96484375</ele>
        <time>2018-11-18T11:06:33Z</time>
      </trkpt>
      <trkpt lat="43.28723" lon="5.94812">
        <ele>417.96484375</ele>
        <time>2018-11-18T11:06:34Z</time>
      </trkpt>
      <trkpt lat="43.28723" lon="5.94815">
        <ele>417.97265625</ele>
        <time>2018-11-18T11:06:35Z</time>
      </trkpt>
      <trkpt lat="43.28723" lon="5.94819">
        <ele>417.98828125</ele>
        <time>2018-11-18T11:06:36Z</time>
      </trkpt>
      <trkpt lat="43.28723" lon="5.94823">
        <ele>417.9921875</ele>
        <time>2018-11-18T11:06:37Z</time>
      </trkpt>
      <trkpt lat="43.28723" lon="5.94828">
        <ele>417.98828125</ele>
        <time>2018-11-18T11:06:38Z</time>
      </trkpt>
      <trkpt lat="43.28729" lon="5.94856">
        <ele>418.87890625</ele>
        <time>2018-11-18T11:06:45Z</time>
      </trkpt>
      <trkpt lat="43.28731" lon="5.94858">
        <ele>418.94140625</ele>
        <time>2018-11-18T11:06:46Z</time>
      </trkpt>
      <trkpt lat="43.28755" lon="5.94883">
        <ele>419.96875</ele>
        <time>2018-11-18T11:06:59Z</time>
      </trkpt>
      <trkpt lat="43.2875" lon="5.94922">
        <ele>419.9609375</ele>
        <time>2018-11-18T11:07:09Z</time>
      </trkpt>
      <trkpt lat="43.28744" lon="5.94944">
        <ele>419.7421875</ele>
        <time>2018-11-18T11:07:15Z</time>
      </trkpt>
      <trkpt lat="43.28742" lon="5.94946">
        <ele>419.65625</ele>
        <time>2018-11-18T11:07:16Z</time>
      </trkpt>
      <trkpt lat="43.28739" lon="5.94947">
        <ele>419.5390625</ele>
        <time>2018-11-18T11:07:17Z</time>
      </trkpt>
      <trkpt lat="43.28735" lon="5.94946">
        <ele>419.4140625</ele>
        <time>2018-11-18T11:07:18Z</time>
      </trkpt>
      <trkpt lat="43.28732" lon="5.94944">
        <ele>419.296875</ele>
        <time>2018-11-18T11:07:19Z</time>
      </trkpt>
      <trkpt lat="43.2872" lon="5.94941">
        <ele>419</ele>
        <time>2018-11-18T11:07:24Z</time>
      </trkpt>
      <trkpt lat="43.28719" lon="5.94942">
        <ele>419</ele>
        <time>2018-11-18T11:07:25Z</time>
      </trkpt>
      <trkpt lat="43.28718" lon="5.94943">
        <ele>419.00390625</ele>
        <time>2018-11-18T11:07:26Z</time>
      </trkpt>
      <trkpt lat="43.28717" lon="5.94945">
        <ele>419.01953125</ele>
        <time>2018-11-18T11:07:27Z</time>
      </trkpt>
      <trkpt lat="43.28711" lon="5.94948">
        <ele>419.08984375</ele>
        <time>2018-11-18T11:07:37Z</time>
      </trkpt>
      <trkpt lat="43.28693" lon="5.94961">
        <ele>419.47265625</ele>
        <time>2018-11-18T11:07:48Z</time>
      </trkpt>
      <trkpt lat="43.28669" lon="5.94968">
        <ele>418.06640625</ele>
        <time>2018-11-18T11:07:58Z</time>
      </trkpt>
      <trkpt lat="43.28666" lon="5.94971">
        <ele>417.828125</ele>
        <time>2018-11-18T11:08:12Z</time>
      </trkpt>
      <trkpt lat="43.28664" lon="5.94969">
        <ele>417.6953125</ele>
        <time>2018-11-18T11:08:13Z</time>
      </trkpt>
      <trkpt lat="43.28662" lon="5.94969">
        <ele>417.5625</ele>
        <time>2018-11-18T11:08:14Z</time>
      </trkpt>
      <trkpt lat="43.2866" lon="5.94969">
        <ele>417.41796875</ele>
        <time>2018-11-18T11:08:15Z</time>
      </trkpt>
      <trkpt lat="43.28657" lon="5.94968">
        <ele>417.23046875</ele>
        <time>2018-11-18T11:08:16Z</time>
      </trkpt>
      <trkpt lat="43.28655" lon="5.94967">
        <ele>417.05859375</ele>
        <time>2018-11-18T11:08:17Z</time>
      </trkpt>
      <trkpt lat="43.28652" lon="5.94966">
        <ele>416.859375</ele>
        <time>2018-11-18T11:08:18Z</time>
      </trkpt>
      <trkpt lat="43.28649" lon="5.94965">
        <ele>416.65234375</ele>
        <time>2018-11-18T11:08:19Z</time>
      </trkpt>
      <trkpt lat="43.28628" lon="5.94986">
        <ele>415.01171875</ele>
        <time>2018-11-18T11:08:28Z</time>
      </trkpt>
      <trkpt lat="43.28606" lon="5.95023">
        <ele>414.45703125</ele>
        <time>2018-11-18T11:08:38Z</time>
      </trkpt>
      <trkpt lat="43.28589" lon="5.95031">
        <ele>413.44140625</ele>
        <time>2018-11-18T11:08:43Z</time>
      </trkpt>
      <trkpt lat="43.28587" lon="5.95033">
        <ele>413.375</ele>
        <time>2018-11-18T11:08:44Z</time>
      </trkpt>
      <trkpt lat="43.28574" lon="5.95045">
        <ele>413.79296875</ele>
        <time>2018-11-18T11:08:51Z</time>
      </trkpt>
      <trkpt lat="43.28573" lon="5.95045">
        <ele>413.8125</ele>
        <time>2018-11-18T11:08:52Z</time>
      </trkpt>
      <trkpt lat="43.28571" lon="5.95045">
        <ele>413.84375</ele>
        <time>2018-11-18T11:08:53Z</time>
      </trkpt>
      <trkpt lat="43.28568" lon="5.95047">
        <ele>413.890625</ele>
        <time>2018-11-18T11:08:54Z</time>
      </trkpt>
      <trkpt lat="43.28565" lon="5.95048">
        <ele>413.9375</ele>
        <time>2018-11-18T11:08:55Z</time>
      </trkpt>
      <trkpt lat="43.28531" lon="5.95065">
        <ele>415.75390625</ele>
        <time>2018-11-18T11:09:07Z</time>
      </trkpt>
      <trkpt lat="43.285" lon="5.95064">
        <ele>416.46484375</ele>
        <time>2018-11-18T11:09:18Z</time>
      </trkpt>
      <trkpt lat="43.2847" lon="5.95065">
        <ele>418.6796875</ele>
        <time>2018-11-18T11:09:32Z</time>
      </trkpt>
      <trkpt lat="43.28447" lon="5.95081">
        <ele>420.890625</ele>
        <time>2018-11-18T11:09:44Z</time>
      </trkpt>
      <trkpt lat="43.2842" lon="5.95107">
        <ele>420.06640625</ele>
        <time>2018-11-18T11:09:54Z</time>
      </trkpt>
      <trkpt lat="43.28409" lon="5.95145">
        <ele>422.16015625</ele>
        <time>2018-11-18T11:10:03Z</time>
      </trkpt>
      <trkpt lat="43.28399" lon="5.95161">
        <ele>423.08203125</ele>
        <time>2018-11-18T11:10:08Z</time>
      </trkpt>
      <trkpt lat="43.28395" lon="5.95163">
        <ele>423.02734375</ele>
        <time>2018-11-18T11:10:09Z</time>
      </trkpt>
      <trkpt lat="43.28391" lon="5.95164">
        <ele>422.859375</ele>
        <time>2018-11-18T11:10:10Z</time>
      </trkpt>
      <trkpt lat="43.28386" lon="5.95163">
        <ele>422.328125</ele>
        <time>2018-11-18T11:10:11Z</time>
      </trkpt>
      <trkpt lat="43.28382" lon="5.95162">
        <ele>421.66015625</ele>
        <time>2018-11-18T11:10:12Z</time>
      </trkpt>
      <trkpt lat="43.28377" lon="5.9516">
        <ele>420.9296875</ele>
        <time>2018-11-18T11:10:13Z</time>
      </trkpt>
      <trkpt lat="43.28369" lon="5.95157">
        <ele>419.578125</ele>
        <time>2018-11-18T11:10:15Z</time>
      </trkpt>
      <trkpt lat="43.28344" lon="5.95142">
        <ele>415.28515625</ele>
        <time>2018-11-18T11:10:25Z</time>
      </trkpt>
      <trkpt lat="43.28316" lon="5.95111">
        <ele>411.1953125</ele>
        <time>2018-11-18T11:10:37Z</time>
      </trkpt>
      <trkpt lat="43.28277" lon="5.95101">
        <ele>412.76953125</ele>
        <time>2018-11-18T11:10:49Z</time>
      </trkpt>
      <trkpt lat="43.28245" lon="5.95111">
        <ele>413.796875</ele>
        <time>2018-11-18T11:11:02Z</time>
      </trkpt>
      <trkpt lat="43.28219" lon="5.9514">
        <ele>412.27734375</ele>
        <time>2018-11-18T11:11:12Z</time>
      </trkpt>
      <trkpt lat="43.28216" lon="5.95145">
        <ele>411.8125</ele>
        <time>2018-11-18T11:11:13Z</time>
      </trkpt>
      <trkpt lat="43.28212" lon="5.9515">
        <ele>411.3203125</ele>
        <time>2018-11-18T11:11:14Z</time>
      </trkpt>
      <trkpt lat="43.28209" lon="5.95155">
        <ele>410.86328125</ele>
        <time>2018-11-18T11:11:15Z</time>
      </trkpt>
      <trkpt lat="43.28206" lon="5.95161">
        <ele>410.4609375</ele>
        <time>2018-11-18T11:11:16Z</time>
      </trkpt>
      <trkpt lat="43.28204" lon="5.95168">
        <ele>410.15625</ele>
        <time>2018-11-18T11:11:17Z</time>
      </trkpt>
      <trkpt lat="43.28203" lon="5.95175">
        <ele>410</ele>
        <time>2018-11-18T11:11:18Z</time>
      </trkpt>
      <trkpt lat="43.28201" lon="5.95183">
        <ele>409.875</ele>
        <time>2018-11-18T11:11:19Z</time>
      </trkpt>
      <trkpt lat="43.282" lon="5.95197">
        <ele>409.48046875</ele>
        <time>2018-11-18T11:11:21Z</time>
      </trkpt>
      <trkpt lat="43.28197" lon="5.95212">
        <ele>408.4921875</ele>
        <time>2018-11-18T11:11:23Z</time>
      </trkpt>
      <trkpt lat="43.28196" lon="5.95221">
        <ele>407.99609375</ele>
        <time>2018-11-18T11:11:24Z</time>
      </trkpt>
      <trkpt lat="43.28196" lon="5.95231">
        <ele>407.2578125</ele>
        <time>2018-11-18T11:11:25Z</time>
      </trkpt>
      <trkpt lat="43.28196" lon="5.95251">
        <ele>405.921875</ele>
        <time>2018-11-18T11:11:27Z</time>
      </trkpt>
      <trkpt lat="43.28197" lon="5.95261">
        <ele>405.69140625</ele>
        <time>2018-11-18T11:11:28Z</time>
      </trkpt>
      <trkpt lat="43.28198" lon="5.95271">
        <ele>405.64453125</ele>
        <time>2018-11-18T11:11:29Z</time>
      </trkpt>
      <trkpt lat="43.28201" lon="5.9529">
        <ele>405.828125</ele>
        <time>2018-11-18T11:11:31Z</time>
      </trkpt>
      <trkpt lat="43.28203" lon="5.95309">
        <ele>405.8828125</ele>
        <time>2018-11-18T11:11:33Z</time>
      </trkpt>
      <trkpt lat="43.28205" lon="5.95339">
        <ele>405.78125</ele>
        <time>2018-11-18T11:11:36Z</time>
      </trkpt>
      <trkpt lat="43.28205" lon="5.95349">
        <ele>405.98828125</ele>
        <time>2018-11-18T11:11:37Z</time>
      </trkpt>
      <trkpt lat="43.28206" lon="5.95375">
        <ele>406.11328125</ele>
        <time>2018-11-18T11:11:40Z</time>
      </trkpt>
      <trkpt lat="43.28206" lon="5.95383">
        <ele>406.2265625</ele>
        <time>2018-11-18T11:11:41Z</time>
      </trkpt>
      <trkpt lat="43.28206" lon="5.95391">
        <ele>406.1484375</ele>
        <time>2018-11-18T11:11:42Z</time>
      </trkpt>
      <trkpt lat="43.28206" lon="5.95398">
        <ele>406.0703125</ele>
        <time>2018-11-18T11:11:43Z</time>
      </trkpt>
      <trkpt lat="43.28205" lon="5.95406">
        <ele>406.015625</ele>
        <time>2018-11-18T11:11:44Z</time>
      </trkpt>
      <trkpt lat="43.28205" lon="5.95413">
        <ele>405.90234375</ele>
        <time>2018-11-18T11:11:45Z</time>
      </trkpt>
      <trkpt lat="43.28204" lon="5.95428">
        <ele>405.546875</ele>
        <time>2018-11-18T11:11:47Z</time>
      </trkpt>
      <trkpt lat="43.28198" lon="5.95469">
        <ele>404.37890625</ele>
        <time>2018-11-18T11:11:53Z</time>
      </trkpt>
      <trkpt lat="43.28187" lon="5.95499">
        <ele>402.0390625</ele>
        <time>2018-11-18T11:11:58Z</time>
      </trkpt>
      <trkpt lat="43.28185" lon="5.95505">
        <ele>401.80859375</ele>
        <time>2018-11-18T11:11:59Z</time>
      </trkpt>
      <trkpt lat="43.28173" lon="5.95582">
        <ele>400.265625</ele>
        <time>2018-11-18T11:12:10Z</time>
      </trkpt>
      <trkpt lat="43.28171" lon="5.9559">
        <ele>400.0625</ele>
        <time>2018-11-18T11:12:11Z</time>
      </trkpt>
      <trkpt lat="43.28151" lon="5.95668">
        <ele>400.19921875</ele>
        <time>2018-11-18T11:12:22Z</time>
      </trkpt>
      <trkpt lat="43.28147" lon="5.9568">
        <ele>399.8359375</ele>
        <time>2018-11-18T11:12:24Z</time>
      </trkpt>
      <trkpt lat="43.28144" lon="5.95685">
        <ele>399.390625</ele>
        <time>2018-11-18T11:12:25Z</time>
      </trkpt>
      <trkpt lat="43.28141" lon="5.95691">
        <ele>399.0703125</ele>
        <time>2018-11-18T11:12:26Z</time>
      </trkpt>
      <trkpt lat="43.2814" lon="5.95696">
        <ele>399.03515625</ele>
        <time>2018-11-18T11:12:27Z</time>
      </trkpt>
      <trkpt lat="43.28139" lon="5.95701">
        <ele>399.21875</ele>
        <time>2018-11-18T11:12:28Z</time>
      </trkpt>
      <trkpt lat="43.2814" lon="5.95705">
        <ele>399.59765625</ele>
        <time>2018-11-18T11:12:29Z</time>
      </trkpt>
      <trkpt lat="43.28137" lon="5.95745">
        <ele>399.91796875</ele>
        <time>2018-11-18T11:12:42Z</time>
      </trkpt>
      <trkpt lat="43.28136" lon="5.95748">
        <ele>399.76953125</ele>
        <time>2018-11-18T11:12:43Z</time>
      </trkpt>
      <trkpt lat="43.28136" lon="5.95752">
        <ele>399.625</ele>
        <time>2018-11-18T11:12:54Z</time>
      </trkpt>
      <trkpt lat="43.28134" lon="5.95752">
        <ele>399.24609375</ele>
        <time>2018-11-18T11:13:08Z</time>
      </trkpt>
      <trkpt lat="43.28135" lon="5.95753">
        <ele>399.3828125</ele>
        <time>2018-11-18T11:13:43Z</time>
      </trkpt>
      <trkpt lat="43.28133" lon="5.95753">
        <ele>398.953125</ele>
        <time>2018-11-18T11:14:23Z</time>
      </trkpt>
      <trkpt lat="43.28133" lon="5.95749">
        <ele>398.75390625</ele>
        <time>2018-11-18T11:15:05Z</time>
      </trkpt>
      <trkpt lat="43.28135" lon="5.95751">
        <ele>399.30078125</ele>
        <time>2018-11-18T11:15:48Z</time>
      </trkpt>
      <trkpt lat="43.28134" lon="5.95752">
        <ele>399.171875</ele>
        <time>2018-11-18T11:16:16Z</time>
      </trkpt>
      <trkpt lat="43.28136" lon="5.95752">
        <ele>399.61328125</ele>
        <time>2018-11-18T11:16:52Z</time>
      </trkpt>
      <trkpt lat="43.28137" lon="5.95754">
        <ele>399.9609375</ele>
        <time>2018-11-18T11:17:24Z</time>
      </trkpt>
      <trkpt lat="43.28136" lon="5.95754">
        <ele>399.75</ele>
        <time>2018-11-18T11:17:54Z</time>
      </trkpt>
      <trkpt lat="43.28134" lon="5.95753">
        <ele>399.26953125</ele>
        <time>2018-11-18T11:18:27Z</time>
      </trkpt>
      <trkpt lat="43.28133" lon="5.95752">
        <ele>398.76953125</ele>
        <time>2018-11-18T11:18:57Z</time>
      </trkpt>
      <trkpt lat="43.28135" lon="5.9575">
        <ele>399.40625</ele>
        <time>2018-11-18T11:19:27Z</time>
      </trkpt>
      <trkpt lat="43.28136" lon="5.95749">
        <ele>399.71875</ele>
        <time>2018-11-18T11:19:57Z</time>
      </trkpt>
      <trkpt lat="43.28135" lon="5.9575">
        <ele>399.51171875</ele>
        <time>2018-11-18T11:20:25Z</time>
      </trkpt>
      <trkpt lat="43.28134" lon="5.95749">
        <ele>399.13671875</ele>
        <time>2018-11-18T11:20:58Z</time>
      </trkpt>
      <trkpt lat="43.28134" lon="5.95749">
        <ele>399.0703125</ele>
        <time>2018-11-18T11:21:27Z</time>
      </trkpt>
      <trkpt lat="43.28134" lon="5.95749">
        <ele>399.11328125</ele>
        <time>2018-11-18T11:21:57Z</time>
      </trkpt>
      <trkpt lat="43.28135" lon="5.95752">
        <ele>399.50390625</ele>
        <time>2018-11-18T11:22:26Z</time>
      </trkpt>
      <trkpt lat="43.28134" lon="5.95755">
        <ele>399.3203125</ele>
        <time>2018-11-18T11:22:40Z</time>
      </trkpt>
      <trkpt lat="43.28135" lon="5.95758">
        <ele>399.44921875</ele>
        <time>2018-11-18T11:23:01Z</time>
      </trkpt>
      <trkpt lat="43.28135" lon="5.95777">
        <ele>400.015625</ele>
        <time>2018-11-18T11:23:26Z</time>
      </trkpt>
      <trkpt lat="43.28136" lon="5.95795">
        <ele>400.8984375</ele>
        <time>2018-11-18T11:23:29Z</time>
      </trkpt>
      <trkpt lat="43.28138" lon="5.95813">
        <ele>401.81640625</ele>
        <time>2018-11-18T11:23:32Z</time>
      </trkpt>
      <trkpt lat="43.28138" lon="5.9582">
        <ele>401.83203125</ele>
        <time>2018-11-18T11:23:33Z</time>
      </trkpt>
      <trkpt lat="43.28137" lon="5.95826">
        <ele>401.65625</ele>
        <time>2018-11-18T11:23:34Z</time>
      </trkpt>
      <trkpt lat="43.28136" lon="5.95832">
        <ele>401.25390625</ele>
        <time>2018-11-18T11:23:35Z</time>
      </trkpt>
      <trkpt lat="43.28135" lon="5.95837">
        <ele>400.84375</ele>
        <time>2018-11-18T11:23:36Z</time>
      </trkpt>
      <trkpt lat="43.28133" lon="5.95843">
        <ele>400.484375</ele>
        <time>2018-11-18T11:23:37Z</time>
      </trkpt>
      <trkpt lat="43.28132" lon="5.9585">
        <ele>400.171875</ele>
        <time>2018-11-18T11:23:38Z</time>
      </trkpt>
      <trkpt lat="43.28131" lon="5.95856">
        <ele>399.88671875</ele>
        <time>2018-11-18T11:23:39Z</time>
      </trkpt>
      <trkpt lat="43.2813" lon="5.95863">
        <ele>399.6875</ele>
        <time>2018-11-18T11:23:40Z</time>
      </trkpt>
      <trkpt lat="43.28129" lon="5.9587">
        <ele>399.5390625</ele>
        <time>2018-11-18T11:23:41Z</time>
      </trkpt>
      <trkpt lat="43.28129" lon="5.95901">
        <ele>399.5</ele>
        <time>2018-11-18T11:23:46Z</time>
      </trkpt>
      <trkpt lat="43.28127" lon="5.95944">
        <ele>397.8671875</ele>
        <time>2018-11-18T11:23:55Z</time>
      </trkpt>
      <trkpt lat="43.28126" lon="5.95962">
        <ele>396.91015625</ele>
        <time>2018-11-18T11:23:58Z</time>
      </trkpt>
      <trkpt lat="43.28126" lon="5.95968">
        <ele>396.95703125</ele>
        <time>2018-11-18T11:23:59Z</time>
      </trkpt>
      <trkpt lat="43.28127" lon="5.95974">
        <ele>396.84375</ele>
        <time>2018-11-18T11:24:00Z</time>
      </trkpt>
      <trkpt lat="43.28126" lon="5.9598">
        <ele>396.46484375</ele>
        <time>2018-11-18T11:24:01Z</time>
      </trkpt>
      <trkpt lat="43.28126" lon="5.95986">
        <ele>396.12109375</ele>
        <time>2018-11-18T11:24:02Z</time>
      </trkpt>
      <trkpt lat="43.28126" lon="5.95992">
        <ele>395.765625</ele>
        <time>2018-11-18T11:24:03Z</time>
      </trkpt>
      <trkpt lat="43.28126" lon="5.95997">
        <ele>395.51171875</ele>
        <time>2018-11-18T11:24:04Z</time>
      </trkpt>
      <trkpt lat="43.28126" lon="5.96002">
        <ele>395.53515625</ele>
        <time>2018-11-18T11:24:05Z</time>
      </trkpt>
      <trkpt lat="43.28125" lon="5.96006">
        <ele>395.17578125</ele>
        <time>2018-11-18T11:24:06Z</time>
      </trkpt>
      <trkpt lat="43.28123" lon="5.96008">
        <ele>394.5703125</ele>
        <time>2018-11-18T11:24:07Z</time>
      </trkpt>
      <trkpt lat="43.28122" lon="5.9601">
        <ele>394.0546875</ele>
        <time>2018-11-18T11:24:08Z</time>
      </trkpt>
      <trkpt lat="43.28122" lon="5.96012">
        <ele>393.71484375</ele>
        <time>2018-11-18T11:24:09Z</time>
      </trkpt>
      <trkpt lat="43.28121" lon="5.96015">
        <ele>393.453125</ele>
        <time>2018-11-18T11:24:10Z</time>
      </trkpt>
      <trkpt lat="43.28121" lon="5.96018">
        <ele>393.50390625</ele>
        <time>2018-11-18T11:24:11Z</time>
      </trkpt>
      <trkpt lat="43.28121" lon="5.96022">
        <ele>393.62890625</ele>
        <time>2018-11-18T11:24:12Z</time>
      </trkpt>
      <trkpt lat="43.28121" lon="5.96027">
        <ele>393.40234375</ele>
        <time>2018-11-18T11:24:13Z</time>
      </trkpt>
      <trkpt lat="43.2812" lon="5.96032">
        <ele>392.9140625</ele>
        <time>2018-11-18T11:24:14Z</time>
      </trkpt>
      <trkpt lat="43.28116" lon="5.96054">
        <ele>390.3359375</ele>
        <time>2018-11-18T11:24:18Z</time>
      </trkpt>
      <trkpt lat="43.28121" lon="5.96075">
        <ele>392.6484375</ele>
        <time>2018-11-18T11:24:22Z</time>
      </trkpt>
      <trkpt lat="43.28121" lon="5.96102">
        <ele>393.67578125</ele>
        <time>2018-11-18T11:24:29Z</time>
      </trkpt>
      <trkpt lat="43.28123" lon="5.96128">
        <ele>395.77734375</ele>
        <time>2018-11-18T11:24:38Z</time>
      </trkpt>
      <trkpt lat="43.28124" lon="5.96133">
        <ele>396.17578125</ele>
        <time>2018-11-18T11:24:40Z</time>
      </trkpt>
      <trkpt lat="43.28119" lon="5.96161">
        <ele>395.1640625</ele>
        <time>2018-11-18T11:24:50Z</time>
      </trkpt>
      <trkpt lat="43.2812" lon="5.96205">
        <ele>395.27734375</ele>
        <time>2018-11-18T11:24:59Z</time>
      </trkpt>
      <trkpt lat="43.28121" lon="5.96205">
        <ele>395.40625</ele>
        <time>2018-11-18T11:25:00Z</time>
      </trkpt>
      <trkpt lat="43.28114" lon="5.96219">
        <ele>390.75</ele>
        <time>2018-11-18T11:25:22Z</time>
      </trkpt>
      <trkpt lat="43.28115" lon="5.96221">
        <ele>391.03125</ele>
        <time>2018-11-18T11:25:43Z</time>
      </trkpt>
      <trkpt lat="43.28114" lon="5.9622">
        <ele>390.32421875</ele>
        <time>2018-11-18T11:26:06Z</time>
      </trkpt>
      <trkpt lat="43.28111" lon="5.96221">
        <ele>388.58203125</ele>
        <time>2018-11-18T11:26:39Z</time>
      </trkpt>
      <trkpt lat="43.28111" lon="5.96223">
        <ele>388.4296875</ele>
        <time>2018-11-18T11:27:07Z</time>
      </trkpt>
      <trkpt lat="43.28108" lon="5.96223">
        <ele>387</ele>
        <time>2018-11-18T11:27:12Z</time>
      </trkpt>
      <trkpt lat="43.28108" lon="5.96225">
        <ele>386.234375</ele>
        <time>2018-11-18T11:27:14Z</time>
      </trkpt>
      <trkpt lat="43.28107" lon="5.96237">
        <ele>384.27734375</ele>
        <time>2018-11-18T11:27:32Z</time>
      </trkpt>
      <trkpt lat="43.28106" lon="5.96243">
        <ele>383.17578125</ele>
        <time>2018-11-18T11:27:33Z</time>
      </trkpt>
      <trkpt lat="43.28106" lon="5.96253">
        <ele>381.90625</ele>
        <time>2018-11-18T11:27:35Z</time>
      </trkpt>
      <trkpt lat="43.28111" lon="5.96268">
        <ele>382.9375</ele>
        <time>2018-11-18T11:27:38Z</time>
      </trkpt>
      <trkpt lat="43.28113" lon="5.96274">
        <ele>382.97265625</ele>
        <time>2018-11-18T11:27:39Z</time>
      </trkpt>
      <trkpt lat="43.28114" lon="5.9628">
        <ele>383.34375</ele>
        <time>2018-11-18T11:27:40Z</time>
      </trkpt>
      <trkpt lat="43.28115" lon="5.96285">
        <ele>383.21875</ele>
        <time>2018-11-18T11:27:41Z</time>
      </trkpt>
      <trkpt lat="43.28115" lon="5.96289">
        <ele>382.62890625</ele>
        <time>2018-11-18T11:27:42Z</time>
      </trkpt>
      <trkpt lat="43.28115" lon="5.96297">
        <ele>381.16796875</ele>
        <time>2018-11-18T11:27:43Z</time>
      </trkpt>
      <trkpt lat="43.28116" lon="5.96304">
        <ele>381.2734375</ele>
        <time>2018-11-18T11:27:44Z</time>
      </trkpt>
      <trkpt lat="43.28119" lon="5.96312">
        <ele>381.20703125</ele>
        <time>2018-11-18T11:27:46Z</time>
      </trkpt>
      <trkpt lat="43.28119" lon="5.9632">
        <ele>379.78515625</ele>
        <time>2018-11-18T11:27:48Z</time>
      </trkpt>
      <trkpt lat="43.28113" lon="5.96336">
        <ele>371.3671875</ele>
        <time>2018-11-18T11:27:53Z</time>
      </trkpt>
      <trkpt lat="43.28108" lon="5.96348">
        <ele>364.37890625</ele>
        <time>2018-11-18T11:27:56Z</time>
      </trkpt>
      <trkpt lat="43.28104" lon="5.96359">
        <ele>358.84375</ele>
        <time>2018-11-18T11:27:58Z</time>
      </trkpt>
      <trkpt lat="43.28104" lon="5.96365">
        <ele>357.234375</ele>
        <time>2018-11-18T11:27:59Z</time>
      </trkpt>
      <trkpt lat="43.28105" lon="5.96371">
        <ele>355.9296875</ele>
        <time>2018-11-18T11:28:00Z</time>
      </trkpt>
      <trkpt lat="43.28109" lon="5.96389">
        <ele>352.69921875</ele>
        <time>2018-11-18T11:28:03Z</time>
      </trkpt>
      <trkpt lat="43.2811" lon="5.96397">
        <ele>350.8515625</ele>
        <time>2018-11-18T11:28:04Z</time>
      </trkpt>
      <trkpt lat="43.28111" lon="5.96404">
        <ele>348.9453125</ele>
        <time>2018-11-18T11:28:05Z</time>
      </trkpt>
      <trkpt lat="43.28112" lon="5.96411">
        <ele>347.58984375</ele>
        <time>2018-11-18T11:28:06Z</time>
      </trkpt>
      <trkpt lat="43.28114" lon="5.96417">
        <ele>347.203125</ele>
        <time>2018-11-18T11:28:07Z</time>
      </trkpt>
      <trkpt lat="43.28117" lon="5.96422">
        <ele>347.6171875</ele>
        <time>2018-11-18T11:28:08Z</time>
      </trkpt>
      <trkpt lat="43.28123" lon="5.96433">
        <ele>348.9609375</ele>
        <time>2018-11-18T11:28:10Z</time>
      </trkpt>
      <trkpt lat="43.2813" lon="5.96441">
        <ele>350.91796875</ele>
        <time>2018-11-18T11:28:12Z</time>
      </trkpt>
      <trkpt lat="43.28134" lon="5.96449">
        <ele>350.96484375</ele>
        <time>2018-11-18T11:28:15Z</time>
      </trkpt>
      <trkpt lat="43.28137" lon="5.96457">
        <ele>350.86328125</ele>
        <time>2018-11-18T11:28:19Z</time>
      </trkpt>
      <trkpt lat="43.28138" lon="5.96457">
        <ele>351.14453125</ele>
        <time>2018-11-18T11:28:20Z</time>
      </trkpt>
      <trkpt lat="43.2814" lon="5.96463">
        <ele>350.52734375</ele>
        <time>2018-11-18T11:28:32Z</time>
      </trkpt>
      <trkpt lat="43.28141" lon="5.96468">
        <ele>349.82421875</ele>
        <time>2018-11-18T11:28:39Z</time>
      </trkpt>
      <trkpt lat="43.28142" lon="5.9647">
        <ele>350.30859375</ele>
        <time>2018-11-18T11:28:40Z</time>
      </trkpt>
      <trkpt lat="43.28144" lon="5.96472">
        <ele>350.97265625</ele>
        <time>2018-11-18T11:28:41Z</time>
      </trkpt>
      <trkpt lat="43.28145" lon="5.96474">
        <ele>351.359375</ele>
        <time>2018-11-18T11:28:42Z</time>
      </trkpt>
      <trkpt lat="43.28146" lon="5.96476">
        <ele>351.66015625</ele>
        <time>2018-11-18T11:28:43Z</time>
      </trkpt>
      <trkpt lat="43.28147" lon="5.96478">
        <ele>352.23046875</ele>
        <time>2018-11-18T11:28:44Z</time>
      </trkpt>
      <trkpt lat="43.28148" lon="5.96479">
        <ele>352.77734375</ele>
        <time>2018-11-18T11:28:45Z</time>
      </trkpt>
      <trkpt lat="43.28146" lon="5.96484">
        <ele>350.78515625</ele>
        <time>2018-11-18T11:28:54Z</time>
      </trkpt>
      <trkpt lat="43.28148" lon="5.96486">
        <ele>352.16796875</ele>
        <time>2018-11-18T11:28:59Z</time>
      </trkpt>
      <trkpt lat="43.2815" lon="5.96488">
        <ele>352.9609375</ele>
        <time>2018-11-18T11:29:00Z</time>
      </trkpt>
      <trkpt lat="43.28152" lon="5.96491">
        <ele>353.90625</ele>
        <time>2018-11-18T11:29:01Z</time>
      </trkpt>
      <trkpt lat="43.28155" lon="5.96495">
        <ele>355.48828125</ele>
        <time>2018-11-18T11:29:03Z</time>
      </trkpt>
      <trkpt lat="43.28156" lon="5.96499">
        <ele>356.33203125</ele>
        <time>2018-11-18T11:29:04Z</time>
      </trkpt>
      <trkpt lat="43.28159" lon="5.96505">
        <ele>357.65625</ele>
        <time>2018-11-18T11:29:06Z</time>
      </trkpt>
      <trkpt lat="43.28159" lon="5.96507">
        <ele>356.8515625</ele>
        <time>2018-11-18T11:29:07Z</time>
      </trkpt>
      <trkpt lat="43.28158" lon="5.96509">
        <ele>355.80859375</ele>
        <time>2018-11-18T11:29:08Z</time>
      </trkpt>
      <trkpt lat="43.28155" lon="5.96509">
        <ele>353.3984375</ele>
        <time>2018-11-18T11:29:17Z</time>
      </trkpt>
      <trkpt lat="43.28155" lon="5.96508">
        <ele>353.3671875</ele>
        <time>2018-11-18T11:29:18Z</time>
      </trkpt>
      <trkpt lat="43.28154" lon="5.96506">
        <ele>353.03515625</ele>
        <time>2018-11-18T11:29:20Z</time>
      </trkpt>
      <trkpt lat="43.28144" lon="5.96506">
        <ele>345.28515625</ele>
        <time>2018-11-18T11:29:29Z</time>
      </trkpt>
      <trkpt lat="43.28142" lon="5.96507">
        <ele>343.49609375</ele>
        <time>2018-11-18T11:29:30Z</time>
      </trkpt>
      <trkpt lat="43.28142" lon="5.96509">
        <ele>342.90234375</ele>
        <time>2018-11-18T11:29:31Z</time>
      </trkpt>
      <trkpt lat="43.28142" lon="5.96511">
        <ele>342.83203125</ele>
        <time>2018-11-18T11:29:32Z</time>
      </trkpt>
      <trkpt lat="43.28144" lon="5.96522">
        <ele>342.48046875</ele>
        <time>2018-11-18T11:29:35Z</time>
      </trkpt>
      <trkpt lat="43.28143" lon="5.96527">
        <ele>340.51953125</ele>
        <time>2018-11-18T11:29:36Z</time>
      </trkpt>
      <trkpt lat="43.28142" lon="5.96531">
        <ele>338.7109375</ele>
        <time>2018-11-18T11:29:37Z</time>
      </trkpt>
      <trkpt lat="43.28141" lon="5.96534">
        <ele>337.58203125</ele>
        <time>2018-11-18T11:29:38Z</time>
      </trkpt>
      <trkpt lat="43.28141" lon="5.96537">
        <ele>337.04296875</ele>
        <time>2018-11-18T11:29:39Z</time>
      </trkpt>
      <trkpt lat="43.28143" lon="5.9654">
        <ele>337.43359375</ele>
        <time>2018-11-18T11:29:40Z</time>
      </trkpt>
      <trkpt lat="43.28146" lon="5.96549">
        <ele>338.41015625</ele>
        <time>2018-11-18T11:29:42Z</time>
      </trkpt>
      <trkpt lat="43.28148" lon="5.96554">
        <ele>338.6640625</ele>
        <time>2018-11-18T11:29:43Z</time>
      </trkpt>
      <trkpt lat="43.28153" lon="5.96571">
        <ele>339.4140625</ele>
        <time>2018-11-18T11:29:47Z</time>
      </trkpt>
      <trkpt lat="43.28152" lon="5.96576">
        <ele>338.1640625</ele>
        <time>2018-11-18T11:29:48Z</time>
      </trkpt>
      <trkpt lat="43.28152" lon="5.96603">
        <ele>333.30078125</ele>
        <time>2018-11-18T11:29:52Z</time>
      </trkpt>
      <trkpt lat="43.28153" lon="5.9661">
        <ele>332.83203125</ele>
        <time>2018-11-18T11:29:53Z</time>
      </trkpt>
      <trkpt lat="43.28154" lon="5.96617">
        <ele>332.37890625</ele>
        <time>2018-11-18T11:29:54Z</time>
      </trkpt>
      <trkpt lat="43.28156" lon="5.96621">
        <ele>332.3828125</ele>
        <time>2018-11-18T11:29:55Z</time>
      </trkpt>
      <trkpt lat="43.28157" lon="5.96626">
        <ele>332.76953125</ele>
        <time>2018-11-18T11:29:56Z</time>
      </trkpt>
      <trkpt lat="43.28158" lon="5.96631">
        <ele>332.5</ele>
        <time>2018-11-18T11:29:57Z</time>
      </trkpt>
      <trkpt lat="43.28159" lon="5.96636">
        <ele>332.1328125</ele>
        <time>2018-11-18T11:29:58Z</time>
      </trkpt>
      <trkpt lat="43.2816" lon="5.96641">
        <ele>331.484375</ele>
        <time>2018-11-18T11:29:59Z</time>
      </trkpt>
      <trkpt lat="43.28159" lon="5.96646">
        <ele>330.046875</ele>
        <time>2018-11-18T11:30:00Z</time>
      </trkpt>
      <trkpt lat="43.28158" lon="5.96654">
        <ele>327.40234375</ele>
        <time>2018-11-18T11:30:01Z</time>
      </trkpt>
      <trkpt lat="43.28156" lon="5.96661">
        <ele>324.33203125</ele>
        <time>2018-11-18T11:30:02Z</time>
      </trkpt>
      <trkpt lat="43.28154" lon="5.96668">
        <ele>321.8046875</ele>
        <time>2018-11-18T11:30:03Z</time>
      </trkpt>
      <trkpt lat="43.28153" lon="5.96676">
        <ele>319.58984375</ele>
        <time>2018-11-18T11:30:04Z</time>
      </trkpt>
      <trkpt lat="43.28153" lon="5.96696">
        <ele>316.171875</ele>
        <time>2018-11-18T11:30:08Z</time>
      </trkpt>
      <trkpt lat="43.28158" lon="5.96708">
        <ele>317.41796875</ele>
        <time>2018-11-18T11:30:10Z</time>
      </trkpt>
      <trkpt lat="43.28165" lon="5.96729">
        <ele>317.203125</ele>
        <time>2018-11-18T11:30:13Z</time>
      </trkpt>
      <trkpt lat="43.28171" lon="5.96761">
        <ele>311.44140625</ele>
        <time>2018-11-18T11:30:17Z</time>
      </trkpt>
      <trkpt lat="43.28173" lon="5.96769">
        <ele>309.62890625</ele>
        <time>2018-11-18T11:30:18Z</time>
      </trkpt>
      <trkpt lat="43.28174" lon="5.96776">
        <ele>307.85546875</ele>
        <time>2018-11-18T11:30:19Z</time>
      </trkpt>
      <trkpt lat="43.28174" lon="5.96782">
        <ele>306.22265625</ele>
        <time>2018-11-18T11:30:20Z</time>
      </trkpt>
      <trkpt lat="43.28175" lon="5.96788">
        <ele>304.609375</ele>
        <time>2018-11-18T11:30:21Z</time>
      </trkpt>
      <trkpt lat="43.28176" lon="5.96803">
        <ele>299.8359375</ele>
        <time>2018-11-18T11:30:24Z</time>
      </trkpt>
      <trkpt lat="43.28177" lon="5.96822">
        <ele>294.734375</ele>
        <time>2018-11-18T11:30:29Z</time>
      </trkpt>
      <trkpt lat="43.28179" lon="5.96827">
        <ele>294.04296875</ele>
        <time>2018-11-18T11:30:30Z</time>
      </trkpt>
      <trkpt lat="43.2819" lon="5.9685">
        <ele>292.890625</ele>
        <time>2018-11-18T11:30:34Z</time>
      </trkpt>
      <trkpt lat="43.28208" lon="5.96866">
        <ele>297.95703125</ele>
        <time>2018-11-18T11:30:42Z</time>
      </trkpt>
      <trkpt lat="43.28214" lon="5.96868">
        <ele>300.7890625</ele>
        <time>2018-11-18T11:30:45Z</time>
      </trkpt>
      <trkpt lat="43.28215" lon="5.9687">
        <ele>301.30078125</ele>
        <time>2018-11-18T11:30:46Z</time>
      </trkpt>
      <trkpt lat="43.28215" lon="5.96919">
        <ele>293.96875</ele>
        <time>2018-11-18T11:30:57Z</time>
      </trkpt>
      <trkpt lat="43.28209" lon="5.96941">
        <ele>288.2578125</ele>
        <time>2018-11-18T11:31:03Z</time>
      </trkpt>
      <trkpt lat="43.28208" lon="5.96944">
        <ele>287.21875</ele>
        <time>2018-11-18T11:31:04Z</time>
      </trkpt>
      <trkpt lat="43.28207" lon="5.96947">
        <ele>286.5078125</ele>
        <time>2018-11-18T11:31:05Z</time>
      </trkpt>
      <trkpt lat="43.28206" lon="5.96949">
        <ele>285.9140625</ele>
        <time>2018-11-18T11:31:18Z</time>
      </trkpt>
      <trkpt lat="43.28202" lon="5.96955">
        <ele>283.72265625</ele>
        <time>2018-11-18T11:31:41Z</time>
      </trkpt>
      <trkpt lat="43.282" lon="5.96957">
        <ele>282.76171875</ele>
        <time>2018-11-18T11:31:42Z</time>
      </trkpt>
      <trkpt lat="43.28198" lon="5.96959">
        <ele>281.63671875</ele>
        <time>2018-11-18T11:31:43Z</time>
      </trkpt>
      <trkpt lat="43.28192" lon="5.96963">
        <ele>279.984375</ele>
        <time>2018-11-18T11:31:45Z</time>
      </trkpt>
      <trkpt lat="43.28187" lon="5.96967">
        <ele>278.84375</ele>
        <time>2018-11-18T11:31:48Z</time>
      </trkpt>
      <trkpt lat="43.28185" lon="5.96965">
        <ele>278.609375</ele>
        <time>2018-11-18T11:31:49Z</time>
      </trkpt>
      <trkpt lat="43.28183" lon="5.96964">
        <ele>278.39453125</ele>
        <time>2018-11-18T11:31:50Z</time>
      </trkpt>
      <trkpt lat="43.28181" lon="5.96964">
        <ele>278.15625</ele>
        <time>2018-11-18T11:31:51Z</time>
      </trkpt>
      <trkpt lat="43.2818" lon="5.96964">
        <ele>277.859375</ele>
        <time>2018-11-18T11:31:52Z</time>
      </trkpt>
      <trkpt lat="43.28177" lon="5.96964">
        <ele>277.4375</ele>
        <time>2018-11-18T11:31:53Z</time>
      </trkpt>
      <trkpt lat="43.28174" lon="5.96963">
        <ele>277.015625</ele>
        <time>2018-11-18T11:31:54Z</time>
      </trkpt>
      <trkpt lat="43.28172" lon="5.96962">
        <ele>276.55078125</ele>
        <time>2018-11-18T11:31:55Z</time>
      </trkpt>
      <trkpt lat="43.28146" lon="5.96945">
        <ele>274.4921875</ele>
        <time>2018-11-18T11:32:03Z</time>
      </trkpt>
      <trkpt lat="43.28145" lon="5.96943">
        <ele>274.37109375</ele>
        <time>2018-11-18T11:32:04Z</time>
      </trkpt>
      <trkpt lat="43.28144" lon="5.96941">
        <ele>274.2734375</ele>
        <time>2018-11-18T11:32:05Z</time>
      </trkpt>
      <trkpt lat="43.28143" lon="5.96938">
        <ele>274.30859375</ele>
        <time>2018-11-18T11:32:06Z</time>
      </trkpt>
      <trkpt lat="43.28142" lon="5.96934">
        <ele>274.40234375</ele>
        <time>2018-11-18T11:32:07Z</time>
      </trkpt>
      <trkpt lat="43.28129" lon="5.96883">
        <ele>276.19140625</ele>
        <time>2018-11-18T11:32:18Z</time>
      </trkpt>
      <trkpt lat="43.2811" lon="5.96817">
        <ele>278.1953125</ele>
        <time>2018-11-18T11:32:32Z</time>
      </trkpt>
      <trkpt lat="43.28097" lon="5.96765">
        <ele>281.2421875</ele>
        <time>2018-11-18T11:32:44Z</time>
      </trkpt>
      <trkpt lat="43.28089" lon="5.96739">
        <ele>282.8515625</ele>
        <time>2018-11-18T11:32:50Z</time>
      </trkpt>
      <trkpt lat="43.2809" lon="5.96735">
        <ele>282.88671875</ele>
        <time>2018-11-18T11:32:51Z</time>
      </trkpt>
      <trkpt lat="43.28092" lon="5.96731">
        <ele>282.94921875</ele>
        <time>2018-11-18T11:32:52Z</time>
      </trkpt>
      <trkpt lat="43.28094" lon="5.96727">
        <ele>283.06640625</ele>
        <time>2018-11-18T11:32:53Z</time>
      </trkpt>
      <trkpt lat="43.28095" lon="5.96723">
        <ele>283.2421875</ele>
        <time>2018-11-18T11:32:54Z</time>
      </trkpt>
      <trkpt lat="43.28097" lon="5.96719">
        <ele>283.4921875</ele>
        <time>2018-11-18T11:32:55Z</time>
      </trkpt>
      <trkpt lat="43.28096" lon="5.96715">
        <ele>283.83203125</ele>
        <time>2018-11-18T11:32:56Z</time>
      </trkpt>
      <trkpt lat="43.28095" lon="5.96711">
        <ele>284.12890625</ele>
        <time>2018-11-18T11:32:57Z</time>
      </trkpt>
      <trkpt lat="43.28093" lon="5.96695">
        <ele>285.1875</ele>
        <time>2018-11-18T11:33:07Z</time>
      </trkpt>
      <trkpt lat="43.28095" lon="5.96696">
        <ele>285.3828125</ele>
        <time>2018-11-18T11:33:11Z</time>
      </trkpt>
      <trkpt lat="43.28098" lon="5.96688">
        <ele>286.796875</ele>
        <time>2018-11-18T11:33:21Z</time>
      </trkpt>
      <trkpt lat="43.28099" lon="5.96684">
        <ele>287.3828125</ele>
        <time>2018-11-18T11:33:38Z</time>
      </trkpt>
      <trkpt lat="43.28104" lon="5.96683">
        <ele>288.68359375</ele>
        <time>2018-11-18T11:33:59Z</time>
      </trkpt>
      <trkpt lat="43.28105" lon="5.96679">
        <ele>289.37890625</ele>
        <time>2018-11-18T11:34:35Z</time>
      </trkpt>
      <trkpt lat="43.281" lon="5.9668">
        <ele>287.94921875</ele>
        <time>2018-11-18T11:35:10Z</time>
      </trkpt>
      <trkpt lat="43.28099" lon="5.9668">
        <ele>287.828125</ele>
        <time>2018-11-18T11:35:28Z</time>
      </trkpt>
      <trkpt lat="43.281" lon="5.9668">
        <ele>287.9375</ele>
        <time>2018-11-18T11:35:32Z</time>
      </trkpt>
    </trkseg>
  </trk>
</gpx>